<?xml version="1.0" encoding="UTF-8" standalone="no" ?>
<gpx xmlns="http://www.topografix.com/GPX/1/1" xmlns:xsi="http://www.w3.org/2001/XMLSchema-instance" xsi:schemaLocation="http://www.topografix.com/GPX/1/1 http://www.topografix.com/GPX/1/1/gpx.xsd" version="1.1" creator="VisuGPX - https://www.visugpx.com">
  <metadata>
    <name>2021-08-19 09-05 -Vendine matin</name>
  </metadata>
  <trk>
    <name><![CDATA[2021-08-19 09-05]]></name>
    <trkseg>
      <trkpt lat="43.60084" lon="1.42745">
        <ele>137.2</ele>
        <time>2021-08-19T09:05:28Z</time>
      </trkpt>
      <trkpt lat="43.60082" lon="1.42746">
        <ele>155</ele>
        <time>2021-08-19T09:05:33Z</time>
      </trkpt>
      <trkpt lat="43.60083" lon="1.42746">
        <ele>150</ele>
        <time>2021-08-19T09:05:38Z</time>
      </trkpt>
      <trkpt lat="43.60083" lon="1.42746">
        <ele>145.7</ele>
        <time>2021-08-19T09:05:43Z</time>
      </trkpt>
      <trkpt lat="43.60083" lon="1.42744">
        <ele>145</ele>
        <time>2021-08-19T09:05:48Z</time>
      </trkpt>
      <trkpt lat="43.60083" lon="1.42747">
        <ele>144.3</ele>
        <time>2021-08-19T09:05:53Z</time>
      </trkpt>
      <trkpt lat="43.60086" lon="1.42745">
        <ele>143.5</ele>
        <time>2021-08-19T09:05:58Z</time>
      </trkpt>
      <trkpt lat="43.60085" lon="1.42744">
        <ele>141.4</ele>
        <time>2021-08-19T09:06:03Z</time>
      </trkpt>
      <trkpt lat="43.60098" lon="1.42747">
        <ele>139.7</ele>
        <time>2021-08-19T09:06:14Z</time>
      </trkpt>
      <trkpt lat="43.60097" lon="1.42751">
        <ele>139.8</ele>
        <time>2021-08-19T09:06:19Z</time>
      </trkpt>
      <trkpt lat="43.60098" lon="1.42753">
        <ele>139.8</ele>
        <time>2021-08-19T09:06:24Z</time>
      </trkpt>
      <trkpt lat="43.60098" lon="1.42769">
        <ele>142.1</ele>
        <time>2021-08-19T09:06:29Z</time>
      </trkpt>
      <trkpt lat="43.60098" lon="1.4277">
        <ele>142.1</ele>
        <time>2021-08-19T09:06:34Z</time>
      </trkpt>
      <trkpt lat="43.60103" lon="1.42776">
        <ele>142.1</ele>
        <time>2021-08-19T09:06:39Z</time>
      </trkpt>
      <trkpt lat="43.60107" lon="1.42778">
        <ele>142</ele>
        <time>2021-08-19T09:06:44Z</time>
      </trkpt>
      <trkpt lat="43.6011" lon="1.42783">
        <ele>141.3</ele>
        <time>2021-08-19T09:06:49Z</time>
      </trkpt>
      <trkpt lat="43.60112" lon="1.42782">
        <ele>140.5</ele>
        <time>2021-08-19T09:06:54Z</time>
      </trkpt>
      <trkpt lat="43.6011" lon="1.42781">
        <ele>138.4</ele>
        <time>2021-08-19T09:06:59Z</time>
      </trkpt>
      <trkpt lat="43.6011" lon="1.42781">
        <ele>137.7</ele>
        <time>2021-08-19T09:07:04Z</time>
      </trkpt>
      <trkpt lat="43.6011" lon="1.42777">
        <ele>137.7</ele>
        <time>2021-08-19T09:07:09Z</time>
      </trkpt>
      <trkpt lat="43.60108" lon="1.42777">
        <ele>137</ele>
        <time>2021-08-19T09:07:14Z</time>
      </trkpt>
      <trkpt lat="43.60108" lon="1.42775">
        <ele>136.3</ele>
        <time>2021-08-19T09:07:19Z</time>
      </trkpt>
      <trkpt lat="43.60108" lon="1.42773">
        <ele>135.5</ele>
        <time>2021-08-19T09:07:24Z</time>
      </trkpt>
      <trkpt lat="43.60105" lon="1.42773">
        <ele>135.6</ele>
        <time>2021-08-19T09:07:29Z</time>
      </trkpt>
      <trkpt lat="43.60099" lon="1.42771">
        <ele>136.4</ele>
        <time>2021-08-19T09:07:34Z</time>
      </trkpt>
      <trkpt lat="43.60097" lon="1.42761">
        <ele>140.6</ele>
        <time>2021-08-19T09:07:39Z</time>
      </trkpt>
      <trkpt lat="43.60093" lon="1.42754">
        <ele>144.2</ele>
        <time>2021-08-19T09:07:44Z</time>
      </trkpt>
      <trkpt lat="43.6009" lon="1.42753">
        <ele>146.4</ele>
        <time>2021-08-19T09:07:49Z</time>
      </trkpt>
      <trkpt lat="43.6009" lon="1.42752">
        <ele>145.6</ele>
        <time>2021-08-19T09:07:54Z</time>
      </trkpt>
      <trkpt lat="43.60092" lon="1.4275">
        <ele>145.6</ele>
        <time>2021-08-19T09:07:59Z</time>
      </trkpt>
      <trkpt lat="43.60109" lon="1.42751">
        <ele>143.7</ele>
        <time>2021-08-19T09:08:09Z</time>
      </trkpt>
      <trkpt lat="43.60111" lon="1.4275">
        <ele>142.2</ele>
        <time>2021-08-19T09:08:14Z</time>
      </trkpt>
      <trkpt lat="43.60098" lon="1.42748">
        <ele>143.9</ele>
        <time>2021-08-19T09:08:19Z</time>
      </trkpt>
      <trkpt lat="43.60088" lon="1.42755">
        <ele>144.3</ele>
        <time>2021-08-19T09:08:24Z</time>
      </trkpt>
      <trkpt lat="43.60085" lon="1.42768">
        <ele>144.6</ele>
        <time>2021-08-19T09:08:29Z</time>
      </trkpt>
      <trkpt lat="43.60082" lon="1.42784">
        <ele>144.2</ele>
        <time>2021-08-19T09:08:34Z</time>
      </trkpt>
      <trkpt lat="43.60078" lon="1.42802">
        <ele>143.1</ele>
        <time>2021-08-19T09:08:39Z</time>
      </trkpt>
      <trkpt lat="43.60071" lon="1.42822">
        <ele>142.2</ele>
        <time>2021-08-19T09:08:44Z</time>
      </trkpt>
      <trkpt lat="43.60066" lon="1.42842">
        <ele>141.9</ele>
        <time>2021-08-19T09:08:49Z</time>
      </trkpt>
      <trkpt lat="43.6006" lon="1.42861">
        <ele>140.9</ele>
        <time>2021-08-19T09:08:54Z</time>
      </trkpt>
      <trkpt lat="43.60047" lon="1.4288">
        <ele>141.6</ele>
        <time>2021-08-19T09:08:59Z</time>
      </trkpt>
      <trkpt lat="43.60031" lon="1.42895">
        <ele>142.9</ele>
        <time>2021-08-19T09:09:04Z</time>
      </trkpt>
      <trkpt lat="43.60014" lon="1.42908">
        <ele>144.3</ele>
        <time>2021-08-19T09:09:09Z</time>
      </trkpt>
      <trkpt lat="43.6" lon="1.42923">
        <ele>147</ele>
        <time>2021-08-19T09:09:14Z</time>
      </trkpt>
      <trkpt lat="43.59982" lon="1.42935">
        <ele>148.3</ele>
        <time>2021-08-19T09:09:19Z</time>
      </trkpt>
      <trkpt lat="43.59964" lon="1.42949">
        <ele>149</ele>
        <time>2021-08-19T09:09:24Z</time>
      </trkpt>
      <trkpt lat="43.59947" lon="1.42966">
        <ele>150.5</ele>
        <time>2021-08-19T09:09:29Z</time>
      </trkpt>
      <trkpt lat="43.59932" lon="1.42976">
        <ele>149.6</ele>
        <time>2021-08-19T09:09:34Z</time>
      </trkpt>
      <trkpt lat="43.59916" lon="1.42988">
        <ele>149.5</ele>
        <time>2021-08-19T09:09:39Z</time>
      </trkpt>
      <trkpt lat="43.59896" lon="1.43003">
        <ele>148.8</ele>
        <time>2021-08-19T09:09:44Z</time>
      </trkpt>
      <trkpt lat="43.59872" lon="1.4302">
        <ele>149</ele>
        <time>2021-08-19T09:09:49Z</time>
      </trkpt>
      <trkpt lat="43.59849" lon="1.43035">
        <ele>148.5</ele>
        <time>2021-08-19T09:09:54Z</time>
      </trkpt>
      <trkpt lat="43.59826" lon="1.4305">
        <ele>147.9</ele>
        <time>2021-08-19T09:09:59Z</time>
      </trkpt>
      <trkpt lat="43.59808" lon="1.43063">
        <ele>147.2</ele>
        <time>2021-08-19T09:10:04Z</time>
      </trkpt>
      <trkpt lat="43.5979" lon="1.43075">
        <ele>146.4</ele>
        <time>2021-08-19T09:10:09Z</time>
      </trkpt>
      <trkpt lat="43.59772" lon="1.43092">
        <ele>145.7</ele>
        <time>2021-08-19T09:10:14Z</time>
      </trkpt>
      <trkpt lat="43.59771" lon="1.43119">
        <ele>145.4</ele>
        <time>2021-08-19T09:10:19Z</time>
      </trkpt>
      <trkpt lat="43.59783" lon="1.43153">
        <ele>144.9</ele>
        <time>2021-08-19T09:10:24Z</time>
      </trkpt>
      <trkpt lat="43.59796" lon="1.43187">
        <ele>141.5</ele>
        <time>2021-08-19T09:10:29Z</time>
      </trkpt>
      <trkpt lat="43.59805" lon="1.4321">
        <ele>138.7</ele>
        <time>2021-08-19T09:10:34Z</time>
      </trkpt>
      <trkpt lat="43.59812" lon="1.43238">
        <ele>138.2</ele>
        <time>2021-08-19T09:10:39Z</time>
      </trkpt>
      <trkpt lat="43.59818" lon="1.43271">
        <ele>138.5</ele>
        <time>2021-08-19T09:10:44Z</time>
      </trkpt>
      <trkpt lat="43.59824" lon="1.43302">
        <ele>138.8</ele>
        <time>2021-08-19T09:10:49Z</time>
      </trkpt>
      <trkpt lat="43.5983" lon="1.43332">
        <ele>139.1</ele>
        <time>2021-08-19T09:10:54Z</time>
      </trkpt>
      <trkpt lat="43.59837" lon="1.43364">
        <ele>140.7</ele>
        <time>2021-08-19T09:10:59Z</time>
      </trkpt>
      <trkpt lat="43.59844" lon="1.43396">
        <ele>141.7</ele>
        <time>2021-08-19T09:11:04Z</time>
      </trkpt>
      <trkpt lat="43.59847" lon="1.43429">
        <ele>140</ele>
        <time>2021-08-19T09:11:09Z</time>
      </trkpt>
      <trkpt lat="43.59851" lon="1.43457">
        <ele>138.9</ele>
        <time>2021-08-19T09:11:14Z</time>
      </trkpt>
      <trkpt lat="43.59856" lon="1.43487">
        <ele>137.8</ele>
        <time>2021-08-19T09:11:19Z</time>
      </trkpt>
      <trkpt lat="43.59863" lon="1.43518">
        <ele>138.7</ele>
        <time>2021-08-19T09:11:24Z</time>
      </trkpt>
      <trkpt lat="43.5987" lon="1.43552">
        <ele>139</ele>
        <time>2021-08-19T09:11:29Z</time>
      </trkpt>
      <trkpt lat="43.59878" lon="1.43587">
        <ele>140.7</ele>
        <time>2021-08-19T09:11:34Z</time>
      </trkpt>
      <trkpt lat="43.59884" lon="1.43621">
        <ele>141</ele>
        <time>2021-08-19T09:11:39Z</time>
      </trkpt>
      <trkpt lat="43.59888" lon="1.43653">
        <ele>140</ele>
        <time>2021-08-19T09:11:44Z</time>
      </trkpt>
      <trkpt lat="43.59888" lon="1.4368">
        <ele>138.2</ele>
        <time>2021-08-19T09:11:49Z</time>
      </trkpt>
      <trkpt lat="43.59893" lon="1.43705">
        <ele>138.4</ele>
        <time>2021-08-19T09:11:54Z</time>
      </trkpt>
      <trkpt lat="43.59897" lon="1.43731">
        <ele>138.7</ele>
        <time>2021-08-19T09:11:59Z</time>
      </trkpt>
      <trkpt lat="43.59902" lon="1.43756">
        <ele>138.9</ele>
        <time>2021-08-19T09:12:04Z</time>
      </trkpt>
      <trkpt lat="43.59906" lon="1.43782">
        <ele>139.9</ele>
        <time>2021-08-19T09:12:09Z</time>
      </trkpt>
      <trkpt lat="43.5991" lon="1.43807">
        <ele>140.1</ele>
        <time>2021-08-19T09:12:14Z</time>
      </trkpt>
      <trkpt lat="43.59915" lon="1.43832">
        <ele>141.1</ele>
        <time>2021-08-19T09:12:19Z</time>
      </trkpt>
      <trkpt lat="43.59919" lon="1.43858">
        <ele>142</ele>
        <time>2021-08-19T09:12:24Z</time>
      </trkpt>
      <trkpt lat="43.59925" lon="1.43883">
        <ele>144.4</ele>
        <time>2021-08-19T09:12:29Z</time>
      </trkpt>
      <trkpt lat="43.59929" lon="1.43905">
        <ele>145.3</ele>
        <time>2021-08-19T09:12:34Z</time>
      </trkpt>
      <trkpt lat="43.59933" lon="1.43926">
        <ele>146.9</ele>
        <time>2021-08-19T09:12:39Z</time>
      </trkpt>
      <trkpt lat="43.59937" lon="1.43948">
        <ele>147.1</ele>
        <time>2021-08-19T09:12:44Z</time>
      </trkpt>
      <trkpt lat="43.59943" lon="1.43977">
        <ele>146.6</ele>
        <time>2021-08-19T09:12:49Z</time>
      </trkpt>
      <trkpt lat="43.59948" lon="1.44008">
        <ele>146.2</ele>
        <time>2021-08-19T09:12:54Z</time>
      </trkpt>
      <trkpt lat="43.59955" lon="1.44042">
        <ele>146.5</ele>
        <time>2021-08-19T09:12:59Z</time>
      </trkpt>
      <trkpt lat="43.59965" lon="1.44078">
        <ele>146.8</ele>
        <time>2021-08-19T09:13:04Z</time>
      </trkpt>
      <trkpt lat="43.59973" lon="1.4412">
        <ele>145.7</ele>
        <time>2021-08-19T09:13:09Z</time>
      </trkpt>
      <trkpt lat="43.59985" lon="1.44164">
        <ele>146.8</ele>
        <time>2021-08-19T09:13:14Z</time>
      </trkpt>
      <trkpt lat="43.59998" lon="1.44204">
        <ele>149.1</ele>
        <time>2021-08-19T09:13:19Z</time>
      </trkpt>
      <trkpt lat="43.6001" lon="1.44241">
        <ele>151.4</ele>
        <time>2021-08-19T09:13:24Z</time>
      </trkpt>
      <trkpt lat="43.60017" lon="1.44277">
        <ele>151.8</ele>
        <time>2021-08-19T09:13:29Z</time>
      </trkpt>
      <trkpt lat="43.60025" lon="1.44313">
        <ele>152.1</ele>
        <time>2021-08-19T09:13:34Z</time>
      </trkpt>
      <trkpt lat="43.60035" lon="1.4435">
        <ele>153.7</ele>
        <time>2021-08-19T09:13:39Z</time>
      </trkpt>
      <trkpt lat="43.60041" lon="1.44386">
        <ele>154.8</ele>
        <time>2021-08-19T09:13:44Z</time>
      </trkpt>
      <trkpt lat="43.60041" lon="1.44423">
        <ele>153.9</ele>
        <time>2021-08-19T09:13:49Z</time>
      </trkpt>
      <trkpt lat="43.60043" lon="1.4446">
        <ele>153</ele>
        <time>2021-08-19T09:13:54Z</time>
      </trkpt>
      <trkpt lat="43.60045" lon="1.44497">
        <ele>153.4</ele>
        <time>2021-08-19T09:13:59Z</time>
      </trkpt>
      <trkpt lat="43.60046" lon="1.44536">
        <ele>151.8</ele>
        <time>2021-08-19T09:14:04Z</time>
      </trkpt>
      <trkpt lat="43.60049" lon="1.44573">
        <ele>151.6</ele>
        <time>2021-08-19T09:14:09Z</time>
      </trkpt>
      <trkpt lat="43.60052" lon="1.44613">
        <ele>152.8</ele>
        <time>2021-08-19T09:14:14Z</time>
      </trkpt>
      <trkpt lat="43.60054" lon="1.44651">
        <ele>153.3</ele>
        <time>2021-08-19T09:14:19Z</time>
      </trkpt>
      <trkpt lat="43.60057" lon="1.44691">
        <ele>155.2</ele>
        <time>2021-08-19T09:14:24Z</time>
      </trkpt>
      <trkpt lat="43.60058" lon="1.44724">
        <ele>156.4</ele>
        <time>2021-08-19T09:14:29Z</time>
      </trkpt>
      <trkpt lat="43.6006" lon="1.44759">
        <ele>156.8</ele>
        <time>2021-08-19T09:14:34Z</time>
      </trkpt>
      <trkpt lat="43.60062" lon="1.44801">
        <ele>156</ele>
        <time>2021-08-19T09:14:39Z</time>
      </trkpt>
      <trkpt lat="43.60063" lon="1.44853">
        <ele>156</ele>
        <time>2021-08-19T09:14:44Z</time>
      </trkpt>
      <trkpt lat="43.60067" lon="1.44905">
        <ele>158</ele>
        <time>2021-08-19T09:14:49Z</time>
      </trkpt>
      <trkpt lat="43.6007" lon="1.44957">
        <ele>158.7</ele>
        <time>2021-08-19T09:14:54Z</time>
      </trkpt>
      <trkpt lat="43.60072" lon="1.45008">
        <ele>158.7</ele>
        <time>2021-08-19T09:14:59Z</time>
      </trkpt>
      <trkpt lat="43.60065" lon="1.4505">
        <ele>152.4</ele>
        <time>2021-08-19T09:15:04Z</time>
      </trkpt>
      <trkpt lat="43.60064" lon="1.45094">
        <ele>153</ele>
        <time>2021-08-19T09:15:09Z</time>
      </trkpt>
      <trkpt lat="43.60059" lon="1.45128">
        <ele>153</ele>
        <time>2021-08-19T09:15:14Z</time>
      </trkpt>
      <trkpt lat="43.60055" lon="1.45155">
        <ele>153.5</ele>
        <time>2021-08-19T09:15:19Z</time>
      </trkpt>
      <trkpt lat="43.60046" lon="1.45175">
        <ele>150.5</ele>
        <time>2021-08-19T09:15:24Z</time>
      </trkpt>
      <trkpt lat="43.6004" lon="1.45197">
        <ele>149.6</ele>
        <time>2021-08-19T09:15:29Z</time>
      </trkpt>
      <trkpt lat="43.60045" lon="1.45221">
        <ele>149.8</ele>
        <time>2021-08-19T09:15:34Z</time>
      </trkpt>
      <trkpt lat="43.60069" lon="1.45214">
        <ele>149.7</ele>
        <time>2021-08-19T09:15:39Z</time>
      </trkpt>
      <trkpt lat="43.60085" lon="1.4522">
        <ele>150.1</ele>
        <time>2021-08-19T09:15:44Z</time>
      </trkpt>
      <trkpt lat="43.60105" lon="1.4522">
        <ele>150.2</ele>
        <time>2021-08-19T09:15:49Z</time>
      </trkpt>
      <trkpt lat="43.60122" lon="1.45231">
        <ele>150.6</ele>
        <time>2021-08-19T09:15:54Z</time>
      </trkpt>
      <trkpt lat="43.60122" lon="1.45262">
        <ele>152.5</ele>
        <time>2021-08-19T09:15:59Z</time>
      </trkpt>
      <trkpt lat="43.60126" lon="1.4528">
        <ele>153.3</ele>
        <time>2021-08-19T09:16:04Z</time>
      </trkpt>
      <trkpt lat="43.60145" lon="1.45281">
        <ele>154.3</ele>
        <time>2021-08-19T09:16:09Z</time>
      </trkpt>
      <trkpt lat="43.60166" lon="1.45294">
        <ele>156</ele>
        <time>2021-08-19T09:16:14Z</time>
      </trkpt>
      <trkpt lat="43.60165" lon="1.45331">
        <ele>157.3</ele>
        <time>2021-08-19T09:16:19Z</time>
      </trkpt>
      <trkpt lat="43.60158" lon="1.45365">
        <ele>156.5</ele>
        <time>2021-08-19T09:16:24Z</time>
      </trkpt>
      <trkpt lat="43.60153" lon="1.45395">
        <ele>157.1</ele>
        <time>2021-08-19T09:16:29Z</time>
      </trkpt>
      <trkpt lat="43.60148" lon="1.45418">
        <ele>155.5</ele>
        <time>2021-08-19T09:16:34Z</time>
      </trkpt>
      <trkpt lat="43.60164" lon="1.45422">
        <ele>157.9</ele>
        <time>2021-08-19T09:16:39Z</time>
      </trkpt>
      <trkpt lat="43.60187" lon="1.45423">
        <ele>158</ele>
        <time>2021-08-19T09:16:44Z</time>
      </trkpt>
      <trkpt lat="43.60211" lon="1.45428">
        <ele>158.8</ele>
        <time>2021-08-19T09:16:49Z</time>
      </trkpt>
      <trkpt lat="43.60237" lon="1.45431">
        <ele>159.6</ele>
        <time>2021-08-19T09:16:54Z</time>
      </trkpt>
      <trkpt lat="43.60264" lon="1.45434">
        <ele>159.6</ele>
        <time>2021-08-19T09:16:59Z</time>
      </trkpt>
      <trkpt lat="43.60289" lon="1.45433">
        <ele>154.7</ele>
        <time>2021-08-19T09:17:04Z</time>
      </trkpt>
      <trkpt lat="43.6031" lon="1.45436">
        <ele>153.4</ele>
        <time>2021-08-19T09:17:09Z</time>
      </trkpt>
      <trkpt lat="43.60332" lon="1.45469">
        <ele>154</ele>
        <time>2021-08-19T09:17:14Z</time>
      </trkpt>
      <trkpt lat="43.60334" lon="1.45509">
        <ele>155.2</ele>
        <time>2021-08-19T09:17:19Z</time>
      </trkpt>
      <trkpt lat="43.60333" lon="1.45541">
        <ele>152.2</ele>
        <time>2021-08-19T09:17:24Z</time>
      </trkpt>
      <trkpt lat="43.60335" lon="1.45573">
        <ele>152.6</ele>
        <time>2021-08-19T09:17:29Z</time>
      </trkpt>
      <trkpt lat="43.60344" lon="1.45602">
        <ele>151.4</ele>
        <time>2021-08-19T09:17:34Z</time>
      </trkpt>
      <trkpt lat="43.60362" lon="1.45616">
        <ele>152.5</ele>
        <time>2021-08-19T09:17:39Z</time>
      </trkpt>
      <trkpt lat="43.60368" lon="1.45641">
        <ele>154.1</ele>
        <time>2021-08-19T09:17:44Z</time>
      </trkpt>
      <trkpt lat="43.60374" lon="1.45662">
        <ele>153.5</ele>
        <time>2021-08-19T09:17:49Z</time>
      </trkpt>
      <trkpt lat="43.60388" lon="1.45675">
        <ele>152.6</ele>
        <time>2021-08-19T09:17:54Z</time>
      </trkpt>
      <trkpt lat="43.60409" lon="1.45674">
        <ele>152.8</ele>
        <time>2021-08-19T09:17:59Z</time>
      </trkpt>
      <trkpt lat="43.6043" lon="1.45675">
        <ele>152.9</ele>
        <time>2021-08-19T09:18:04Z</time>
      </trkpt>
      <trkpt lat="43.60452" lon="1.45674">
        <ele>153</ele>
        <time>2021-08-19T09:18:09Z</time>
      </trkpt>
      <trkpt lat="43.60475" lon="1.45672">
        <ele>152.3</ele>
        <time>2021-08-19T09:18:14Z</time>
      </trkpt>
      <trkpt lat="43.60496" lon="1.45671">
        <ele>151.1</ele>
        <time>2021-08-19T09:18:19Z</time>
      </trkpt>
      <trkpt lat="43.60505" lon="1.45687">
        <ele>151.7</ele>
        <time>2021-08-19T09:18:24Z</time>
      </trkpt>
      <trkpt lat="43.60511" lon="1.45714">
        <ele>152</ele>
        <time>2021-08-19T09:18:29Z</time>
      </trkpt>
      <trkpt lat="43.60518" lon="1.4574">
        <ele>151.5</ele>
        <time>2021-08-19T09:18:34Z</time>
      </trkpt>
      <trkpt lat="43.60523" lon="1.45763">
        <ele>152.3</ele>
        <time>2021-08-19T09:18:39Z</time>
      </trkpt>
      <trkpt lat="43.60528" lon="1.45784">
        <ele>152.5</ele>
        <time>2021-08-19T09:18:44Z</time>
      </trkpt>
      <trkpt lat="43.60534" lon="1.45804">
        <ele>153.4</ele>
        <time>2021-08-19T09:18:49Z</time>
      </trkpt>
      <trkpt lat="43.60539" lon="1.45826">
        <ele>154.2</ele>
        <time>2021-08-19T09:18:54Z</time>
      </trkpt>
      <trkpt lat="43.60544" lon="1.4585">
        <ele>154.5</ele>
        <time>2021-08-19T09:18:59Z</time>
      </trkpt>
      <trkpt lat="43.60549" lon="1.45873">
        <ele>156.1</ele>
        <time>2021-08-19T09:19:04Z</time>
      </trkpt>
      <trkpt lat="43.60553" lon="1.45897">
        <ele>158.4</ele>
        <time>2021-08-19T09:19:09Z</time>
      </trkpt>
      <trkpt lat="43.60558" lon="1.45921">
        <ele>160.1</ele>
        <time>2021-08-19T09:19:14Z</time>
      </trkpt>
      <trkpt lat="43.60563" lon="1.45945">
        <ele>161.7</ele>
        <time>2021-08-19T09:19:19Z</time>
      </trkpt>
      <trkpt lat="43.60567" lon="1.4597">
        <ele>163.4</ele>
        <time>2021-08-19T09:19:24Z</time>
      </trkpt>
      <trkpt lat="43.60572" lon="1.45991">
        <ele>165</ele>
        <time>2021-08-19T09:19:29Z</time>
      </trkpt>
      <trkpt lat="43.60575" lon="1.46011">
        <ele>167.3</ele>
        <time>2021-08-19T09:19:34Z</time>
      </trkpt>
      <trkpt lat="43.60579" lon="1.4603">
        <ele>168.9</ele>
        <time>2021-08-19T09:19:39Z</time>
      </trkpt>
      <trkpt lat="43.6058" lon="1.46047">
        <ele>168.4</ele>
        <time>2021-08-19T09:19:44Z</time>
      </trkpt>
      <trkpt lat="43.60583" lon="1.46066">
        <ele>168.6</ele>
        <time>2021-08-19T09:19:49Z</time>
      </trkpt>
      <trkpt lat="43.60585" lon="1.46082">
        <ele>168.7</ele>
        <time>2021-08-19T09:19:54Z</time>
      </trkpt>
      <trkpt lat="43.60587" lon="1.46098">
        <ele>168.9</ele>
        <time>2021-08-19T09:19:59Z</time>
      </trkpt>
      <trkpt lat="43.60591" lon="1.46116">
        <ele>169.1</ele>
        <time>2021-08-19T09:20:04Z</time>
      </trkpt>
      <trkpt lat="43.60597" lon="1.46133">
        <ele>171.3</ele>
        <time>2021-08-19T09:20:09Z</time>
      </trkpt>
      <trkpt lat="43.60598" lon="1.46149">
        <ele>170.8</ele>
        <time>2021-08-19T09:20:14Z</time>
      </trkpt>
      <trkpt lat="43.60603" lon="1.46165">
        <ele>171.6</ele>
        <time>2021-08-19T09:20:19Z</time>
      </trkpt>
      <trkpt lat="43.60607" lon="1.46187">
        <ele>171.8</ele>
        <time>2021-08-19T09:20:25Z</time>
      </trkpt>
      <trkpt lat="43.60612" lon="1.46207">
        <ele>171.9</ele>
        <time>2021-08-19T09:20:31Z</time>
      </trkpt>
      <trkpt lat="43.60616" lon="1.46221">
        <ele>174.2</ele>
        <time>2021-08-19T09:20:36Z</time>
      </trkpt>
      <trkpt lat="43.60621" lon="1.46239">
        <ele>177.1</ele>
        <time>2021-08-19T09:20:41Z</time>
      </trkpt>
      <trkpt lat="43.60623" lon="1.46255">
        <ele>176.6</ele>
        <time>2021-08-19T09:20:46Z</time>
      </trkpt>
      <trkpt lat="43.60625" lon="1.46271">
        <ele>177.5</ele>
        <time>2021-08-19T09:20:51Z</time>
      </trkpt>
      <trkpt lat="43.60627" lon="1.46287">
        <ele>178.4</ele>
        <time>2021-08-19T09:20:56Z</time>
      </trkpt>
      <trkpt lat="43.60627" lon="1.46303">
        <ele>177.9</ele>
        <time>2021-08-19T09:21:01Z</time>
      </trkpt>
      <trkpt lat="43.60629" lon="1.4632">
        <ele>179.5</ele>
        <time>2021-08-19T09:21:06Z</time>
      </trkpt>
      <trkpt lat="43.60633" lon="1.46334">
        <ele>181</ele>
        <time>2021-08-19T09:21:11Z</time>
      </trkpt>
      <trkpt lat="43.60635" lon="1.46349">
        <ele>182.6</ele>
        <time>2021-08-19T09:21:16Z</time>
      </trkpt>
      <trkpt lat="43.60639" lon="1.46366">
        <ele>182.7</ele>
        <time>2021-08-19T09:21:21Z</time>
      </trkpt>
      <trkpt lat="43.60642" lon="1.46382">
        <ele>183.6</ele>
        <time>2021-08-19T09:21:26Z</time>
      </trkpt>
      <trkpt lat="43.60646" lon="1.46398">
        <ele>183.7</ele>
        <time>2021-08-19T09:21:31Z</time>
      </trkpt>
      <trkpt lat="43.60649" lon="1.46413">
        <ele>184.6</ele>
        <time>2021-08-19T09:21:36Z</time>
      </trkpt>
      <trkpt lat="43.60652" lon="1.46429">
        <ele>185.4</ele>
        <time>2021-08-19T09:21:41Z</time>
      </trkpt>
      <trkpt lat="43.60655" lon="1.46445">
        <ele>185.6</ele>
        <time>2021-08-19T09:21:46Z</time>
      </trkpt>
      <trkpt lat="43.60659" lon="1.46464">
        <ele>186.4</ele>
        <time>2021-08-19T09:21:51Z</time>
      </trkpt>
      <trkpt lat="43.60664" lon="1.46483">
        <ele>186.6</ele>
        <time>2021-08-19T09:21:56Z</time>
      </trkpt>
      <trkpt lat="43.60669" lon="1.46501">
        <ele>187.4</ele>
        <time>2021-08-19T09:22:01Z</time>
      </trkpt>
      <trkpt lat="43.60673" lon="1.4652">
        <ele>187.6</ele>
        <time>2021-08-19T09:22:06Z</time>
      </trkpt>
      <trkpt lat="43.60678" lon="1.46537">
        <ele>188.4</ele>
        <time>2021-08-19T09:22:11Z</time>
      </trkpt>
      <trkpt lat="43.60682" lon="1.46555">
        <ele>190</ele>
        <time>2021-08-19T09:22:16Z</time>
      </trkpt>
      <trkpt lat="43.60688" lon="1.46572">
        <ele>190.8</ele>
        <time>2021-08-19T09:22:21Z</time>
      </trkpt>
      <trkpt lat="43.60692" lon="1.46588">
        <ele>190.9</ele>
        <time>2021-08-19T09:22:26Z</time>
      </trkpt>
      <trkpt lat="43.60696" lon="1.46605">
        <ele>191.7</ele>
        <time>2021-08-19T09:22:31Z</time>
      </trkpt>
      <trkpt lat="43.60699" lon="1.46621">
        <ele>191.9</ele>
        <time>2021-08-19T09:22:36Z</time>
      </trkpt>
      <trkpt lat="43.60703" lon="1.46637">
        <ele>193.4</ele>
        <time>2021-08-19T09:22:41Z</time>
      </trkpt>
      <trkpt lat="43.60707" lon="1.46653">
        <ele>193.6</ele>
        <time>2021-08-19T09:22:46Z</time>
      </trkpt>
      <trkpt lat="43.6071" lon="1.46668">
        <ele>193.7</ele>
        <time>2021-08-19T09:22:51Z</time>
      </trkpt>
      <trkpt lat="43.60713" lon="1.46684">
        <ele>194.6</ele>
        <time>2021-08-19T09:22:56Z</time>
      </trkpt>
      <trkpt lat="43.60717" lon="1.46702">
        <ele>194.7</ele>
        <time>2021-08-19T09:23:01Z</time>
      </trkpt>
      <trkpt lat="43.6072" lon="1.46723">
        <ele>194.2</ele>
        <time>2021-08-19T09:23:06Z</time>
      </trkpt>
      <trkpt lat="43.60721" lon="1.46748">
        <ele>194.6</ele>
        <time>2021-08-19T09:23:11Z</time>
      </trkpt>
      <trkpt lat="43.60723" lon="1.46779">
        <ele>195</ele>
        <time>2021-08-19T09:23:16Z</time>
      </trkpt>
      <trkpt lat="43.60725" lon="1.46813">
        <ele>194</ele>
        <time>2021-08-19T09:23:21Z</time>
      </trkpt>
      <trkpt lat="43.60728" lon="1.46852">
        <ele>193.8</ele>
        <time>2021-08-19T09:23:26Z</time>
      </trkpt>
      <trkpt lat="43.60732" lon="1.46893">
        <ele>193.6</ele>
        <time>2021-08-19T09:23:31Z</time>
      </trkpt>
      <trkpt lat="43.60734" lon="1.46938">
        <ele>192.8</ele>
        <time>2021-08-19T09:23:36Z</time>
      </trkpt>
      <trkpt lat="43.60735" lon="1.46992">
        <ele>191.4</ele>
        <time>2021-08-19T09:23:41Z</time>
      </trkpt>
      <trkpt lat="43.60736" lon="1.47054">
        <ele>188.8</ele>
        <time>2021-08-19T09:23:46Z</time>
      </trkpt>
      <trkpt lat="43.60735" lon="1.47122">
        <ele>187</ele>
        <time>2021-08-19T09:23:51Z</time>
      </trkpt>
      <trkpt lat="43.60716" lon="1.47194">
        <ele>182.9</ele>
        <time>2021-08-19T09:23:56Z</time>
      </trkpt>
      <trkpt lat="43.607" lon="1.47249">
        <ele>179.9</ele>
        <time>2021-08-19T09:24:01Z</time>
      </trkpt>
      <trkpt lat="43.6069" lon="1.47287">
        <ele>177.2</ele>
        <time>2021-08-19T09:24:06Z</time>
      </trkpt>
      <trkpt lat="43.60683" lon="1.47308">
        <ele>173.4</ele>
        <time>2021-08-19T09:24:11Z</time>
      </trkpt>
      <trkpt lat="43.6068" lon="1.47324">
        <ele>173</ele>
        <time>2021-08-19T09:24:16Z</time>
      </trkpt>
      <trkpt lat="43.60669" lon="1.47352">
        <ele>170.9</ele>
        <time>2021-08-19T09:24:21Z</time>
      </trkpt>
      <trkpt lat="43.60656" lon="1.47391">
        <ele>169.7</ele>
        <time>2021-08-19T09:24:26Z</time>
      </trkpt>
      <trkpt lat="43.6064" lon="1.47438">
        <ele>168</ele>
        <time>2021-08-19T09:24:31Z</time>
      </trkpt>
      <trkpt lat="43.6062" lon="1.47487">
        <ele>165.7</ele>
        <time>2021-08-19T09:24:36Z</time>
      </trkpt>
      <trkpt lat="43.60593" lon="1.47534">
        <ele>162.9</ele>
        <time>2021-08-19T09:24:41Z</time>
      </trkpt>
      <trkpt lat="43.60564" lon="1.4758">
        <ele>160.1</ele>
        <time>2021-08-19T09:24:46Z</time>
      </trkpt>
      <trkpt lat="43.6054" lon="1.47632">
        <ele>157.3</ele>
        <time>2021-08-19T09:24:51Z</time>
      </trkpt>
      <trkpt lat="43.60526" lon="1.47693">
        <ele>155</ele>
        <time>2021-08-19T09:24:56Z</time>
      </trkpt>
      <trkpt lat="43.60517" lon="1.47757">
        <ele>152</ele>
        <time>2021-08-19T09:25:01Z</time>
      </trkpt>
      <trkpt lat="43.60516" lon="1.47814">
        <ele>150.7</ele>
        <time>2021-08-19T09:25:06Z</time>
      </trkpt>
      <trkpt lat="43.60516" lon="1.47848">
        <ele>149.1</ele>
        <time>2021-08-19T09:25:11Z</time>
      </trkpt>
      <trkpt lat="43.60515" lon="1.47856">
        <ele>147.8</ele>
        <time>2021-08-19T09:25:16Z</time>
      </trkpt>
      <trkpt lat="43.60513" lon="1.47864">
        <ele>148</ele>
        <time>2021-08-19T09:25:21Z</time>
      </trkpt>
      <trkpt lat="43.60511" lon="1.47886">
        <ele>147</ele>
        <time>2021-08-19T09:25:26Z</time>
      </trkpt>
      <trkpt lat="43.60514" lon="1.47921">
        <ele>146</ele>
        <time>2021-08-19T09:25:31Z</time>
      </trkpt>
      <trkpt lat="43.6052" lon="1.47956">
        <ele>145.6</ele>
        <time>2021-08-19T09:25:36Z</time>
      </trkpt>
      <trkpt lat="43.60526" lon="1.47981">
        <ele>144.4</ele>
        <time>2021-08-19T09:25:41Z</time>
      </trkpt>
      <trkpt lat="43.60532" lon="1.4801">
        <ele>144.7</ele>
        <time>2021-08-19T09:25:46Z</time>
      </trkpt>
      <trkpt lat="43.60547" lon="1.48045">
        <ele>142.7</ele>
        <time>2021-08-19T09:25:51Z</time>
      </trkpt>
      <trkpt lat="43.60561" lon="1.48082">
        <ele>142.8</ele>
        <time>2021-08-19T09:25:56Z</time>
      </trkpt>
      <trkpt lat="43.60576" lon="1.48118">
        <ele>143</ele>
        <time>2021-08-19T09:26:01Z</time>
      </trkpt>
      <trkpt lat="43.60589" lon="1.48153">
        <ele>141</ele>
        <time>2021-08-19T09:26:06Z</time>
      </trkpt>
      <trkpt lat="43.60603" lon="1.48189">
        <ele>141.9</ele>
        <time>2021-08-19T09:26:11Z</time>
      </trkpt>
      <trkpt lat="43.60617" lon="1.48223">
        <ele>141.3</ele>
        <time>2021-08-19T09:26:16Z</time>
      </trkpt>
      <trkpt lat="43.60631" lon="1.48263">
        <ele>140.8</ele>
        <time>2021-08-19T09:26:21Z</time>
      </trkpt>
      <trkpt lat="43.60646" lon="1.48302">
        <ele>140.9</ele>
        <time>2021-08-19T09:26:26Z</time>
      </trkpt>
      <trkpt lat="43.60662" lon="1.48342">
        <ele>140.4</ele>
        <time>2021-08-19T09:26:31Z</time>
      </trkpt>
      <trkpt lat="43.60676" lon="1.48378">
        <ele>139.8</ele>
        <time>2021-08-19T09:26:36Z</time>
      </trkpt>
      <trkpt lat="43.60681" lon="1.48393">
        <ele>139.2</ele>
        <time>2021-08-19T09:26:41Z</time>
      </trkpt>
      <trkpt lat="43.60681" lon="1.48392">
        <ele>139.2</ele>
        <time>2021-08-19T09:26:46Z</time>
      </trkpt>
      <trkpt lat="43.60681" lon="1.48392">
        <ele>139.2</ele>
        <time>2021-08-19T09:26:51Z</time>
      </trkpt>
      <trkpt lat="43.60681" lon="1.48392">
        <ele>139.2</ele>
        <time>2021-08-19T09:26:56Z</time>
      </trkpt>
      <trkpt lat="43.60681" lon="1.48392">
        <ele>139.2</ele>
        <time>2021-08-19T09:27:01Z</time>
      </trkpt>
      <trkpt lat="43.60681" lon="1.48392">
        <ele>139.2</ele>
        <time>2021-08-19T09:27:06Z</time>
      </trkpt>
      <trkpt lat="43.60681" lon="1.48392">
        <ele>139.2</ele>
        <time>2021-08-19T09:27:11Z</time>
      </trkpt>
      <trkpt lat="43.60681" lon="1.48392">
        <ele>139.2</ele>
        <time>2021-08-19T09:27:16Z</time>
      </trkpt>
      <trkpt lat="43.60681" lon="1.48392">
        <ele>139.2</ele>
        <time>2021-08-19T09:27:21Z</time>
      </trkpt>
      <trkpt lat="43.60681" lon="1.48392">
        <ele>139.2</ele>
        <time>2021-08-19T09:27:26Z</time>
      </trkpt>
      <trkpt lat="43.60681" lon="1.48392">
        <ele>139.2</ele>
        <time>2021-08-19T09:27:31Z</time>
      </trkpt>
      <trkpt lat="43.60683" lon="1.48398">
        <ele>139.9</ele>
        <time>2021-08-19T09:27:36Z</time>
      </trkpt>
      <trkpt lat="43.60692" lon="1.48422">
        <ele>140.1</ele>
        <time>2021-08-19T09:27:41Z</time>
      </trkpt>
      <trkpt lat="43.60703" lon="1.48455">
        <ele>139.5</ele>
        <time>2021-08-19T09:27:46Z</time>
      </trkpt>
      <trkpt lat="43.60718" lon="1.48487">
        <ele>139.6</ele>
        <time>2021-08-19T09:27:51Z</time>
      </trkpt>
      <trkpt lat="43.6073" lon="1.48523">
        <ele>139.1</ele>
        <time>2021-08-19T09:27:56Z</time>
      </trkpt>
      <trkpt lat="43.60743" lon="1.4856">
        <ele>137.9</ele>
        <time>2021-08-19T09:28:01Z</time>
      </trkpt>
      <trkpt lat="43.60757" lon="1.48597">
        <ele>138.1</ele>
        <time>2021-08-19T09:28:06Z</time>
      </trkpt>
      <trkpt lat="43.60769" lon="1.48631">
        <ele>138.9</ele>
        <time>2021-08-19T09:28:11Z</time>
      </trkpt>
      <trkpt lat="43.6078" lon="1.48665">
        <ele>138.4</ele>
        <time>2021-08-19T09:28:16Z</time>
      </trkpt>
      <trkpt lat="43.60791" lon="1.48698">
        <ele>138.6</ele>
        <time>2021-08-19T09:28:21Z</time>
      </trkpt>
      <trkpt lat="43.60803" lon="1.48732">
        <ele>138.8</ele>
        <time>2021-08-19T09:28:26Z</time>
      </trkpt>
      <trkpt lat="43.60807" lon="1.48769">
        <ele>138.5</ele>
        <time>2021-08-19T09:28:31Z</time>
      </trkpt>
      <trkpt lat="43.60824" lon="1.48801">
        <ele>137.8</ele>
        <time>2021-08-19T09:28:36Z</time>
      </trkpt>
      <trkpt lat="43.60843" lon="1.48831">
        <ele>137.8</ele>
        <time>2021-08-19T09:28:41Z</time>
      </trkpt>
      <trkpt lat="43.60858" lon="1.48866">
        <ele>137.9</ele>
        <time>2021-08-19T09:28:46Z</time>
      </trkpt>
      <trkpt lat="43.60873" lon="1.48901">
        <ele>138.7</ele>
        <time>2021-08-19T09:28:51Z</time>
      </trkpt>
      <trkpt lat="43.60888" lon="1.48934">
        <ele>138.8</ele>
        <time>2021-08-19T09:28:56Z</time>
      </trkpt>
      <trkpt lat="43.60902" lon="1.48968">
        <ele>138.2</ele>
        <time>2021-08-19T09:29:01Z</time>
      </trkpt>
      <trkpt lat="43.60911" lon="1.49001">
        <ele>138.4</ele>
        <time>2021-08-19T09:29:06Z</time>
      </trkpt>
      <trkpt lat="43.60906" lon="1.49038">
        <ele>138.4</ele>
        <time>2021-08-19T09:29:11Z</time>
      </trkpt>
      <trkpt lat="43.60919" lon="1.49068">
        <ele>139.2</ele>
        <time>2021-08-19T09:29:16Z</time>
      </trkpt>
      <trkpt lat="43.60938" lon="1.49092">
        <ele>138.3</ele>
        <time>2021-08-19T09:29:21Z</time>
      </trkpt>
      <trkpt lat="43.60944" lon="1.4913">
        <ele>140.2</ele>
        <time>2021-08-19T09:29:26Z</time>
      </trkpt>
      <trkpt lat="43.60946" lon="1.49169">
        <ele>139.3</ele>
        <time>2021-08-19T09:29:31Z</time>
      </trkpt>
      <trkpt lat="43.60949" lon="1.49209">
        <ele>139.1</ele>
        <time>2021-08-19T09:29:36Z</time>
      </trkpt>
      <trkpt lat="43.60949" lon="1.49249">
        <ele>139.7</ele>
        <time>2021-08-19T09:29:41Z</time>
      </trkpt>
      <trkpt lat="43.60952" lon="1.49288">
        <ele>139.5</ele>
        <time>2021-08-19T09:29:46Z</time>
      </trkpt>
      <trkpt lat="43.60957" lon="1.49323">
        <ele>140.6</ele>
        <time>2021-08-19T09:29:51Z</time>
      </trkpt>
      <trkpt lat="43.60961" lon="1.49358">
        <ele>140.3</ele>
        <time>2021-08-19T09:29:56Z</time>
      </trkpt>
      <trkpt lat="43.60963" lon="1.4939">
        <ele>141.4</ele>
        <time>2021-08-19T09:30:01Z</time>
      </trkpt>
      <trkpt lat="43.60964" lon="1.49404">
        <ele>141.6</ele>
        <time>2021-08-19T09:30:06Z</time>
      </trkpt>
      <trkpt lat="43.60966" lon="1.49424">
        <ele>142.5</ele>
        <time>2021-08-19T09:30:11Z</time>
      </trkpt>
      <trkpt lat="43.60968" lon="1.49454">
        <ele>142.2</ele>
        <time>2021-08-19T09:30:16Z</time>
      </trkpt>
      <trkpt lat="43.60972" lon="1.49482">
        <ele>142.5</ele>
        <time>2021-08-19T09:30:21Z</time>
      </trkpt>
      <trkpt lat="43.60974" lon="1.49509">
        <ele>142.9</ele>
        <time>2021-08-19T09:30:26Z</time>
      </trkpt>
      <trkpt lat="43.60975" lon="1.49537">
        <ele>143.3</ele>
        <time>2021-08-19T09:30:31Z</time>
      </trkpt>
      <trkpt lat="43.60977" lon="1.4956">
        <ele>143.5</ele>
        <time>2021-08-19T09:30:36Z</time>
      </trkpt>
      <trkpt lat="43.60978" lon="1.49583">
        <ele>143.9</ele>
        <time>2021-08-19T09:30:41Z</time>
      </trkpt>
      <trkpt lat="43.6098" lon="1.49605">
        <ele>144.8</ele>
        <time>2021-08-19T09:30:46Z</time>
      </trkpt>
      <trkpt lat="43.60981" lon="1.49627">
        <ele>145.8</ele>
        <time>2021-08-19T09:30:51Z</time>
      </trkpt>
      <trkpt lat="43.60984" lon="1.49648">
        <ele>146.1</ele>
        <time>2021-08-19T09:30:56Z</time>
      </trkpt>
      <trkpt lat="43.60985" lon="1.49668">
        <ele>147.1</ele>
        <time>2021-08-19T09:31:01Z</time>
      </trkpt>
      <trkpt lat="43.60986" lon="1.49684">
        <ele>148.7</ele>
        <time>2021-08-19T09:31:06Z</time>
      </trkpt>
      <trkpt lat="43.60987" lon="1.49702">
        <ele>149.6</ele>
        <time>2021-08-19T09:31:11Z</time>
      </trkpt>
      <trkpt lat="43.60989" lon="1.49718">
        <ele>150.5</ele>
        <time>2021-08-19T09:31:16Z</time>
      </trkpt>
      <trkpt lat="43.60988" lon="1.49734">
        <ele>151.5</ele>
        <time>2021-08-19T09:31:21Z</time>
      </trkpt>
      <trkpt lat="43.60984" lon="1.49751">
        <ele>152.6</ele>
        <time>2021-08-19T09:31:26Z</time>
      </trkpt>
      <trkpt lat="43.60986" lon="1.49768">
        <ele>153.5</ele>
        <time>2021-08-19T09:31:31Z</time>
      </trkpt>
      <trkpt lat="43.60987" lon="1.49786">
        <ele>153.7</ele>
        <time>2021-08-19T09:31:36Z</time>
      </trkpt>
      <trkpt lat="43.60987" lon="1.49803">
        <ele>154</ele>
        <time>2021-08-19T09:31:41Z</time>
      </trkpt>
      <trkpt lat="43.60987" lon="1.4982">
        <ele>154.9</ele>
        <time>2021-08-19T09:31:46Z</time>
      </trkpt>
      <trkpt lat="43.60986" lon="1.49839">
        <ele>155.9</ele>
        <time>2021-08-19T09:31:51Z</time>
      </trkpt>
      <trkpt lat="43.60986" lon="1.49856">
        <ele>156.2</ele>
        <time>2021-08-19T09:31:56Z</time>
      </trkpt>
      <trkpt lat="43.60986" lon="1.49875">
        <ele>156.5</ele>
        <time>2021-08-19T09:32:01Z</time>
      </trkpt>
      <trkpt lat="43.60986" lon="1.49895">
        <ele>157.5</ele>
        <time>2021-08-19T09:32:06Z</time>
      </trkpt>
      <trkpt lat="43.60986" lon="1.49915">
        <ele>157.8</ele>
        <time>2021-08-19T09:32:11Z</time>
      </trkpt>
      <trkpt lat="43.60986" lon="1.49934">
        <ele>157.4</ele>
        <time>2021-08-19T09:32:16Z</time>
      </trkpt>
      <trkpt lat="43.60985" lon="1.49958">
        <ele>157.8</ele>
        <time>2021-08-19T09:32:21Z</time>
      </trkpt>
      <trkpt lat="43.60982" lon="1.49983">
        <ele>158.2</ele>
        <time>2021-08-19T09:32:26Z</time>
      </trkpt>
      <trkpt lat="43.60982" lon="1.50007">
        <ele>158.6</ele>
        <time>2021-08-19T09:32:31Z</time>
      </trkpt>
      <trkpt lat="43.60981" lon="1.50031">
        <ele>159.7</ele>
        <time>2021-08-19T09:32:36Z</time>
      </trkpt>
      <trkpt lat="43.6098" lon="1.50054">
        <ele>160</ele>
        <time>2021-08-19T09:32:41Z</time>
      </trkpt>
      <trkpt lat="43.6098" lon="1.50077">
        <ele>160.4</ele>
        <time>2021-08-19T09:32:46Z</time>
      </trkpt>
      <trkpt lat="43.6098" lon="1.501">
        <ele>161.4</ele>
        <time>2021-08-19T09:32:51Z</time>
      </trkpt>
      <trkpt lat="43.60981" lon="1.50124">
        <ele>162.5</ele>
        <time>2021-08-19T09:32:56Z</time>
      </trkpt>
      <trkpt lat="43.60981" lon="1.50146">
        <ele>162.1</ele>
        <time>2021-08-19T09:33:01Z</time>
      </trkpt>
      <trkpt lat="43.60982" lon="1.5017">
        <ele>162.4</ele>
        <time>2021-08-19T09:33:06Z</time>
      </trkpt>
      <trkpt lat="43.60981" lon="1.50193">
        <ele>162.1</ele>
        <time>2021-08-19T09:33:11Z</time>
      </trkpt>
      <trkpt lat="43.60982" lon="1.50218">
        <ele>162.4</ele>
        <time>2021-08-19T09:33:16Z</time>
      </trkpt>
      <trkpt lat="43.60982" lon="1.50241">
        <ele>162.8</ele>
        <time>2021-08-19T09:33:21Z</time>
      </trkpt>
      <trkpt lat="43.60981" lon="1.50266">
        <ele>163.2</ele>
        <time>2021-08-19T09:33:26Z</time>
      </trkpt>
      <trkpt lat="43.60976" lon="1.50288">
        <ele>163.7</ele>
        <time>2021-08-19T09:33:31Z</time>
      </trkpt>
      <trkpt lat="43.60976" lon="1.50312">
        <ele>164.7</ele>
        <time>2021-08-19T09:33:36Z</time>
      </trkpt>
      <trkpt lat="43.60983" lon="1.50342">
        <ele>164.3</ele>
        <time>2021-08-19T09:33:41Z</time>
      </trkpt>
      <trkpt lat="43.60981" lon="1.50374">
        <ele>165.5</ele>
        <time>2021-08-19T09:33:46Z</time>
      </trkpt>
      <trkpt lat="43.60976" lon="1.50409">
        <ele>166.2</ele>
        <time>2021-08-19T09:33:51Z</time>
      </trkpt>
      <trkpt lat="43.60969" lon="1.50441">
        <ele>167.5</ele>
        <time>2021-08-19T09:33:56Z</time>
      </trkpt>
      <trkpt lat="43.6096" lon="1.50469">
        <ele>168.9</ele>
        <time>2021-08-19T09:34:01Z</time>
      </trkpt>
      <trkpt lat="43.60954" lon="1.50493">
        <ele>170.1</ele>
        <time>2021-08-19T09:34:06Z</time>
      </trkpt>
      <trkpt lat="43.60951" lon="1.50517">
        <ele>169.9</ele>
        <time>2021-08-19T09:34:11Z</time>
      </trkpt>
      <trkpt lat="43.60946" lon="1.50541">
        <ele>171.1</ele>
        <time>2021-08-19T09:34:16Z</time>
      </trkpt>
      <trkpt lat="43.60943" lon="1.50565">
        <ele>170.8</ele>
        <time>2021-08-19T09:34:21Z</time>
      </trkpt>
      <trkpt lat="43.60938" lon="1.50588">
        <ele>170.6</ele>
        <time>2021-08-19T09:34:26Z</time>
      </trkpt>
      <trkpt lat="43.60934" lon="1.50613">
        <ele>171.1</ele>
        <time>2021-08-19T09:34:31Z</time>
      </trkpt>
      <trkpt lat="43.60928" lon="1.50635">
        <ele>171.6</ele>
        <time>2021-08-19T09:34:36Z</time>
      </trkpt>
      <trkpt lat="43.60923" lon="1.50659">
        <ele>172.1</ele>
        <time>2021-08-19T09:34:41Z</time>
      </trkpt>
      <trkpt lat="43.60915" lon="1.50679">
        <ele>171.2</ele>
        <time>2021-08-19T09:34:46Z</time>
      </trkpt>
      <trkpt lat="43.60908" lon="1.50702">
        <ele>173.1</ele>
        <time>2021-08-19T09:34:51Z</time>
      </trkpt>
      <trkpt lat="43.60904" lon="1.50726">
        <ele>173.6</ele>
        <time>2021-08-19T09:34:56Z</time>
      </trkpt>
      <trkpt lat="43.60899" lon="1.50748">
        <ele>174.1</ele>
        <time>2021-08-19T09:35:01Z</time>
      </trkpt>
      <trkpt lat="43.60893" lon="1.50773">
        <ele>174.6</ele>
        <time>2021-08-19T09:35:06Z</time>
      </trkpt>
      <trkpt lat="43.60888" lon="1.50799">
        <ele>173.7</ele>
        <time>2021-08-19T09:35:11Z</time>
      </trkpt>
      <trkpt lat="43.60883" lon="1.50829">
        <ele>173.6</ele>
        <time>2021-08-19T09:35:16Z</time>
      </trkpt>
      <trkpt lat="43.60877" lon="1.50862">
        <ele>172.8</ele>
        <time>2021-08-19T09:35:21Z</time>
      </trkpt>
      <trkpt lat="43.60873" lon="1.50899">
        <ele>173.5</ele>
        <time>2021-08-19T09:35:26Z</time>
      </trkpt>
      <trkpt lat="43.60867" lon="1.5094">
        <ele>172.8</ele>
        <time>2021-08-19T09:35:31Z</time>
      </trkpt>
      <trkpt lat="43.60863" lon="1.50983">
        <ele>172.2</ele>
        <time>2021-08-19T09:35:36Z</time>
      </trkpt>
      <trkpt lat="43.60858" lon="1.51021">
        <ele>172.2</ele>
        <time>2021-08-19T09:35:41Z</time>
      </trkpt>
      <trkpt lat="43.60854" lon="1.51057">
        <ele>173.5</ele>
        <time>2021-08-19T09:35:46Z</time>
      </trkpt>
      <trkpt lat="43.60851" lon="1.5109">
        <ele>174.9</ele>
        <time>2021-08-19T09:35:51Z</time>
      </trkpt>
      <trkpt lat="43.60848" lon="1.51121">
        <ele>175.4</ele>
        <time>2021-08-19T09:35:56Z</time>
      </trkpt>
      <trkpt lat="43.60844" lon="1.51151">
        <ele>176</ele>
        <time>2021-08-19T09:36:01Z</time>
      </trkpt>
      <trkpt lat="43.60841" lon="1.51178">
        <ele>177.1</ele>
        <time>2021-08-19T09:36:06Z</time>
      </trkpt>
      <trkpt lat="43.60838" lon="1.51204">
        <ele>176.9</ele>
        <time>2021-08-19T09:36:11Z</time>
      </trkpt>
      <trkpt lat="43.60836" lon="1.51231">
        <ele>177.4</ele>
        <time>2021-08-19T09:36:16Z</time>
      </trkpt>
      <trkpt lat="43.60835" lon="1.51258">
        <ele>177.1</ele>
        <time>2021-08-19T09:36:21Z</time>
      </trkpt>
      <trkpt lat="43.60835" lon="1.51287">
        <ele>177.5</ele>
        <time>2021-08-19T09:36:26Z</time>
      </trkpt>
      <trkpt lat="43.60834" lon="1.51315">
        <ele>178</ele>
        <time>2021-08-19T09:36:31Z</time>
      </trkpt>
      <trkpt lat="43.60837" lon="1.51342">
        <ele>177.6</ele>
        <time>2021-08-19T09:36:36Z</time>
      </trkpt>
      <trkpt lat="43.60841" lon="1.51364">
        <ele>177.8</ele>
        <time>2021-08-19T09:36:41Z</time>
      </trkpt>
      <trkpt lat="43.60843" lon="1.51386">
        <ele>178.1</ele>
        <time>2021-08-19T09:36:46Z</time>
      </trkpt>
      <trkpt lat="43.60845" lon="1.51407">
        <ele>178.4</ele>
        <time>2021-08-19T09:36:51Z</time>
      </trkpt>
      <trkpt lat="43.60846" lon="1.51427">
        <ele>179.4</ele>
        <time>2021-08-19T09:36:56Z</time>
      </trkpt>
      <trkpt lat="43.60848" lon="1.51446">
        <ele>179.6</ele>
        <time>2021-08-19T09:37:01Z</time>
      </trkpt>
      <trkpt lat="43.60851" lon="1.51463">
        <ele>180.5</ele>
        <time>2021-08-19T09:37:06Z</time>
      </trkpt>
      <trkpt lat="43.60853" lon="1.51484">
        <ele>180.7</ele>
        <time>2021-08-19T09:37:11Z</time>
      </trkpt>
      <trkpt lat="43.60854" lon="1.51503">
        <ele>181.7</ele>
        <time>2021-08-19T09:37:16Z</time>
      </trkpt>
      <trkpt lat="43.60853" lon="1.51524">
        <ele>182.8</ele>
        <time>2021-08-19T09:37:21Z</time>
      </trkpt>
      <trkpt lat="43.60846" lon="1.5154">
        <ele>183.9</ele>
        <time>2021-08-19T09:37:26Z</time>
      </trkpt>
      <trkpt lat="43.60842" lon="1.51557">
        <ele>184.3</ele>
        <time>2021-08-19T09:37:31Z</time>
      </trkpt>
      <trkpt lat="43.60848" lon="1.51573">
        <ele>185.8</ele>
        <time>2021-08-19T09:37:36Z</time>
      </trkpt>
      <trkpt lat="43.60853" lon="1.51587">
        <ele>186.5</ele>
        <time>2021-08-19T09:37:41Z</time>
      </trkpt>
      <trkpt lat="43.60862" lon="1.51602">
        <ele>186.5</ele>
        <time>2021-08-19T09:37:46Z</time>
      </trkpt>
      <trkpt lat="43.60871" lon="1.51615">
        <ele>187.9</ele>
        <time>2021-08-19T09:37:51Z</time>
      </trkpt>
      <trkpt lat="43.60878" lon="1.51629">
        <ele>187.9</ele>
        <time>2021-08-19T09:37:56Z</time>
      </trkpt>
      <trkpt lat="43.60885" lon="1.51644">
        <ele>188.6</ele>
        <time>2021-08-19T09:38:01Z</time>
      </trkpt>
      <trkpt lat="43.60893" lon="1.51659">
        <ele>189.4</ele>
        <time>2021-08-19T09:38:06Z</time>
      </trkpt>
      <trkpt lat="43.60901" lon="1.51672">
        <ele>190.1</ele>
        <time>2021-08-19T09:38:11Z</time>
      </trkpt>
      <trkpt lat="43.60909" lon="1.51686">
        <ele>190.1</ele>
        <time>2021-08-19T09:38:16Z</time>
      </trkpt>
      <trkpt lat="43.60915" lon="1.517">
        <ele>190.8</ele>
        <time>2021-08-19T09:38:21Z</time>
      </trkpt>
      <trkpt lat="43.60922" lon="1.51713">
        <ele>190.8</ele>
        <time>2021-08-19T09:38:26Z</time>
      </trkpt>
      <trkpt lat="43.60928" lon="1.51725">
        <ele>192.2</ele>
        <time>2021-08-19T09:38:31Z</time>
      </trkpt>
      <trkpt lat="43.60935" lon="1.5174">
        <ele>192.3</ele>
        <time>2021-08-19T09:38:36Z</time>
      </trkpt>
      <trkpt lat="43.60943" lon="1.51754">
        <ele>193.7</ele>
        <time>2021-08-19T09:38:41Z</time>
      </trkpt>
      <trkpt lat="43.6095" lon="1.51769">
        <ele>194.4</ele>
        <time>2021-08-19T09:38:46Z</time>
      </trkpt>
      <trkpt lat="43.60958" lon="1.51784">
        <ele>195.2</ele>
        <time>2021-08-19T09:38:51Z</time>
      </trkpt>
      <trkpt lat="43.60965" lon="1.51798">
        <ele>196.6</ele>
        <time>2021-08-19T09:38:56Z</time>
      </trkpt>
      <trkpt lat="43.60973" lon="1.51812">
        <ele>196.6</ele>
        <time>2021-08-19T09:39:01Z</time>
      </trkpt>
      <trkpt lat="43.60979" lon="1.51825">
        <ele>198</ele>
        <time>2021-08-19T09:39:06Z</time>
      </trkpt>
      <trkpt lat="43.60985" lon="1.51838">
        <ele>198.1</ele>
        <time>2021-08-19T09:39:11Z</time>
      </trkpt>
      <trkpt lat="43.60992" lon="1.5185">
        <ele>198.8</ele>
        <time>2021-08-19T09:39:16Z</time>
      </trkpt>
      <trkpt lat="43.60997" lon="1.51863">
        <ele>199.5</ele>
        <time>2021-08-19T09:39:21Z</time>
      </trkpt>
      <trkpt lat="43.61002" lon="1.51877">
        <ele>199.6</ele>
        <time>2021-08-19T09:39:26Z</time>
      </trkpt>
      <trkpt lat="43.61006" lon="1.5189">
        <ele>201.1</ele>
        <time>2021-08-19T09:39:31Z</time>
      </trkpt>
      <trkpt lat="43.6101" lon="1.51904">
        <ele>201.9</ele>
        <time>2021-08-19T09:39:36Z</time>
      </trkpt>
      <trkpt lat="43.61013" lon="1.51919">
        <ele>203.5</ele>
        <time>2021-08-19T09:39:41Z</time>
      </trkpt>
      <trkpt lat="43.61015" lon="1.51934">
        <ele>203.6</ele>
        <time>2021-08-19T09:39:46Z</time>
      </trkpt>
      <trkpt lat="43.61017" lon="1.51948">
        <ele>205.2</ele>
        <time>2021-08-19T09:39:51Z</time>
      </trkpt>
      <trkpt lat="43.61019" lon="1.51962">
        <ele>205.4</ele>
        <time>2021-08-19T09:39:56Z</time>
      </trkpt>
      <trkpt lat="43.61018" lon="1.51976">
        <ele>205.6</ele>
        <time>2021-08-19T09:40:01Z</time>
      </trkpt>
      <trkpt lat="43.61019" lon="1.51992">
        <ele>206.6</ele>
        <time>2021-08-19T09:40:06Z</time>
      </trkpt>
      <trkpt lat="43.61018" lon="1.52007">
        <ele>207.5</ele>
        <time>2021-08-19T09:40:11Z</time>
      </trkpt>
      <trkpt lat="43.61017" lon="1.52022">
        <ele>207</ele>
        <time>2021-08-19T09:40:16Z</time>
      </trkpt>
      <trkpt lat="43.61016" lon="1.5204">
        <ele>207.4</ele>
        <time>2021-08-19T09:40:21Z</time>
      </trkpt>
      <trkpt lat="43.61013" lon="1.52061">
        <ele>208.5</ele>
        <time>2021-08-19T09:40:26Z</time>
      </trkpt>
      <trkpt lat="43.61011" lon="1.52081">
        <ele>208.1</ele>
        <time>2021-08-19T09:40:31Z</time>
      </trkpt>
      <trkpt lat="43.6101" lon="1.52101">
        <ele>208.4</ele>
        <time>2021-08-19T09:40:36Z</time>
      </trkpt>
      <trkpt lat="43.61009" lon="1.52121">
        <ele>208.8</ele>
        <time>2021-08-19T09:40:41Z</time>
      </trkpt>
      <trkpt lat="43.61007" lon="1.52141">
        <ele>208.4</ele>
        <time>2021-08-19T09:40:46Z</time>
      </trkpt>
      <trkpt lat="43.61007" lon="1.52162">
        <ele>208.7</ele>
        <time>2021-08-19T09:40:51Z</time>
      </trkpt>
      <trkpt lat="43.61007" lon="1.52184">
        <ele>209.1</ele>
        <time>2021-08-19T09:40:56Z</time>
      </trkpt>
      <trkpt lat="43.61009" lon="1.52207">
        <ele>209.4</ele>
        <time>2021-08-19T09:41:01Z</time>
      </trkpt>
      <trkpt lat="43.61012" lon="1.52232">
        <ele>209.7</ele>
        <time>2021-08-19T09:41:06Z</time>
      </trkpt>
      <trkpt lat="43.61018" lon="1.52256">
        <ele>209.9</ele>
        <time>2021-08-19T09:41:11Z</time>
      </trkpt>
      <trkpt lat="43.61025" lon="1.52278">
        <ele>210</ele>
        <time>2021-08-19T09:41:16Z</time>
      </trkpt>
      <trkpt lat="43.61032" lon="1.523">
        <ele>210.2</ele>
        <time>2021-08-19T09:41:21Z</time>
      </trkpt>
      <trkpt lat="43.61041" lon="1.52319">
        <ele>210.9</ele>
        <time>2021-08-19T09:41:26Z</time>
      </trkpt>
      <trkpt lat="43.6105" lon="1.52339">
        <ele>211</ele>
        <time>2021-08-19T09:41:31Z</time>
      </trkpt>
      <trkpt lat="43.6106" lon="1.52357">
        <ele>211</ele>
        <time>2021-08-19T09:41:36Z</time>
      </trkpt>
      <trkpt lat="43.61069" lon="1.52375">
        <ele>211.7</ele>
        <time>2021-08-19T09:41:41Z</time>
      </trkpt>
      <trkpt lat="43.61078" lon="1.52393">
        <ele>211.7</ele>
        <time>2021-08-19T09:41:46Z</time>
      </trkpt>
      <trkpt lat="43.61087" lon="1.5241">
        <ele>212.5</ele>
        <time>2021-08-19T09:41:51Z</time>
      </trkpt>
      <trkpt lat="43.61096" lon="1.52426">
        <ele>212.5</ele>
        <time>2021-08-19T09:41:56Z</time>
      </trkpt>
      <trkpt lat="43.61104" lon="1.52444">
        <ele>213.2</ele>
        <time>2021-08-19T09:42:01Z</time>
      </trkpt>
      <trkpt lat="43.61112" lon="1.52459">
        <ele>213.9</ele>
        <time>2021-08-19T09:42:06Z</time>
      </trkpt>
      <trkpt lat="43.61121" lon="1.52475">
        <ele>213.9</ele>
        <time>2021-08-19T09:42:11Z</time>
      </trkpt>
      <trkpt lat="43.61129" lon="1.52492">
        <ele>214</ele>
        <time>2021-08-19T09:42:16Z</time>
      </trkpt>
      <trkpt lat="43.61138" lon="1.52509">
        <ele>214</ele>
        <time>2021-08-19T09:42:21Z</time>
      </trkpt>
      <trkpt lat="43.61147" lon="1.52528">
        <ele>214.7</ele>
        <time>2021-08-19T09:42:26Z</time>
      </trkpt>
      <trkpt lat="43.61157" lon="1.52547">
        <ele>214.8</ele>
        <time>2021-08-19T09:42:31Z</time>
      </trkpt>
      <trkpt lat="43.61168" lon="1.52566">
        <ele>215.5</ele>
        <time>2021-08-19T09:42:36Z</time>
      </trkpt>
      <trkpt lat="43.61176" lon="1.52585">
        <ele>215.5</ele>
        <time>2021-08-19T09:42:41Z</time>
      </trkpt>
      <trkpt lat="43.61183" lon="1.52597">
        <ele>215.5</ele>
        <time>2021-08-19T09:42:46Z</time>
      </trkpt>
      <trkpt lat="43.61188" lon="1.52613">
        <ele>216.3</ele>
        <time>2021-08-19T09:42:51Z</time>
      </trkpt>
      <trkpt lat="43.61187" lon="1.52634">
        <ele>216.7</ele>
        <time>2021-08-19T09:42:56Z</time>
      </trkpt>
      <trkpt lat="43.61193" lon="1.52653">
        <ele>216.1</ele>
        <time>2021-08-19T09:43:01Z</time>
      </trkpt>
      <trkpt lat="43.61198" lon="1.52674">
        <ele>216.3</ele>
        <time>2021-08-19T09:43:06Z</time>
      </trkpt>
      <trkpt lat="43.61197" lon="1.52702">
        <ele>216</ele>
        <time>2021-08-19T09:43:11Z</time>
      </trkpt>
      <trkpt lat="43.61196" lon="1.52732">
        <ele>215.8</ele>
        <time>2021-08-19T09:43:16Z</time>
      </trkpt>
      <trkpt lat="43.61192" lon="1.52765">
        <ele>215.7</ele>
        <time>2021-08-19T09:43:21Z</time>
      </trkpt>
      <trkpt lat="43.61187" lon="1.52797">
        <ele>216.3</ele>
        <time>2021-08-19T09:43:26Z</time>
      </trkpt>
      <trkpt lat="43.6118" lon="1.52826">
        <ele>216.3</ele>
        <time>2021-08-19T09:43:31Z</time>
      </trkpt>
      <trkpt lat="43.61169" lon="1.52854">
        <ele>217</ele>
        <time>2021-08-19T09:43:36Z</time>
      </trkpt>
      <trkpt lat="43.61157" lon="1.5288">
        <ele>218.4</ele>
        <time>2021-08-19T09:43:41Z</time>
      </trkpt>
      <trkpt lat="43.61145" lon="1.52906">
        <ele>218.4</ele>
        <time>2021-08-19T09:43:46Z</time>
      </trkpt>
      <trkpt lat="43.61134" lon="1.5293">
        <ele>219.8</ele>
        <time>2021-08-19T09:43:51Z</time>
      </trkpt>
      <trkpt lat="43.61126" lon="1.52955">
        <ele>219.7</ele>
        <time>2021-08-19T09:43:56Z</time>
      </trkpt>
      <trkpt lat="43.61119" lon="1.52981">
        <ele>220.3</ele>
        <time>2021-08-19T09:44:01Z</time>
      </trkpt>
      <trkpt lat="43.61115" lon="1.53007">
        <ele>220.1</ele>
        <time>2021-08-19T09:44:06Z</time>
      </trkpt>
      <trkpt lat="43.61114" lon="1.53034">
        <ele>220.5</ele>
        <time>2021-08-19T09:44:11Z</time>
      </trkpt>
      <trkpt lat="43.61115" lon="1.5306">
        <ele>221.6</ele>
        <time>2021-08-19T09:44:16Z</time>
      </trkpt>
      <trkpt lat="43.61118" lon="1.53085">
        <ele>221.2</ele>
        <time>2021-08-19T09:44:21Z</time>
      </trkpt>
      <trkpt lat="43.61124" lon="1.53108">
        <ele>222.1</ele>
        <time>2021-08-19T09:44:26Z</time>
      </trkpt>
      <trkpt lat="43.61131" lon="1.53132">
        <ele>222.3</ele>
        <time>2021-08-19T09:44:31Z</time>
      </trkpt>
      <trkpt lat="43.61138" lon="1.53155">
        <ele>222.4</ele>
        <time>2021-08-19T09:44:36Z</time>
      </trkpt>
      <trkpt lat="43.61143" lon="1.53175">
        <ele>222.6</ele>
        <time>2021-08-19T09:44:41Z</time>
      </trkpt>
      <trkpt lat="43.61147" lon="1.5319">
        <ele>222.7</ele>
        <time>2021-08-19T09:44:46Z</time>
      </trkpt>
      <trkpt lat="43.61147" lon="1.53198">
        <ele>223.5</ele>
        <time>2021-08-19T09:44:51Z</time>
      </trkpt>
      <trkpt lat="43.61158" lon="1.53216">
        <ele>223.5</ele>
        <time>2021-08-19T09:44:56Z</time>
      </trkpt>
      <trkpt lat="43.6117" lon="1.53241">
        <ele>222.9</ele>
        <time>2021-08-19T09:45:01Z</time>
      </trkpt>
      <trkpt lat="43.61178" lon="1.5328">
        <ele>221.1</ele>
        <time>2021-08-19T09:45:06Z</time>
      </trkpt>
      <trkpt lat="43.61185" lon="1.53331">
        <ele>218.9</ele>
        <time>2021-08-19T09:45:11Z</time>
      </trkpt>
      <trkpt lat="43.61192" lon="1.53392">
        <ele>216.1</ele>
        <time>2021-08-19T09:45:16Z</time>
      </trkpt>
      <trkpt lat="43.61192" lon="1.5346">
        <ele>213.6</ele>
        <time>2021-08-19T09:45:21Z</time>
      </trkpt>
      <trkpt lat="43.61188" lon="1.53533">
        <ele>209.1</ele>
        <time>2021-08-19T09:45:26Z</time>
      </trkpt>
      <trkpt lat="43.61184" lon="1.53612">
        <ele>204.8</ele>
        <time>2021-08-19T09:45:31Z</time>
      </trkpt>
      <trkpt lat="43.6118" lon="1.53693">
        <ele>201.2</ele>
        <time>2021-08-19T09:45:36Z</time>
      </trkpt>
      <trkpt lat="43.61177" lon="1.53772">
        <ele>197.5</ele>
        <time>2021-08-19T09:45:41Z</time>
      </trkpt>
      <trkpt lat="43.61169" lon="1.53854">
        <ele>193.3</ele>
        <time>2021-08-19T09:45:46Z</time>
      </trkpt>
      <trkpt lat="43.61155" lon="1.53935">
        <ele>188.6</ele>
        <time>2021-08-19T09:45:51Z</time>
      </trkpt>
      <trkpt lat="43.61136" lon="1.54018">
        <ele>184</ele>
        <time>2021-08-19T09:45:56Z</time>
      </trkpt>
      <trkpt lat="43.61117" lon="1.54102">
        <ele>179.5</ele>
        <time>2021-08-19T09:46:01Z</time>
      </trkpt>
      <trkpt lat="43.61102" lon="1.54187">
        <ele>174.8</ele>
        <time>2021-08-19T09:46:06Z</time>
      </trkpt>
      <trkpt lat="43.61108" lon="1.54273">
        <ele>170.3</ele>
        <time>2021-08-19T09:46:11Z</time>
      </trkpt>
      <trkpt lat="43.61135" lon="1.5435">
        <ele>165.8</ele>
        <time>2021-08-19T09:46:16Z</time>
      </trkpt>
      <trkpt lat="43.61169" lon="1.5442">
        <ele>162.4</ele>
        <time>2021-08-19T09:46:21Z</time>
      </trkpt>
      <trkpt lat="43.61201" lon="1.54485">
        <ele>160.4</ele>
        <time>2021-08-19T09:46:26Z</time>
      </trkpt>
      <trkpt lat="43.61229" lon="1.54548">
        <ele>158.5</ele>
        <time>2021-08-19T09:46:31Z</time>
      </trkpt>
      <trkpt lat="43.61245" lon="1.54616">
        <ele>156.3</ele>
        <time>2021-08-19T09:46:36Z</time>
      </trkpt>
      <trkpt lat="43.6126" lon="1.54679">
        <ele>154.8</ele>
        <time>2021-08-19T09:46:41Z</time>
      </trkpt>
      <trkpt lat="43.61281" lon="1.5473">
        <ele>154.3</ele>
        <time>2021-08-19T09:46:46Z</time>
      </trkpt>
      <trkpt lat="43.61309" lon="1.54772">
        <ele>153.4</ele>
        <time>2021-08-19T09:46:51Z</time>
      </trkpt>
      <trkpt lat="43.61337" lon="1.54809">
        <ele>154</ele>
        <time>2021-08-19T09:46:56Z</time>
      </trkpt>
      <trkpt lat="43.61362" lon="1.54844">
        <ele>154.5</ele>
        <time>2021-08-19T09:47:01Z</time>
      </trkpt>
      <trkpt lat="43.61383" lon="1.54871">
        <ele>155.8</ele>
        <time>2021-08-19T09:47:06Z</time>
      </trkpt>
      <trkpt lat="43.61401" lon="1.54894">
        <ele>157.1</ele>
        <time>2021-08-19T09:47:11Z</time>
      </trkpt>
      <trkpt lat="43.61413" lon="1.54912">
        <ele>158.4</ele>
        <time>2021-08-19T09:47:16Z</time>
      </trkpt>
      <trkpt lat="43.61424" lon="1.54928">
        <ele>159.1</ele>
        <time>2021-08-19T09:47:21Z</time>
      </trkpt>
      <trkpt lat="43.61433" lon="1.54946">
        <ele>161.3</ele>
        <time>2021-08-19T09:47:26Z</time>
      </trkpt>
      <trkpt lat="43.61439" lon="1.54963">
        <ele>162.8</ele>
        <time>2021-08-19T09:47:31Z</time>
      </trkpt>
      <trkpt lat="43.61445" lon="1.54981">
        <ele>164.3</ele>
        <time>2021-08-19T09:47:36Z</time>
      </trkpt>
      <trkpt lat="43.61448" lon="1.54998">
        <ele>165.9</ele>
        <time>2021-08-19T09:47:41Z</time>
      </trkpt>
      <trkpt lat="43.61449" lon="1.55013">
        <ele>166.8</ele>
        <time>2021-08-19T09:47:46Z</time>
      </trkpt>
      <trkpt lat="43.61451" lon="1.55026">
        <ele>167.7</ele>
        <time>2021-08-19T09:47:51Z</time>
      </trkpt>
      <trkpt lat="43.6145" lon="1.5504">
        <ele>168.6</ele>
        <time>2021-08-19T09:47:56Z</time>
      </trkpt>
      <trkpt lat="43.61449" lon="1.55054">
        <ele>170.3</ele>
        <time>2021-08-19T09:48:01Z</time>
      </trkpt>
      <trkpt lat="43.61447" lon="1.55067">
        <ele>171.3</ele>
        <time>2021-08-19T09:48:06Z</time>
      </trkpt>
      <trkpt lat="43.61445" lon="1.55081">
        <ele>172.2</ele>
        <time>2021-08-19T09:48:14Z</time>
      </trkpt>
      <trkpt lat="43.61443" lon="1.55094">
        <ele>173.2</ele>
        <time>2021-08-19T09:48:19Z</time>
      </trkpt>
      <trkpt lat="43.61441" lon="1.55107">
        <ele>174.8</ele>
        <time>2021-08-19T09:48:24Z</time>
      </trkpt>
      <trkpt lat="43.61438" lon="1.55119">
        <ele>175.8</ele>
        <time>2021-08-19T09:48:29Z</time>
      </trkpt>
      <trkpt lat="43.61436" lon="1.5513">
        <ele>176.8</ele>
        <time>2021-08-19T09:48:34Z</time>
      </trkpt>
      <trkpt lat="43.61435" lon="1.55141">
        <ele>178.4</ele>
        <time>2021-08-19T09:48:39Z</time>
      </trkpt>
      <trkpt lat="43.61433" lon="1.55152">
        <ele>178.6</ele>
        <time>2021-08-19T09:48:44Z</time>
      </trkpt>
      <trkpt lat="43.61431" lon="1.55162">
        <ele>179.5</ele>
        <time>2021-08-19T09:48:49Z</time>
      </trkpt>
      <trkpt lat="43.61429" lon="1.55171">
        <ele>180.4</ele>
        <time>2021-08-19T09:48:54Z</time>
      </trkpt>
      <trkpt lat="43.61427" lon="1.5518">
        <ele>181.3</ele>
        <time>2021-08-19T09:48:59Z</time>
      </trkpt>
      <trkpt lat="43.61426" lon="1.5519">
        <ele>182.2</ele>
        <time>2021-08-19T09:49:04Z</time>
      </trkpt>
      <trkpt lat="43.61424" lon="1.55199">
        <ele>183.1</ele>
        <time>2021-08-19T09:49:09Z</time>
      </trkpt>
      <trkpt lat="43.61423" lon="1.55209">
        <ele>183.3</ele>
        <time>2021-08-19T09:49:14Z</time>
      </trkpt>
      <trkpt lat="43.61421" lon="1.55217">
        <ele>184.2</ele>
        <time>2021-08-19T09:49:19Z</time>
      </trkpt>
      <trkpt lat="43.61419" lon="1.55227">
        <ele>185.8</ele>
        <time>2021-08-19T09:49:24Z</time>
      </trkpt>
      <trkpt lat="43.61417" lon="1.55237">
        <ele>186.7</ele>
        <time>2021-08-19T09:49:29Z</time>
      </trkpt>
      <trkpt lat="43.61416" lon="1.55247">
        <ele>186.9</ele>
        <time>2021-08-19T09:49:34Z</time>
      </trkpt>
      <trkpt lat="43.61414" lon="1.55255">
        <ele>187.8</ele>
        <time>2021-08-19T09:49:39Z</time>
      </trkpt>
      <trkpt lat="43.61413" lon="1.55265">
        <ele>188</ele>
        <time>2021-08-19T09:49:44Z</time>
      </trkpt>
      <trkpt lat="43.61411" lon="1.55275">
        <ele>188.9</ele>
        <time>2021-08-19T09:49:49Z</time>
      </trkpt>
      <trkpt lat="43.61408" lon="1.55284">
        <ele>190.5</ele>
        <time>2021-08-19T09:49:54Z</time>
      </trkpt>
      <trkpt lat="43.61405" lon="1.55294">
        <ele>190.7</ele>
        <time>2021-08-19T09:49:59Z</time>
      </trkpt>
      <trkpt lat="43.61403" lon="1.55302">
        <ele>191.6</ele>
        <time>2021-08-19T09:50:04Z</time>
      </trkpt>
      <trkpt lat="43.61401" lon="1.55312">
        <ele>191.9</ele>
        <time>2021-08-19T09:50:09Z</time>
      </trkpt>
      <trkpt lat="43.61399" lon="1.55323">
        <ele>192.8</ele>
        <time>2021-08-19T09:50:14Z</time>
      </trkpt>
      <trkpt lat="43.61395" lon="1.55333">
        <ele>193.7</ele>
        <time>2021-08-19T09:50:19Z</time>
      </trkpt>
      <trkpt lat="43.61393" lon="1.55345">
        <ele>194.7</ele>
        <time>2021-08-19T09:50:24Z</time>
      </trkpt>
      <trkpt lat="43.61392" lon="1.55358">
        <ele>195.6</ele>
        <time>2021-08-19T09:50:29Z</time>
      </trkpt>
      <trkpt lat="43.61394" lon="1.55369">
        <ele>196.4</ele>
        <time>2021-08-19T09:50:34Z</time>
      </trkpt>
      <trkpt lat="43.61399" lon="1.55379">
        <ele>197.2</ele>
        <time>2021-08-19T09:50:39Z</time>
      </trkpt>
      <trkpt lat="43.61404" lon="1.55388">
        <ele>197.9</ele>
        <time>2021-08-19T09:50:44Z</time>
      </trkpt>
      <trkpt lat="43.61411" lon="1.55396">
        <ele>198.5</ele>
        <time>2021-08-19T09:50:49Z</time>
      </trkpt>
      <trkpt lat="43.61419" lon="1.55405">
        <ele>198.5</ele>
        <time>2021-08-19T09:50:54Z</time>
      </trkpt>
      <trkpt lat="43.61426" lon="1.55418">
        <ele>199.9</ele>
        <time>2021-08-19T09:50:59Z</time>
      </trkpt>
      <trkpt lat="43.61439" lon="1.55434">
        <ele>199.8</ele>
        <time>2021-08-19T09:51:04Z</time>
      </trkpt>
      <trkpt lat="43.6145" lon="1.55458">
        <ele>199.9</ele>
        <time>2021-08-19T09:51:09Z</time>
      </trkpt>
      <trkpt lat="43.61454" lon="1.55486">
        <ele>198.7</ele>
        <time>2021-08-19T09:51:14Z</time>
      </trkpt>
      <trkpt lat="43.61453" lon="1.55514">
        <ele>198.5</ele>
        <time>2021-08-19T09:51:19Z</time>
      </trkpt>
      <trkpt lat="43.61453" lon="1.55544">
        <ele>199</ele>
        <time>2021-08-19T09:51:24Z</time>
      </trkpt>
      <trkpt lat="43.61453" lon="1.55573">
        <ele>198.7</ele>
        <time>2021-08-19T09:51:29Z</time>
      </trkpt>
      <trkpt lat="43.61451" lon="1.55601">
        <ele>199.2</ele>
        <time>2021-08-19T09:51:34Z</time>
      </trkpt>
      <trkpt lat="43.61449" lon="1.55625">
        <ele>198.9</ele>
        <time>2021-08-19T09:51:39Z</time>
      </trkpt>
      <trkpt lat="43.61446" lon="1.55653">
        <ele>198.7</ele>
        <time>2021-08-19T09:51:44Z</time>
      </trkpt>
      <trkpt lat="43.6144" lon="1.55678">
        <ele>199.3</ele>
        <time>2021-08-19T09:51:49Z</time>
      </trkpt>
      <trkpt lat="43.61433" lon="1.55702">
        <ele>199.1</ele>
        <time>2021-08-19T09:51:54Z</time>
      </trkpt>
      <trkpt lat="43.61426" lon="1.55725">
        <ele>199.7</ele>
        <time>2021-08-19T09:51:59Z</time>
      </trkpt>
      <trkpt lat="43.6142" lon="1.55747">
        <ele>200.2</ele>
        <time>2021-08-19T09:52:04Z</time>
      </trkpt>
      <trkpt lat="43.61415" lon="1.55767">
        <ele>199.9</ele>
        <time>2021-08-19T09:52:09Z</time>
      </trkpt>
      <trkpt lat="43.61409" lon="1.55785">
        <ele>201.1</ele>
        <time>2021-08-19T09:52:14Z</time>
      </trkpt>
      <trkpt lat="43.61405" lon="1.55803">
        <ele>201.5</ele>
        <time>2021-08-19T09:52:19Z</time>
      </trkpt>
      <trkpt lat="43.61401" lon="1.55821">
        <ele>201.9</ele>
        <time>2021-08-19T09:52:24Z</time>
      </trkpt>
      <trkpt lat="43.61396" lon="1.55843">
        <ele>201.6</ele>
        <time>2021-08-19T09:52:29Z</time>
      </trkpt>
      <trkpt lat="43.61391" lon="1.55864">
        <ele>202.8</ele>
        <time>2021-08-19T09:52:34Z</time>
      </trkpt>
      <trkpt lat="43.61388" lon="1.55886">
        <ele>203.2</ele>
        <time>2021-08-19T09:52:39Z</time>
      </trkpt>
      <trkpt lat="43.61384" lon="1.55907">
        <ele>203.7</ele>
        <time>2021-08-19T09:52:44Z</time>
      </trkpt>
      <trkpt lat="43.61381" lon="1.55928">
        <ele>202.6</ele>
        <time>2021-08-19T09:52:49Z</time>
      </trkpt>
      <trkpt lat="43.61378" lon="1.55949">
        <ele>203.8</ele>
        <time>2021-08-19T09:52:54Z</time>
      </trkpt>
      <trkpt lat="43.61373" lon="1.5597">
        <ele>204.2</ele>
        <time>2021-08-19T09:52:59Z</time>
      </trkpt>
      <trkpt lat="43.61373" lon="1.55991">
        <ele>203.9</ele>
        <time>2021-08-19T09:53:04Z</time>
      </trkpt>
      <trkpt lat="43.61389" lon="1.56008">
        <ele>204.4</ele>
        <time>2021-08-19T09:53:09Z</time>
      </trkpt>
      <trkpt lat="43.614" lon="1.56032">
        <ele>204.5</ele>
        <time>2021-08-19T09:53:14Z</time>
      </trkpt>
      <trkpt lat="43.61412" lon="1.56057">
        <ele>204.5</ele>
        <time>2021-08-19T09:53:19Z</time>
      </trkpt>
      <trkpt lat="43.61426" lon="1.56087">
        <ele>205.3</ele>
        <time>2021-08-19T09:53:24Z</time>
      </trkpt>
      <trkpt lat="43.61439" lon="1.56117">
        <ele>206.1</ele>
        <time>2021-08-19T09:53:29Z</time>
      </trkpt>
      <trkpt lat="43.61452" lon="1.56142">
        <ele>206.9</ele>
        <time>2021-08-19T09:53:34Z</time>
      </trkpt>
      <trkpt lat="43.61465" lon="1.56166">
        <ele>206.9</ele>
        <time>2021-08-19T09:53:39Z</time>
      </trkpt>
      <trkpt lat="43.61474" lon="1.56192">
        <ele>207.8</ele>
        <time>2021-08-19T09:53:44Z</time>
      </trkpt>
      <trkpt lat="43.61473" lon="1.56221">
        <ele>207.5</ele>
        <time>2021-08-19T09:53:49Z</time>
      </trkpt>
      <trkpt lat="43.61469" lon="1.56249">
        <ele>207.4</ele>
        <time>2021-08-19T09:53:54Z</time>
      </trkpt>
      <trkpt lat="43.61465" lon="1.56271">
        <ele>207.1</ele>
        <time>2021-08-19T09:53:59Z</time>
      </trkpt>
      <trkpt lat="43.6146" lon="1.56296">
        <ele>207.6</ele>
        <time>2021-08-19T09:54:04Z</time>
      </trkpt>
      <trkpt lat="43.61458" lon="1.56321">
        <ele>208.1</ele>
        <time>2021-08-19T09:54:09Z</time>
      </trkpt>
      <trkpt lat="43.61454" lon="1.56344">
        <ele>209.3</ele>
        <time>2021-08-19T09:54:14Z</time>
      </trkpt>
      <trkpt lat="43.6145" lon="1.56367">
        <ele>209.7</ele>
        <time>2021-08-19T09:54:19Z</time>
      </trkpt>
      <trkpt lat="43.61445" lon="1.56391">
        <ele>209.5</ele>
        <time>2021-08-19T09:54:24Z</time>
      </trkpt>
      <trkpt lat="43.6144" lon="1.56416">
        <ele>210.1</ele>
        <time>2021-08-19T09:54:29Z</time>
      </trkpt>
      <trkpt lat="43.61437" lon="1.5644">
        <ele>210.5</ele>
        <time>2021-08-19T09:54:34Z</time>
      </trkpt>
      <trkpt lat="43.61433" lon="1.56465">
        <ele>210.3</ele>
        <time>2021-08-19T09:54:39Z</time>
      </trkpt>
      <trkpt lat="43.61429" lon="1.56491">
        <ele>210.8</ele>
        <time>2021-08-19T09:54:44Z</time>
      </trkpt>
      <trkpt lat="43.6142" lon="1.56518">
        <ele>211.5</ele>
        <time>2021-08-19T09:54:49Z</time>
      </trkpt>
      <trkpt lat="43.61414" lon="1.56546">
        <ele>212.1</ele>
        <time>2021-08-19T09:54:54Z</time>
      </trkpt>
      <trkpt lat="43.61408" lon="1.56576">
        <ele>212</ele>
        <time>2021-08-19T09:54:59Z</time>
      </trkpt>
      <trkpt lat="43.61402" lon="1.56605">
        <ele>211.9</ele>
        <time>2021-08-19T09:55:04Z</time>
      </trkpt>
      <trkpt lat="43.61396" lon="1.56635">
        <ele>211.8</ele>
        <time>2021-08-19T09:55:09Z</time>
      </trkpt>
      <trkpt lat="43.61391" lon="1.56667">
        <ele>211.8</ele>
        <time>2021-08-19T09:55:14Z</time>
      </trkpt>
      <trkpt lat="43.61385" lon="1.56698">
        <ele>211.7</ele>
        <time>2021-08-19T09:55:19Z</time>
      </trkpt>
      <trkpt lat="43.61377" lon="1.56725">
        <ele>211.6</ele>
        <time>2021-08-19T09:55:24Z</time>
      </trkpt>
      <trkpt lat="43.61371" lon="1.56754">
        <ele>212.3</ele>
        <time>2021-08-19T09:55:29Z</time>
      </trkpt>
      <trkpt lat="43.61363" lon="1.56784">
        <ele>212.2</ele>
        <time>2021-08-19T09:55:34Z</time>
      </trkpt>
      <trkpt lat="43.61356" lon="1.56812">
        <ele>212.2</ele>
        <time>2021-08-19T09:55:39Z</time>
      </trkpt>
      <trkpt lat="43.61353" lon="1.56841">
        <ele>212.7</ele>
        <time>2021-08-19T09:55:44Z</time>
      </trkpt>
      <trkpt lat="43.61342" lon="1.56865">
        <ele>212.7</ele>
        <time>2021-08-19T09:55:49Z</time>
      </trkpt>
      <trkpt lat="43.61331" lon="1.56893">
        <ele>213.4</ele>
        <time>2021-08-19T09:55:54Z</time>
      </trkpt>
      <trkpt lat="43.6132" lon="1.5692">
        <ele>213.4</ele>
        <time>2021-08-19T09:55:59Z</time>
      </trkpt>
      <trkpt lat="43.61309" lon="1.56946">
        <ele>214.1</ele>
        <time>2021-08-19T09:56:04Z</time>
      </trkpt>
      <trkpt lat="43.61298" lon="1.56973">
        <ele>214.8</ele>
        <time>2021-08-19T09:56:09Z</time>
      </trkpt>
      <trkpt lat="43.61287" lon="1.56999">
        <ele>215.5</ele>
        <time>2021-08-19T09:56:14Z</time>
      </trkpt>
      <trkpt lat="43.61275" lon="1.57027">
        <ele>216.3</ele>
        <time>2021-08-19T09:56:19Z</time>
      </trkpt>
      <trkpt lat="43.61264" lon="1.57054">
        <ele>216.3</ele>
        <time>2021-08-19T09:56:24Z</time>
      </trkpt>
      <trkpt lat="43.61254" lon="1.57078">
        <ele>217</ele>
        <time>2021-08-19T09:56:29Z</time>
      </trkpt>
      <trkpt lat="43.61244" lon="1.57102">
        <ele>216.9</ele>
        <time>2021-08-19T09:56:34Z</time>
      </trkpt>
      <trkpt lat="43.61234" lon="1.57123">
        <ele>217.5</ele>
        <time>2021-08-19T09:56:39Z</time>
      </trkpt>
      <trkpt lat="43.61226" lon="1.57143">
        <ele>218.7</ele>
        <time>2021-08-19T09:56:44Z</time>
      </trkpt>
      <trkpt lat="43.61215" lon="1.5716">
        <ele>218.6</ele>
        <time>2021-08-19T09:56:49Z</time>
      </trkpt>
      <trkpt lat="43.61205" lon="1.57179">
        <ele>219.9</ele>
        <time>2021-08-19T09:56:54Z</time>
      </trkpt>
      <trkpt lat="43.612" lon="1.57202">
        <ele>219.6</ele>
        <time>2021-08-19T09:56:59Z</time>
      </trkpt>
      <trkpt lat="43.61191" lon="1.57222">
        <ele>220.2</ele>
        <time>2021-08-19T09:57:04Z</time>
      </trkpt>
      <trkpt lat="43.61181" lon="1.57243">
        <ele>220.1</ele>
        <time>2021-08-19T09:57:09Z</time>
      </trkpt>
      <trkpt lat="43.61173" lon="1.57266">
        <ele>220</ele>
        <time>2021-08-19T09:57:14Z</time>
      </trkpt>
      <trkpt lat="43.61164" lon="1.57292">
        <ele>219.9</ele>
        <time>2021-08-19T09:57:19Z</time>
      </trkpt>
      <trkpt lat="43.61151" lon="1.57316">
        <ele>220.7</ele>
        <time>2021-08-19T09:57:24Z</time>
      </trkpt>
      <trkpt lat="43.61137" lon="1.57342">
        <ele>220.7</ele>
        <time>2021-08-19T09:57:29Z</time>
      </trkpt>
      <trkpt lat="43.61124" lon="1.57367">
        <ele>221.5</ele>
        <time>2021-08-19T09:57:34Z</time>
      </trkpt>
      <trkpt lat="43.61111" lon="1.57391">
        <ele>222.2</ele>
        <time>2021-08-19T09:57:39Z</time>
      </trkpt>
      <trkpt lat="43.61104" lon="1.57415">
        <ele>222.8</ele>
        <time>2021-08-19T09:57:44Z</time>
      </trkpt>
      <trkpt lat="43.61114" lon="1.57439">
        <ele>222.2</ele>
        <time>2021-08-19T09:57:49Z</time>
      </trkpt>
      <trkpt lat="43.61139" lon="1.57458">
        <ele>221.1</ele>
        <time>2021-08-19T09:57:54Z</time>
      </trkpt>
      <trkpt lat="43.61176" lon="1.57482">
        <ele>219</ele>
        <time>2021-08-19T09:57:59Z</time>
      </trkpt>
      <trkpt lat="43.61217" lon="1.57511">
        <ele>216.3</ele>
        <time>2021-08-19T09:58:04Z</time>
      </trkpt>
      <trkpt lat="43.61246" lon="1.57549">
        <ele>216.8</ele>
        <time>2021-08-19T09:58:09Z</time>
      </trkpt>
      <trkpt lat="43.61264" lon="1.57578">
        <ele>216</ele>
        <time>2021-08-19T09:58:14Z</time>
      </trkpt>
      <trkpt lat="43.61279" lon="1.57596">
        <ele>215.9</ele>
        <time>2021-08-19T09:58:19Z</time>
      </trkpt>
      <trkpt lat="43.61294" lon="1.57609">
        <ele>216.4</ele>
        <time>2021-08-19T09:58:24Z</time>
      </trkpt>
      <trkpt lat="43.61313" lon="1.57626">
        <ele>216.2</ele>
        <time>2021-08-19T09:58:29Z</time>
      </trkpt>
      <trkpt lat="43.61332" lon="1.57643">
        <ele>216.6</ele>
        <time>2021-08-19T09:58:34Z</time>
      </trkpt>
      <trkpt lat="43.6135" lon="1.57662">
        <ele>216.4</ele>
        <time>2021-08-19T09:58:39Z</time>
      </trkpt>
      <trkpt lat="43.61363" lon="1.57687">
        <ele>215.8</ele>
        <time>2021-08-19T09:58:44Z</time>
      </trkpt>
      <trkpt lat="43.61371" lon="1.57715">
        <ele>216.7</ele>
        <time>2021-08-19T09:58:49Z</time>
      </trkpt>
      <trkpt lat="43.61373" lon="1.57746">
        <ele>217.1</ele>
        <time>2021-08-19T09:58:54Z</time>
      </trkpt>
      <trkpt lat="43.61372" lon="1.57772">
        <ele>217.6</ele>
        <time>2021-08-19T09:58:59Z</time>
      </trkpt>
      <trkpt lat="43.61371" lon="1.57796">
        <ele>218</ele>
        <time>2021-08-19T09:59:04Z</time>
      </trkpt>
      <trkpt lat="43.61374" lon="1.5782">
        <ele>218.3</ele>
        <time>2021-08-19T09:59:09Z</time>
      </trkpt>
      <trkpt lat="43.61381" lon="1.57845">
        <ele>219.2</ele>
        <time>2021-08-19T09:59:14Z</time>
      </trkpt>
      <trkpt lat="43.61391" lon="1.57869">
        <ele>218.6</ele>
        <time>2021-08-19T09:59:19Z</time>
      </trkpt>
      <trkpt lat="43.61403" lon="1.57893">
        <ele>218.6</ele>
        <time>2021-08-19T09:59:24Z</time>
      </trkpt>
      <trkpt lat="43.61413" lon="1.57918">
        <ele>219.5</ele>
        <time>2021-08-19T09:59:29Z</time>
      </trkpt>
      <trkpt lat="43.61425" lon="1.57947">
        <ele>218.9</ele>
        <time>2021-08-19T09:59:34Z</time>
      </trkpt>
      <trkpt lat="43.61436" lon="1.57983">
        <ele>217.7</ele>
        <time>2021-08-19T09:59:39Z</time>
      </trkpt>
      <trkpt lat="43.61445" lon="1.58026">
        <ele>216.8</ele>
        <time>2021-08-19T09:59:44Z</time>
      </trkpt>
      <trkpt lat="43.61456" lon="1.58054">
        <ele>215.5</ele>
        <time>2021-08-19T09:59:49Z</time>
      </trkpt>
      <trkpt lat="43.61478" lon="1.58046">
        <ele>216.2</ele>
        <time>2021-08-19T09:59:54Z</time>
      </trkpt>
      <trkpt lat="43.61502" lon="1.58034">
        <ele>217.5</ele>
        <time>2021-08-19T09:59:59Z</time>
      </trkpt>
      <trkpt lat="43.61522" lon="1.58028">
        <ele>217.6</ele>
        <time>2021-08-19T10:00:04Z</time>
      </trkpt>
      <trkpt lat="43.61543" lon="1.58029">
        <ele>217.7</ele>
        <time>2021-08-19T10:00:09Z</time>
      </trkpt>
      <trkpt lat="43.61562" lon="1.58033">
        <ele>217.9</ele>
        <time>2021-08-19T10:00:14Z</time>
      </trkpt>
      <trkpt lat="43.61582" lon="1.58041">
        <ele>217.5</ele>
        <time>2021-08-19T10:00:19Z</time>
      </trkpt>
      <trkpt lat="43.61602" lon="1.58052">
        <ele>217.9</ele>
        <time>2021-08-19T10:00:24Z</time>
      </trkpt>
      <trkpt lat="43.6162" lon="1.58063">
        <ele>218.3</ele>
        <time>2021-08-19T10:00:29Z</time>
      </trkpt>
      <trkpt lat="43.6164" lon="1.58077">
        <ele>220.1</ele>
        <time>2021-08-19T10:00:34Z</time>
      </trkpt>
      <trkpt lat="43.61657" lon="1.58089">
        <ele>220.5</ele>
        <time>2021-08-19T10:00:39Z</time>
      </trkpt>
      <trkpt lat="43.6167" lon="1.58099">
        <ele>221.7</ele>
        <time>2021-08-19T10:00:44Z</time>
      </trkpt>
      <trkpt lat="43.61682" lon="1.58108">
        <ele>222.3</ele>
        <time>2021-08-19T10:00:49Z</time>
      </trkpt>
      <trkpt lat="43.61692" lon="1.58121">
        <ele>222.9</ele>
        <time>2021-08-19T10:00:54Z</time>
      </trkpt>
      <trkpt lat="43.61701" lon="1.58138">
        <ele>222.9</ele>
        <time>2021-08-19T10:00:59Z</time>
      </trkpt>
      <trkpt lat="43.61708" lon="1.5816">
        <ele>223.8</ele>
        <time>2021-08-19T10:01:05Z</time>
      </trkpt>
      <trkpt lat="43.61714" lon="1.58178">
        <ele>223.2</ele>
        <time>2021-08-19T10:01:10Z</time>
      </trkpt>
      <trkpt lat="43.61722" lon="1.58202">
        <ele>222.6</ele>
        <time>2021-08-19T10:01:15Z</time>
      </trkpt>
      <trkpt lat="43.61737" lon="1.58227">
        <ele>222.6</ele>
        <time>2021-08-19T10:01:20Z</time>
      </trkpt>
      <trkpt lat="43.61756" lon="1.58253">
        <ele>221.1</ele>
        <time>2021-08-19T10:01:25Z</time>
      </trkpt>
      <trkpt lat="43.61775" lon="1.58279">
        <ele>221.7</ele>
        <time>2021-08-19T10:01:30Z</time>
      </trkpt>
      <trkpt lat="43.61793" lon="1.58306">
        <ele>220.9</ele>
        <time>2021-08-19T10:01:35Z</time>
      </trkpt>
      <trkpt lat="43.61811" lon="1.5833">
        <ele>220.8</ele>
        <time>2021-08-19T10:01:40Z</time>
      </trkpt>
      <trkpt lat="43.61826" lon="1.58351">
        <ele>221.5</ele>
        <time>2021-08-19T10:01:45Z</time>
      </trkpt>
      <trkpt lat="43.6184" lon="1.58371">
        <ele>221.4</ele>
        <time>2021-08-19T10:01:50Z</time>
      </trkpt>
      <trkpt lat="43.61835" lon="1.58396">
        <ele>223.4</ele>
        <time>2021-08-19T10:01:55Z</time>
      </trkpt>
      <trkpt lat="43.61823" lon="1.58423">
        <ele>224.1</ele>
        <time>2021-08-19T10:02:00Z</time>
      </trkpt>
      <trkpt lat="43.61812" lon="1.58447">
        <ele>224.1</ele>
        <time>2021-08-19T10:02:05Z</time>
      </trkpt>
      <trkpt lat="43.61801" lon="1.58472">
        <ele>225.5</ele>
        <time>2021-08-19T10:02:10Z</time>
      </trkpt>
      <trkpt lat="43.61791" lon="1.58493">
        <ele>225.4</ele>
        <time>2021-08-19T10:02:15Z</time>
      </trkpt>
      <trkpt lat="43.61782" lon="1.58513">
        <ele>226.6</ele>
        <time>2021-08-19T10:02:20Z</time>
      </trkpt>
      <trkpt lat="43.61772" lon="1.58533">
        <ele>226.5</ele>
        <time>2021-08-19T10:02:25Z</time>
      </trkpt>
      <trkpt lat="43.61764" lon="1.58554">
        <ele>227.8</ele>
        <time>2021-08-19T10:02:30Z</time>
      </trkpt>
      <trkpt lat="43.61755" lon="1.58575">
        <ele>227.6</ele>
        <time>2021-08-19T10:02:35Z</time>
      </trkpt>
      <trkpt lat="43.61746" lon="1.58595">
        <ele>228.2</ele>
        <time>2021-08-19T10:02:40Z</time>
      </trkpt>
      <trkpt lat="43.61736" lon="1.58616">
        <ele>229.5</ele>
        <time>2021-08-19T10:02:45Z</time>
      </trkpt>
      <trkpt lat="43.61725" lon="1.58639">
        <ele>229.5</ele>
        <time>2021-08-19T10:02:50Z</time>
      </trkpt>
      <trkpt lat="43.61713" lon="1.58666">
        <ele>229.5</ele>
        <time>2021-08-19T10:02:55Z</time>
      </trkpt>
      <trkpt lat="43.61701" lon="1.58695">
        <ele>228.9</ele>
        <time>2021-08-19T10:03:00Z</time>
      </trkpt>
      <trkpt lat="43.61688" lon="1.58725">
        <ele>229</ele>
        <time>2021-08-19T10:03:05Z</time>
      </trkpt>
      <trkpt lat="43.61675" lon="1.58756">
        <ele>228.4</ele>
        <time>2021-08-19T10:03:10Z</time>
      </trkpt>
      <trkpt lat="43.61664" lon="1.5879">
        <ele>228.6</ele>
        <time>2021-08-19T10:03:15Z</time>
      </trkpt>
      <trkpt lat="43.61651" lon="1.58825">
        <ele>227.3</ele>
        <time>2021-08-19T10:03:20Z</time>
      </trkpt>
      <trkpt lat="43.61638" lon="1.58862">
        <ele>226.9</ele>
        <time>2021-08-19T10:03:25Z</time>
      </trkpt>
      <trkpt lat="43.61625" lon="1.58898">
        <ele>227.1</ele>
        <time>2021-08-19T10:03:30Z</time>
      </trkpt>
      <trkpt lat="43.61612" lon="1.58934">
        <ele>226.6</ele>
        <time>2021-08-19T10:03:35Z</time>
      </trkpt>
      <trkpt lat="43.616" lon="1.58968">
        <ele>227.4</ele>
        <time>2021-08-19T10:03:40Z</time>
      </trkpt>
      <trkpt lat="43.61586" lon="1.59003">
        <ele>227.7</ele>
        <time>2021-08-19T10:03:45Z</time>
      </trkpt>
      <trkpt lat="43.61573" lon="1.59037">
        <ele>227.1</ele>
        <time>2021-08-19T10:03:50Z</time>
      </trkpt>
      <trkpt lat="43.61559" lon="1.59069">
        <ele>228</ele>
        <time>2021-08-19T10:03:55Z</time>
      </trkpt>
      <trkpt lat="43.61545" lon="1.59101">
        <ele>228.9</ele>
        <time>2021-08-19T10:04:00Z</time>
      </trkpt>
      <trkpt lat="43.6153" lon="1.59128">
        <ele>228.3</ele>
        <time>2021-08-19T10:04:05Z</time>
      </trkpt>
      <trkpt lat="43.61516" lon="1.59156">
        <ele>228.4</ele>
        <time>2021-08-19T10:04:10Z</time>
      </trkpt>
      <trkpt lat="43.61502" lon="1.59183">
        <ele>229.3</ele>
        <time>2021-08-19T10:04:15Z</time>
      </trkpt>
      <trkpt lat="43.61487" lon="1.59211">
        <ele>230.8</ele>
        <time>2021-08-19T10:04:20Z</time>
      </trkpt>
      <trkpt lat="43.61471" lon="1.59238">
        <ele>229.5</ele>
        <time>2021-08-19T10:04:25Z</time>
      </trkpt>
      <trkpt lat="43.61456" lon="1.59264">
        <ele>229.7</ele>
        <time>2021-08-19T10:04:30Z</time>
      </trkpt>
      <trkpt lat="43.61441" lon="1.59291">
        <ele>229.8</ele>
        <time>2021-08-19T10:04:35Z</time>
      </trkpt>
      <trkpt lat="43.61428" lon="1.59318">
        <ele>229.9</ele>
        <time>2021-08-19T10:04:40Z</time>
      </trkpt>
      <trkpt lat="43.61412" lon="1.59345">
        <ele>230.7</ele>
        <time>2021-08-19T10:04:45Z</time>
      </trkpt>
      <trkpt lat="43.61398" lon="1.59374">
        <ele>230.9</ele>
        <time>2021-08-19T10:04:50Z</time>
      </trkpt>
      <trkpt lat="43.61388" lon="1.59408">
        <ele>231</ele>
        <time>2021-08-19T10:04:55Z</time>
      </trkpt>
      <trkpt lat="43.6138" lon="1.59442">
        <ele>230.3</ele>
        <time>2021-08-19T10:05:00Z</time>
      </trkpt>
      <trkpt lat="43.61371" lon="1.59479">
        <ele>230.4</ele>
        <time>2021-08-19T10:05:05Z</time>
      </trkpt>
      <trkpt lat="43.61363" lon="1.59517">
        <ele>229.8</ele>
        <time>2021-08-19T10:05:10Z</time>
      </trkpt>
      <trkpt lat="43.61355" lon="1.59557">
        <ele>229.3</ele>
        <time>2021-08-19T10:05:15Z</time>
      </trkpt>
      <trkpt lat="43.61347" lon="1.59596">
        <ele>228.7</ele>
        <time>2021-08-19T10:05:20Z</time>
      </trkpt>
      <trkpt lat="43.6134" lon="1.59634">
        <ele>228.8</ele>
        <time>2021-08-19T10:05:25Z</time>
      </trkpt>
      <trkpt lat="43.61334" lon="1.59675">
        <ele>227.5</ele>
        <time>2021-08-19T10:05:30Z</time>
      </trkpt>
      <trkpt lat="43.61326" lon="1.59721">
        <ele>227</ele>
        <time>2021-08-19T10:05:35Z</time>
      </trkpt>
      <trkpt lat="43.61315" lon="1.59768">
        <ele>226.6</ele>
        <time>2021-08-19T10:05:40Z</time>
      </trkpt>
      <trkpt lat="43.61302" lon="1.59813">
        <ele>225.6</ele>
        <time>2021-08-19T10:05:45Z</time>
      </trkpt>
      <trkpt lat="43.61289" lon="1.5986">
        <ele>225.3</ele>
        <time>2021-08-19T10:05:50Z</time>
      </trkpt>
      <trkpt lat="43.61275" lon="1.59907">
        <ele>225</ele>
        <time>2021-08-19T10:05:55Z</time>
      </trkpt>
      <trkpt lat="43.61262" lon="1.59953">
        <ele>224.7</ele>
        <time>2021-08-19T10:06:00Z</time>
      </trkpt>
      <trkpt lat="43.61248" lon="1.6">
        <ele>224.4</ele>
        <time>2021-08-19T10:06:05Z</time>
      </trkpt>
      <trkpt lat="43.61234" lon="1.60048">
        <ele>224.8</ele>
        <time>2021-08-19T10:06:10Z</time>
      </trkpt>
      <trkpt lat="43.61221" lon="1.60095">
        <ele>224.5</ele>
        <time>2021-08-19T10:06:15Z</time>
      </trkpt>
      <trkpt lat="43.61208" lon="1.60138">
        <ele>224.1</ele>
        <time>2021-08-19T10:06:20Z</time>
      </trkpt>
      <trkpt lat="43.61195" lon="1.60177">
        <ele>224.4</ele>
        <time>2021-08-19T10:06:25Z</time>
      </trkpt>
      <trkpt lat="43.61184" lon="1.60215">
        <ele>224.6</ele>
        <time>2021-08-19T10:06:30Z</time>
      </trkpt>
      <trkpt lat="43.61172" lon="1.6025">
        <ele>224.8</ele>
        <time>2021-08-19T10:06:35Z</time>
      </trkpt>
      <trkpt lat="43.61161" lon="1.60283">
        <ele>224.9</ele>
        <time>2021-08-19T10:06:40Z</time>
      </trkpt>
      <trkpt lat="43.6115" lon="1.60315">
        <ele>225</ele>
        <time>2021-08-19T10:06:45Z</time>
      </trkpt>
      <trkpt lat="43.6114" lon="1.60347">
        <ele>225.1</ele>
        <time>2021-08-19T10:06:50Z</time>
      </trkpt>
      <trkpt lat="43.61128" lon="1.6038">
        <ele>224.5</ele>
        <time>2021-08-19T10:06:55Z</time>
      </trkpt>
      <trkpt lat="43.61116" lon="1.60414">
        <ele>224</ele>
        <time>2021-08-19T10:07:00Z</time>
      </trkpt>
      <trkpt lat="43.61103" lon="1.60451">
        <ele>224.2</ele>
        <time>2021-08-19T10:07:05Z</time>
      </trkpt>
      <trkpt lat="43.61091" lon="1.60485">
        <ele>223.7</ele>
        <time>2021-08-19T10:07:10Z</time>
      </trkpt>
      <trkpt lat="43.6108" lon="1.60519">
        <ele>223.1</ele>
        <time>2021-08-19T10:07:15Z</time>
      </trkpt>
      <trkpt lat="43.6107" lon="1.60551">
        <ele>222.4</ele>
        <time>2021-08-19T10:07:20Z</time>
      </trkpt>
      <trkpt lat="43.6106" lon="1.60579">
        <ele>222.5</ele>
        <time>2021-08-19T10:07:25Z</time>
      </trkpt>
      <trkpt lat="43.6105" lon="1.60607">
        <ele>222.5</ele>
        <time>2021-08-19T10:07:30Z</time>
      </trkpt>
      <trkpt lat="43.6104" lon="1.60634">
        <ele>222.5</ele>
        <time>2021-08-19T10:07:35Z</time>
      </trkpt>
      <trkpt lat="43.61031" lon="1.6066">
        <ele>223.1</ele>
        <time>2021-08-19T10:07:40Z</time>
      </trkpt>
      <trkpt lat="43.61021" lon="1.60688">
        <ele>223.8</ele>
        <time>2021-08-19T10:07:45Z</time>
      </trkpt>
      <trkpt lat="43.61011" lon="1.60717">
        <ele>223.9</ele>
        <time>2021-08-19T10:07:50Z</time>
      </trkpt>
      <trkpt lat="43.61001" lon="1.60749">
        <ele>224</ele>
        <time>2021-08-19T10:07:55Z</time>
      </trkpt>
      <trkpt lat="43.60993" lon="1.60778">
        <ele>223.9</ele>
        <time>2021-08-19T10:08:00Z</time>
      </trkpt>
      <trkpt lat="43.60985" lon="1.60807">
        <ele>223.9</ele>
        <time>2021-08-19T10:08:05Z</time>
      </trkpt>
      <trkpt lat="43.60978" lon="1.60839">
        <ele>223.9</ele>
        <time>2021-08-19T10:08:10Z</time>
      </trkpt>
      <trkpt lat="43.60972" lon="1.60873">
        <ele>223.9</ele>
        <time>2021-08-19T10:08:15Z</time>
      </trkpt>
      <trkpt lat="43.60966" lon="1.60907">
        <ele>223.2</ele>
        <time>2021-08-19T10:08:20Z</time>
      </trkpt>
      <trkpt lat="43.6096" lon="1.6094">
        <ele>223.2</ele>
        <time>2021-08-19T10:08:25Z</time>
      </trkpt>
      <trkpt lat="43.60954" lon="1.60976">
        <ele>222.5</ele>
        <time>2021-08-19T10:08:30Z</time>
      </trkpt>
      <trkpt lat="43.60948" lon="1.61013">
        <ele>222.6</ele>
        <time>2021-08-19T10:08:35Z</time>
      </trkpt>
      <trkpt lat="43.60941" lon="1.61051">
        <ele>221.9</ele>
        <time>2021-08-19T10:08:40Z</time>
      </trkpt>
      <trkpt lat="43.60933" lon="1.61091">
        <ele>222.1</ele>
        <time>2021-08-19T10:08:45Z</time>
      </trkpt>
      <trkpt lat="43.60925" lon="1.6113">
        <ele>220.8</ele>
        <time>2021-08-19T10:08:50Z</time>
      </trkpt>
      <trkpt lat="43.60915" lon="1.61171">
        <ele>220.3</ele>
        <time>2021-08-19T10:08:55Z</time>
      </trkpt>
      <trkpt lat="43.60906" lon="1.61209">
        <ele>220.5</ele>
        <time>2021-08-19T10:09:00Z</time>
      </trkpt>
      <trkpt lat="43.60898" lon="1.61246">
        <ele>221.3</ele>
        <time>2021-08-19T10:09:05Z</time>
      </trkpt>
      <trkpt lat="43.60891" lon="1.61279">
        <ele>221.3</ele>
        <time>2021-08-19T10:09:10Z</time>
      </trkpt>
      <trkpt lat="43.60884" lon="1.61314">
        <ele>221.3</ele>
        <time>2021-08-19T10:09:16Z</time>
      </trkpt>
      <trkpt lat="43.6088" lon="1.61342">
        <ele>221.9</ele>
        <time>2021-08-19T10:09:21Z</time>
      </trkpt>
      <trkpt lat="43.60878" lon="1.61372">
        <ele>221.7</ele>
        <time>2021-08-19T10:09:26Z</time>
      </trkpt>
      <trkpt lat="43.60877" lon="1.614">
        <ele>221.5</ele>
        <time>2021-08-19T10:09:31Z</time>
      </trkpt>
      <trkpt lat="43.60877" lon="1.61431">
        <ele>221.3</ele>
        <time>2021-08-19T10:09:36Z</time>
      </trkpt>
      <trkpt lat="43.60878" lon="1.61465">
        <ele>221.1</ele>
        <time>2021-08-19T10:09:41Z</time>
      </trkpt>
      <trkpt lat="43.60879" lon="1.61502">
        <ele>220.3</ele>
        <time>2021-08-19T10:09:46Z</time>
      </trkpt>
      <trkpt lat="43.6088" lon="1.61539">
        <ele>220.1</ele>
        <time>2021-08-19T10:09:51Z</time>
      </trkpt>
      <trkpt lat="43.60881" lon="1.61577">
        <ele>219.3</ele>
        <time>2021-08-19T10:09:56Z</time>
      </trkpt>
      <trkpt lat="43.60882" lon="1.61614">
        <ele>219.9</ele>
        <time>2021-08-19T10:10:01Z</time>
      </trkpt>
      <trkpt lat="43.60883" lon="1.61651">
        <ele>219.7</ele>
        <time>2021-08-19T10:10:06Z</time>
      </trkpt>
      <trkpt lat="43.60885" lon="1.61687">
        <ele>219.6</ele>
        <time>2021-08-19T10:10:11Z</time>
      </trkpt>
      <trkpt lat="43.60886" lon="1.61722">
        <ele>219.4</ele>
        <time>2021-08-19T10:10:16Z</time>
      </trkpt>
      <trkpt lat="43.60886" lon="1.61755">
        <ele>219.2</ele>
        <time>2021-08-19T10:10:21Z</time>
      </trkpt>
      <trkpt lat="43.60888" lon="1.61789">
        <ele>219</ele>
        <time>2021-08-19T10:10:26Z</time>
      </trkpt>
      <trkpt lat="43.60888" lon="1.61821">
        <ele>218.1</ele>
        <time>2021-08-19T10:10:31Z</time>
      </trkpt>
      <trkpt lat="43.60892" lon="1.61853">
        <ele>218.5</ele>
        <time>2021-08-19T10:10:36Z</time>
      </trkpt>
      <trkpt lat="43.60897" lon="1.61884">
        <ele>218.2</ele>
        <time>2021-08-19T10:10:41Z</time>
      </trkpt>
      <trkpt lat="43.60906" lon="1.61913">
        <ele>219.1</ele>
        <time>2021-08-19T10:10:46Z</time>
      </trkpt>
      <trkpt lat="43.60918" lon="1.61939">
        <ele>219.2</ele>
        <time>2021-08-19T10:10:51Z</time>
      </trkpt>
      <trkpt lat="43.60931" lon="1.61967">
        <ele>220.7</ele>
        <time>2021-08-19T10:10:56Z</time>
      </trkpt>
      <trkpt lat="43.60943" lon="1.61991">
        <ele>221.5</ele>
        <time>2021-08-19T10:11:01Z</time>
      </trkpt>
      <trkpt lat="43.60951" lon="1.6201">
        <ele>222.3</ele>
        <time>2021-08-19T10:11:06Z</time>
      </trkpt>
      <trkpt lat="43.60958" lon="1.62025">
        <ele>223.7</ele>
        <time>2021-08-19T10:11:11Z</time>
      </trkpt>
      <trkpt lat="43.60965" lon="1.62038">
        <ele>224.5</ele>
        <time>2021-08-19T10:11:16Z</time>
      </trkpt>
      <trkpt lat="43.60972" lon="1.62052">
        <ele>225.2</ele>
        <time>2021-08-19T10:11:21Z</time>
      </trkpt>
      <trkpt lat="43.60979" lon="1.62066">
        <ele>225.9</ele>
        <time>2021-08-19T10:11:26Z</time>
      </trkpt>
      <trkpt lat="43.60986" lon="1.62079">
        <ele>225.9</ele>
        <time>2021-08-19T10:11:31Z</time>
      </trkpt>
      <trkpt lat="43.60993" lon="1.62092">
        <ele>226.7</ele>
        <time>2021-08-19T10:11:36Z</time>
      </trkpt>
      <trkpt lat="43.61002" lon="1.62106">
        <ele>226.7</ele>
        <time>2021-08-19T10:11:41Z</time>
      </trkpt>
      <trkpt lat="43.61011" lon="1.62125">
        <ele>226.7</ele>
        <time>2021-08-19T10:11:46Z</time>
      </trkpt>
      <trkpt lat="43.61024" lon="1.62148">
        <ele>226.7</ele>
        <time>2021-08-19T10:11:51Z</time>
      </trkpt>
      <trkpt lat="43.61038" lon="1.62174">
        <ele>226.1</ele>
        <time>2021-08-19T10:11:56Z</time>
      </trkpt>
      <trkpt lat="43.61052" lon="1.62203">
        <ele>225.4</ele>
        <time>2021-08-19T10:12:01Z</time>
      </trkpt>
      <trkpt lat="43.61066" lon="1.62237">
        <ele>224.9</ele>
        <time>2021-08-19T10:12:06Z</time>
      </trkpt>
      <trkpt lat="43.61075" lon="1.62276">
        <ele>224.6</ele>
        <time>2021-08-19T10:12:11Z</time>
      </trkpt>
      <trkpt lat="43.61079" lon="1.62318">
        <ele>223.8</ele>
        <time>2021-08-19T10:12:16Z</time>
      </trkpt>
      <trkpt lat="43.61085" lon="1.62365">
        <ele>222.2</ele>
        <time>2021-08-19T10:12:21Z</time>
      </trkpt>
      <trkpt lat="43.61092" lon="1.62417">
        <ele>221.5</ele>
        <time>2021-08-19T10:12:26Z</time>
      </trkpt>
      <trkpt lat="43.61099" lon="1.62473">
        <ele>219.4</ele>
        <time>2021-08-19T10:12:31Z</time>
      </trkpt>
      <trkpt lat="43.61108" lon="1.62532">
        <ele>217.2</ele>
        <time>2021-08-19T10:12:36Z</time>
      </trkpt>
      <trkpt lat="43.6112" lon="1.62589">
        <ele>215.7</ele>
        <time>2021-08-19T10:12:41Z</time>
      </trkpt>
      <trkpt lat="43.61132" lon="1.62645">
        <ele>214.9</ele>
        <time>2021-08-19T10:12:46Z</time>
      </trkpt>
      <trkpt lat="43.6114" lon="1.62693">
        <ele>215.4</ele>
        <time>2021-08-19T10:12:51Z</time>
      </trkpt>
      <trkpt lat="43.61145" lon="1.62734">
        <ele>217.4</ele>
        <time>2021-08-19T10:12:56Z</time>
      </trkpt>
      <trkpt lat="43.61148" lon="1.62767">
        <ele>218.5</ele>
        <time>2021-08-19T10:13:01Z</time>
      </trkpt>
      <trkpt lat="43.61149" lon="1.62794">
        <ele>219.7</ele>
        <time>2021-08-19T10:13:06Z</time>
      </trkpt>
      <trkpt lat="43.61148" lon="1.62817">
        <ele>220.7</ele>
        <time>2021-08-19T10:13:11Z</time>
      </trkpt>
      <trkpt lat="43.61145" lon="1.6284">
        <ele>221.9</ele>
        <time>2021-08-19T10:13:16Z</time>
      </trkpt>
      <trkpt lat="43.6114" lon="1.62861">
        <ele>223.1</ele>
        <time>2021-08-19T10:13:21Z</time>
      </trkpt>
      <trkpt lat="43.61136" lon="1.62881">
        <ele>223.5</ele>
        <time>2021-08-19T10:13:26Z</time>
      </trkpt>
      <trkpt lat="43.61131" lon="1.62902">
        <ele>224</ele>
        <time>2021-08-19T10:13:31Z</time>
      </trkpt>
      <trkpt lat="43.61128" lon="1.62921">
        <ele>224.4</ele>
        <time>2021-08-19T10:13:36Z</time>
      </trkpt>
      <trkpt lat="43.61122" lon="1.62944">
        <ele>224.2</ele>
        <time>2021-08-19T10:13:41Z</time>
      </trkpt>
      <trkpt lat="43.61117" lon="1.62967">
        <ele>224</ele>
        <time>2021-08-19T10:13:46Z</time>
      </trkpt>
      <trkpt lat="43.61111" lon="1.62989">
        <ele>225.3</ele>
        <time>2021-08-19T10:13:51Z</time>
      </trkpt>
      <trkpt lat="43.61108" lon="1.63011">
        <ele>224.3</ele>
        <time>2021-08-19T10:13:56Z</time>
      </trkpt>
      <trkpt lat="43.61121" lon="1.63034">
        <ele>223.6</ele>
        <time>2021-08-19T10:14:01Z</time>
      </trkpt>
      <trkpt lat="43.61139" lon="1.63054">
        <ele>223.5</ele>
        <time>2021-08-19T10:14:06Z</time>
      </trkpt>
      <trkpt lat="43.61158" lon="1.63075">
        <ele>222.6</ele>
        <time>2021-08-19T10:14:11Z</time>
      </trkpt>
      <trkpt lat="43.6118" lon="1.63091">
        <ele>222.9</ele>
        <time>2021-08-19T10:14:16Z</time>
      </trkpt>
      <trkpt lat="43.61205" lon="1.63103">
        <ele>221.8</ele>
        <time>2021-08-19T10:14:21Z</time>
      </trkpt>
      <trkpt lat="43.61233" lon="1.6311">
        <ele>221.8</ele>
        <time>2021-08-19T10:14:26Z</time>
      </trkpt>
      <trkpt lat="43.61262" lon="1.63113">
        <ele>222.5</ele>
        <time>2021-08-19T10:14:31Z</time>
      </trkpt>
      <trkpt lat="43.6129" lon="1.63114">
        <ele>222.4</ele>
        <time>2021-08-19T10:14:36Z</time>
      </trkpt>
      <trkpt lat="43.61315" lon="1.63117">
        <ele>223.2</ele>
        <time>2021-08-19T10:14:41Z</time>
      </trkpt>
      <trkpt lat="43.61336" lon="1.63122">
        <ele>223.4</ele>
        <time>2021-08-19T10:14:46Z</time>
      </trkpt>
      <trkpt lat="43.61355" lon="1.63132">
        <ele>223.8</ele>
        <time>2021-08-19T10:14:51Z</time>
      </trkpt>
      <trkpt lat="43.61372" lon="1.63146">
        <ele>225</ele>
        <time>2021-08-19T10:14:56Z</time>
      </trkpt>
      <trkpt lat="43.61382" lon="1.6316">
        <ele>224.9</ele>
        <time>2021-08-19T10:15:01Z</time>
      </trkpt>
      <trkpt lat="43.61374" lon="1.6318">
        <ele>226.2</ele>
        <time>2021-08-19T10:15:06Z</time>
      </trkpt>
      <trkpt lat="43.61362" lon="1.63198">
        <ele>226.8</ele>
        <time>2021-08-19T10:15:11Z</time>
      </trkpt>
      <trkpt lat="43.61351" lon="1.63215">
        <ele>226.7</ele>
        <time>2021-08-19T10:15:16Z</time>
      </trkpt>
      <trkpt lat="43.61338" lon="1.63233">
        <ele>226.6</ele>
        <time>2021-08-19T10:15:21Z</time>
      </trkpt>
      <trkpt lat="43.61326" lon="1.63254">
        <ele>226.6</ele>
        <time>2021-08-19T10:15:26Z</time>
      </trkpt>
      <trkpt lat="43.61314" lon="1.63273">
        <ele>226.5</ele>
        <time>2021-08-19T10:15:31Z</time>
      </trkpt>
      <trkpt lat="43.61304" lon="1.63297">
        <ele>225.7</ele>
        <time>2021-08-19T10:15:36Z</time>
      </trkpt>
      <trkpt lat="43.61307" lon="1.63329">
        <ele>225.5</ele>
        <time>2021-08-19T10:15:41Z</time>
      </trkpt>
      <trkpt lat="43.61324" lon="1.63363">
        <ele>223.5</ele>
        <time>2021-08-19T10:15:46Z</time>
      </trkpt>
      <trkpt lat="43.61347" lon="1.63409">
        <ele>219.3</ele>
        <time>2021-08-19T10:15:51Z</time>
      </trkpt>
      <trkpt lat="43.61374" lon="1.63469">
        <ele>213.9</ele>
        <time>2021-08-19T10:15:56Z</time>
      </trkpt>
      <trkpt lat="43.61399" lon="1.63544">
        <ele>206.7</ele>
        <time>2021-08-19T10:16:01Z</time>
      </trkpt>
      <trkpt lat="43.61426" lon="1.63628">
        <ele>200.2</ele>
        <time>2021-08-19T10:16:06Z</time>
      </trkpt>
      <trkpt lat="43.61455" lon="1.63718">
        <ele>193.1</ele>
        <time>2021-08-19T10:16:11Z</time>
      </trkpt>
      <trkpt lat="43.61483" lon="1.63803">
        <ele>190.2</ele>
        <time>2021-08-19T10:16:16Z</time>
      </trkpt>
      <trkpt lat="43.61505" lon="1.6387">
        <ele>193.6</ele>
        <time>2021-08-19T10:16:21Z</time>
      </trkpt>
      <trkpt lat="43.61519" lon="1.63915">
        <ele>197.5</ele>
        <time>2021-08-19T10:16:26Z</time>
      </trkpt>
      <trkpt lat="43.61527" lon="1.63943">
        <ele>199.1</ele>
        <time>2021-08-19T10:16:31Z</time>
      </trkpt>
      <trkpt lat="43.61535" lon="1.63964">
        <ele>200.7</ele>
        <time>2021-08-19T10:16:36Z</time>
      </trkpt>
      <trkpt lat="43.61543" lon="1.63984">
        <ele>202.9</ele>
        <time>2021-08-19T10:16:41Z</time>
      </trkpt>
      <trkpt lat="43.6155" lon="1.63999">
        <ele>203.7</ele>
        <time>2021-08-19T10:16:46Z</time>
      </trkpt>
      <trkpt lat="43.61556" lon="1.6401">
        <ele>205.1</ele>
        <time>2021-08-19T10:16:51Z</time>
      </trkpt>
      <trkpt lat="43.61562" lon="1.64019">
        <ele>206.5</ele>
        <time>2021-08-19T10:16:56Z</time>
      </trkpt>
      <trkpt lat="43.61569" lon="1.64028">
        <ele>207.1</ele>
        <time>2021-08-19T10:17:01Z</time>
      </trkpt>
      <trkpt lat="43.61575" lon="1.64037">
        <ele>208.5</ele>
        <time>2021-08-19T10:17:06Z</time>
      </trkpt>
      <trkpt lat="43.61582" lon="1.64046">
        <ele>208.5</ele>
        <time>2021-08-19T10:17:11Z</time>
      </trkpt>
      <trkpt lat="43.61588" lon="1.64054">
        <ele>209.2</ele>
        <time>2021-08-19T10:17:16Z</time>
      </trkpt>
      <trkpt lat="43.61597" lon="1.64066">
        <ele>209.1</ele>
        <time>2021-08-19T10:17:21Z</time>
      </trkpt>
      <trkpt lat="43.61607" lon="1.64077">
        <ele>209</ele>
        <time>2021-08-19T10:17:26Z</time>
      </trkpt>
      <trkpt lat="43.6162" lon="1.6409">
        <ele>208.9</ele>
        <time>2021-08-19T10:17:31Z</time>
      </trkpt>
      <trkpt lat="43.61636" lon="1.64109">
        <ele>208.8</ele>
        <time>2021-08-19T10:17:36Z</time>
      </trkpt>
      <trkpt lat="43.6166" lon="1.64135">
        <ele>205.7</ele>
        <time>2021-08-19T10:17:41Z</time>
      </trkpt>
      <trkpt lat="43.6169" lon="1.64169">
        <ele>204.1</ele>
        <time>2021-08-19T10:17:46Z</time>
      </trkpt>
      <trkpt lat="43.61724" lon="1.64207">
        <ele>201.6</ele>
        <time>2021-08-19T10:17:51Z</time>
      </trkpt>
      <trkpt lat="43.6176" lon="1.64244">
        <ele>199.1</ele>
        <time>2021-08-19T10:17:56Z</time>
      </trkpt>
      <trkpt lat="43.61762" lon="1.64283">
        <ele>198.3</ele>
        <time>2021-08-19T10:18:01Z</time>
      </trkpt>
      <trkpt lat="43.61737" lon="1.64303">
        <ele>199.3</ele>
        <time>2021-08-19T10:18:06Z</time>
      </trkpt>
      <trkpt lat="43.61714" lon="1.64321">
        <ele>199.5</ele>
        <time>2021-08-19T10:18:11Z</time>
      </trkpt>
      <trkpt lat="43.61692" lon="1.64338">
        <ele>199.7</ele>
        <time>2021-08-19T10:18:16Z</time>
      </trkpt>
      <trkpt lat="43.61668" lon="1.64356">
        <ele>199.9</ele>
        <time>2021-08-19T10:18:21Z</time>
      </trkpt>
      <trkpt lat="43.61642" lon="1.64377">
        <ele>200.3</ele>
        <time>2021-08-19T10:18:26Z</time>
      </trkpt>
      <trkpt lat="43.61616" lon="1.64396">
        <ele>201.3</ele>
        <time>2021-08-19T10:18:31Z</time>
      </trkpt>
      <trkpt lat="43.61594" lon="1.64413">
        <ele>202.9</ele>
        <time>2021-08-19T10:18:36Z</time>
      </trkpt>
      <trkpt lat="43.61574" lon="1.64429">
        <ele>203</ele>
        <time>2021-08-19T10:18:41Z</time>
      </trkpt>
      <trkpt lat="43.61555" lon="1.64444">
        <ele>203.7</ele>
        <time>2021-08-19T10:18:46Z</time>
      </trkpt>
      <trkpt lat="43.61536" lon="1.64458">
        <ele>204.5</ele>
        <time>2021-08-19T10:18:51Z</time>
      </trkpt>
      <trkpt lat="43.61519" lon="1.64473">
        <ele>204.5</ele>
        <time>2021-08-19T10:18:56Z</time>
      </trkpt>
      <trkpt lat="43.61502" lon="1.64486">
        <ele>205.8</ele>
        <time>2021-08-19T10:19:01Z</time>
      </trkpt>
      <trkpt lat="43.61485" lon="1.64499">
        <ele>205.1</ele>
        <time>2021-08-19T10:19:06Z</time>
      </trkpt>
      <trkpt lat="43.6147" lon="1.64511">
        <ele>205.7</ele>
        <time>2021-08-19T10:19:11Z</time>
      </trkpt>
      <trkpt lat="43.61456" lon="1.64522">
        <ele>207</ele>
        <time>2021-08-19T10:19:16Z</time>
      </trkpt>
      <trkpt lat="43.61446" lon="1.64532">
        <ele>206.7</ele>
        <time>2021-08-19T10:19:21Z</time>
      </trkpt>
      <trkpt lat="43.61441" lon="1.64545">
        <ele>207</ele>
        <time>2021-08-19T10:19:26Z</time>
      </trkpt>
      <trkpt lat="43.61455" lon="1.64569">
        <ele>206.3</ele>
        <time>2021-08-19T10:19:31Z</time>
      </trkpt>
      <trkpt lat="43.6148" lon="1.64598">
        <ele>204.7</ele>
        <time>2021-08-19T10:19:36Z</time>
      </trkpt>
      <trkpt lat="43.6151" lon="1.64633">
        <ele>202.4</ele>
        <time>2021-08-19T10:19:41Z</time>
      </trkpt>
      <trkpt lat="43.6154" lon="1.64667">
        <ele>200.7</ele>
        <time>2021-08-19T10:19:46Z</time>
      </trkpt>
      <trkpt lat="43.6157" lon="1.64702">
        <ele>199.1</ele>
        <time>2021-08-19T10:19:51Z</time>
      </trkpt>
      <trkpt lat="43.61599" lon="1.64738">
        <ele>196.7</ele>
        <time>2021-08-19T10:19:56Z</time>
      </trkpt>
      <trkpt lat="43.61628" lon="1.64772">
        <ele>195.8</ele>
        <time>2021-08-19T10:20:01Z</time>
      </trkpt>
      <trkpt lat="43.61658" lon="1.64808">
        <ele>194.2</ele>
        <time>2021-08-19T10:20:06Z</time>
      </trkpt>
      <trkpt lat="43.6169" lon="1.64843">
        <ele>192.5</ele>
        <time>2021-08-19T10:20:11Z</time>
      </trkpt>
      <trkpt lat="43.61721" lon="1.6488">
        <ele>190.8</ele>
        <time>2021-08-19T10:20:16Z</time>
      </trkpt>
      <trkpt lat="43.61753" lon="1.64918">
        <ele>188.5</ele>
        <time>2021-08-19T10:20:21Z</time>
      </trkpt>
      <trkpt lat="43.61787" lon="1.64959">
        <ele>186.1</ele>
        <time>2021-08-19T10:20:26Z</time>
      </trkpt>
      <trkpt lat="43.61822" lon="1.65">
        <ele>185.1</ele>
        <time>2021-08-19T10:20:31Z</time>
      </trkpt>
      <trkpt lat="43.61855" lon="1.65038">
        <ele>184.1</ele>
        <time>2021-08-19T10:20:36Z</time>
      </trkpt>
      <trkpt lat="43.61882" lon="1.65073">
        <ele>185.4</ele>
        <time>2021-08-19T10:20:41Z</time>
      </trkpt>
      <trkpt lat="43.61895" lon="1.65107">
        <ele>187</ele>
        <time>2021-08-19T10:20:46Z</time>
      </trkpt>
      <trkpt lat="43.61897" lon="1.65134">
        <ele>188.8</ele>
        <time>2021-08-19T10:20:51Z</time>
      </trkpt>
      <trkpt lat="43.61896" lon="1.65159">
        <ele>190.7</ele>
        <time>2021-08-19T10:20:56Z</time>
      </trkpt>
      <trkpt lat="43.61901" lon="1.65179">
        <ele>193</ele>
        <time>2021-08-19T10:21:01Z</time>
      </trkpt>
      <trkpt lat="43.61907" lon="1.65195">
        <ele>194.5</ele>
        <time>2021-08-19T10:21:06Z</time>
      </trkpt>
      <trkpt lat="43.61912" lon="1.65208">
        <ele>195.3</ele>
        <time>2021-08-19T10:21:11Z</time>
      </trkpt>
      <trkpt lat="43.61919" lon="1.65218">
        <ele>196.7</ele>
        <time>2021-08-19T10:21:16Z</time>
      </trkpt>
      <trkpt lat="43.61923" lon="1.65226">
        <ele>197.4</ele>
        <time>2021-08-19T10:21:21Z</time>
      </trkpt>
      <trkpt lat="43.61928" lon="1.65236">
        <ele>198.9</ele>
        <time>2021-08-19T10:21:26Z</time>
      </trkpt>
      <trkpt lat="43.61934" lon="1.65245">
        <ele>199.6</ele>
        <time>2021-08-19T10:21:31Z</time>
      </trkpt>
      <trkpt lat="43.61938" lon="1.65254">
        <ele>200.3</ele>
        <time>2021-08-19T10:21:36Z</time>
      </trkpt>
      <trkpt lat="43.61942" lon="1.65265">
        <ele>201.1</ele>
        <time>2021-08-19T10:21:41Z</time>
      </trkpt>
      <trkpt lat="43.61946" lon="1.65277">
        <ele>201.9</ele>
        <time>2021-08-19T10:21:46Z</time>
      </trkpt>
      <trkpt lat="43.61948" lon="1.65288">
        <ele>202</ele>
        <time>2021-08-19T10:21:51Z</time>
      </trkpt>
      <trkpt lat="43.61948" lon="1.653">
        <ele>202.9</ele>
        <time>2021-08-19T10:21:56Z</time>
      </trkpt>
      <trkpt lat="43.61947" lon="1.65312">
        <ele>203.2</ele>
        <time>2021-08-19T10:22:01Z</time>
      </trkpt>
      <trkpt lat="43.61946" lon="1.65325">
        <ele>204.1</ele>
        <time>2021-08-19T10:22:06Z</time>
      </trkpt>
      <trkpt lat="43.61943" lon="1.65337">
        <ele>204.4</ele>
        <time>2021-08-19T10:22:11Z</time>
      </trkpt>
      <trkpt lat="43.6194" lon="1.65349">
        <ele>204.6</ele>
        <time>2021-08-19T10:22:16Z</time>
      </trkpt>
      <trkpt lat="43.61936" lon="1.65363">
        <ele>205</ele>
        <time>2021-08-19T10:22:21Z</time>
      </trkpt>
      <trkpt lat="43.61932" lon="1.65379">
        <ele>206.1</ele>
        <time>2021-08-19T10:22:26Z</time>
      </trkpt>
      <trkpt lat="43.61926" lon="1.65397">
        <ele>205.8</ele>
        <time>2021-08-19T10:22:31Z</time>
      </trkpt>
      <trkpt lat="43.6192" lon="1.65419">
        <ele>205.6</ele>
        <time>2021-08-19T10:22:36Z</time>
      </trkpt>
      <trkpt lat="43.61914" lon="1.65444">
        <ele>205.5</ele>
        <time>2021-08-19T10:22:41Z</time>
      </trkpt>
      <trkpt lat="43.61907" lon="1.65474">
        <ele>205.5</ele>
        <time>2021-08-19T10:22:46Z</time>
      </trkpt>
      <trkpt lat="43.61902" lon="1.65517">
        <ele>202.8</ele>
        <time>2021-08-19T10:22:51Z</time>
      </trkpt>
      <trkpt lat="43.61896" lon="1.65569">
        <ele>201.7</ele>
        <time>2021-08-19T10:22:56Z</time>
      </trkpt>
      <trkpt lat="43.61889" lon="1.65622">
        <ele>200.6</ele>
        <time>2021-08-19T10:23:01Z</time>
      </trkpt>
      <trkpt lat="43.61874" lon="1.65674">
        <ele>198.3</ele>
        <time>2021-08-19T10:23:06Z</time>
      </trkpt>
      <trkpt lat="43.61854" lon="1.65722">
        <ele>197.5</ele>
        <time>2021-08-19T10:23:11Z</time>
      </trkpt>
      <trkpt lat="43.61835" lon="1.65768">
        <ele>196.7</ele>
        <time>2021-08-19T10:23:16Z</time>
      </trkpt>
      <trkpt lat="43.61828" lon="1.65818">
        <ele>195.6</ele>
        <time>2021-08-19T10:23:21Z</time>
      </trkpt>
      <trkpt lat="43.61828" lon="1.6587">
        <ele>193.6</ele>
        <time>2021-08-19T10:23:26Z</time>
      </trkpt>
      <trkpt lat="43.61824" lon="1.65922">
        <ele>192.5</ele>
        <time>2021-08-19T10:23:31Z</time>
      </trkpt>
      <trkpt lat="43.61821" lon="1.65974">
        <ele>191.3</ele>
        <time>2021-08-19T10:23:36Z</time>
      </trkpt>
      <trkpt lat="43.61821" lon="1.66024">
        <ele>190</ele>
        <time>2021-08-19T10:23:41Z</time>
      </trkpt>
      <trkpt lat="43.61819" lon="1.66074">
        <ele>189.5</ele>
        <time>2021-08-19T10:23:46Z</time>
      </trkpt>
      <trkpt lat="43.61816" lon="1.66124">
        <ele>188.2</ele>
        <time>2021-08-19T10:23:51Z</time>
      </trkpt>
      <trkpt lat="43.6182" lon="1.66176">
        <ele>186.9</ele>
        <time>2021-08-19T10:23:56Z</time>
      </trkpt>
      <trkpt lat="43.61846" lon="1.66207">
        <ele>187.4</ele>
        <time>2021-08-19T10:24:01Z</time>
      </trkpt>
      <trkpt lat="43.61873" lon="1.66225">
        <ele>189.1</ele>
        <time>2021-08-19T10:24:06Z</time>
      </trkpt>
      <trkpt lat="43.61894" lon="1.66238">
        <ele>190.1</ele>
        <time>2021-08-19T10:24:11Z</time>
      </trkpt>
      <trkpt lat="43.61911" lon="1.6625">
        <ele>190.6</ele>
        <time>2021-08-19T10:24:16Z</time>
      </trkpt>
      <trkpt lat="43.61927" lon="1.66262">
        <ele>191.1</ele>
        <time>2021-08-19T10:24:21Z</time>
      </trkpt>
      <trkpt lat="43.61941" lon="1.66272">
        <ele>190.9</ele>
        <time>2021-08-19T10:24:26Z</time>
      </trkpt>
      <trkpt lat="43.61953" lon="1.66286">
        <ele>191.5</ele>
        <time>2021-08-19T10:24:31Z</time>
      </trkpt>
      <trkpt lat="43.61964" lon="1.663">
        <ele>192.1</ele>
        <time>2021-08-19T10:24:36Z</time>
      </trkpt>
      <trkpt lat="43.61973" lon="1.66317">
        <ele>191.5</ele>
        <time>2021-08-19T10:24:41Z</time>
      </trkpt>
      <trkpt lat="43.61983" lon="1.66346">
        <ele>190.9</ele>
        <time>2021-08-19T10:24:46Z</time>
      </trkpt>
      <trkpt lat="43.61991" lon="1.6639">
        <ele>188.6</ele>
        <time>2021-08-19T10:24:51Z</time>
      </trkpt>
      <trkpt lat="43.61998" lon="1.66445">
        <ele>185.8</ele>
        <time>2021-08-19T10:24:56Z</time>
      </trkpt>
      <trkpt lat="43.61994" lon="1.66505">
        <ele>184.1</ele>
        <time>2021-08-19T10:25:01Z</time>
      </trkpt>
      <trkpt lat="43.61983" lon="1.66565">
        <ele>182.5</ele>
        <time>2021-08-19T10:25:06Z</time>
      </trkpt>
      <trkpt lat="43.61973" lon="1.66621">
        <ele>181.7</ele>
        <time>2021-08-19T10:25:11Z</time>
      </trkpt>
      <trkpt lat="43.61961" lon="1.66676">
        <ele>180</ele>
        <time>2021-08-19T10:25:16Z</time>
      </trkpt>
      <trkpt lat="43.61952" lon="1.66732">
        <ele>179.1</ele>
        <time>2021-08-19T10:25:21Z</time>
      </trkpt>
      <trkpt lat="43.61942" lon="1.66787">
        <ele>178.1</ele>
        <time>2021-08-19T10:25:26Z</time>
      </trkpt>
      <trkpt lat="43.61934" lon="1.66833">
        <ele>179.2</ele>
        <time>2021-08-19T10:25:31Z</time>
      </trkpt>
      <trkpt lat="43.61926" lon="1.66875">
        <ele>179.3</ele>
        <time>2021-08-19T10:25:36Z</time>
      </trkpt>
      <trkpt lat="43.61919" lon="1.66915">
        <ele>178.8</ele>
        <time>2021-08-19T10:25:41Z</time>
      </trkpt>
      <trkpt lat="43.61911" lon="1.66952">
        <ele>178.9</ele>
        <time>2021-08-19T10:25:46Z</time>
      </trkpt>
      <trkpt lat="43.61905" lon="1.66989">
        <ele>178.3</ele>
        <time>2021-08-19T10:25:51Z</time>
      </trkpt>
      <trkpt lat="43.61903" lon="1.67027">
        <ele>178.2</ele>
        <time>2021-08-19T10:25:56Z</time>
      </trkpt>
      <trkpt lat="43.61909" lon="1.67063">
        <ele>178</ele>
        <time>2021-08-19T10:26:01Z</time>
      </trkpt>
      <trkpt lat="43.61911" lon="1.67101">
        <ele>177.8</ele>
        <time>2021-08-19T10:26:06Z</time>
      </trkpt>
      <trkpt lat="43.61909" lon="1.67139">
        <ele>178.5</ele>
        <time>2021-08-19T10:26:11Z</time>
      </trkpt>
      <trkpt lat="43.61902" lon="1.67176">
        <ele>179.3</ele>
        <time>2021-08-19T10:26:16Z</time>
      </trkpt>
      <trkpt lat="43.61894" lon="1.67213">
        <ele>179.5</ele>
        <time>2021-08-19T10:26:21Z</time>
      </trkpt>
      <trkpt lat="43.61885" lon="1.67252">
        <ele>179.7</ele>
        <time>2021-08-19T10:26:26Z</time>
      </trkpt>
      <trkpt lat="43.61875" lon="1.67294">
        <ele>179.2</ele>
        <time>2021-08-19T10:26:31Z</time>
      </trkpt>
      <trkpt lat="43.61865" lon="1.67341">
        <ele>178.1</ele>
        <time>2021-08-19T10:26:36Z</time>
      </trkpt>
      <trkpt lat="43.61856" lon="1.67389">
        <ele>175.7</ele>
        <time>2021-08-19T10:26:41Z</time>
      </trkpt>
      <trkpt lat="43.61849" lon="1.67439">
        <ele>174.5</ele>
        <time>2021-08-19T10:26:46Z</time>
      </trkpt>
      <trkpt lat="43.61845" lon="1.67485">
        <ele>174</ele>
        <time>2021-08-19T10:26:51Z</time>
      </trkpt>
      <trkpt lat="43.61838" lon="1.67531">
        <ele>174.2</ele>
        <time>2021-08-19T10:26:56Z</time>
      </trkpt>
      <trkpt lat="43.61834" lon="1.67576">
        <ele>173.7</ele>
        <time>2021-08-19T10:27:01Z</time>
      </trkpt>
      <trkpt lat="43.61828" lon="1.67619">
        <ele>173.9</ele>
        <time>2021-08-19T10:27:06Z</time>
      </trkpt>
      <trkpt lat="43.61819" lon="1.67658">
        <ele>172.7</ele>
        <time>2021-08-19T10:27:11Z</time>
      </trkpt>
      <trkpt lat="43.6181" lon="1.677">
        <ele>172.9</ele>
        <time>2021-08-19T10:27:16Z</time>
      </trkpt>
      <trkpt lat="43.618" lon="1.6774">
        <ele>172.4</ele>
        <time>2021-08-19T10:27:21Z</time>
      </trkpt>
      <trkpt lat="43.61792" lon="1.6778">
        <ele>171.9</ele>
        <time>2021-08-19T10:27:26Z</time>
      </trkpt>
      <trkpt lat="43.61784" lon="1.67825">
        <ele>171.4</ele>
        <time>2021-08-19T10:27:31Z</time>
      </trkpt>
      <trkpt lat="43.61775" lon="1.67874">
        <ele>169.7</ele>
        <time>2021-08-19T10:27:36Z</time>
      </trkpt>
      <trkpt lat="43.61768" lon="1.67928">
        <ele>167.9</ele>
        <time>2021-08-19T10:27:41Z</time>
      </trkpt>
      <trkpt lat="43.61762" lon="1.67985">
        <ele>166.2</ele>
        <time>2021-08-19T10:27:46Z</time>
      </trkpt>
      <trkpt lat="43.61748" lon="1.68036">
        <ele>165.3</ele>
        <time>2021-08-19T10:27:51Z</time>
      </trkpt>
      <trkpt lat="43.6171" lon="1.68047">
        <ele>164.4</ele>
        <time>2021-08-19T10:27:56Z</time>
      </trkpt>
      <trkpt lat="43.61675" lon="1.68054">
        <ele>164.8</ele>
        <time>2021-08-19T10:28:01Z</time>
      </trkpt>
      <trkpt lat="43.61642" lon="1.68071">
        <ele>165.2</ele>
        <time>2021-08-19T10:28:06Z</time>
      </trkpt>
      <trkpt lat="43.61615" lon="1.68102">
        <ele>163.7</ele>
        <time>2021-08-19T10:28:11Z</time>
      </trkpt>
      <trkpt lat="43.61591" lon="1.68131">
        <ele>162.7</ele>
        <time>2021-08-19T10:28:16Z</time>
      </trkpt>
      <trkpt lat="43.61568" lon="1.68154">
        <ele>163</ele>
        <time>2021-08-19T10:28:21Z</time>
      </trkpt>
      <trkpt lat="43.6155" lon="1.68174">
        <ele>163.1</ele>
        <time>2021-08-19T10:28:26Z</time>
      </trkpt>
      <trkpt lat="43.61552" lon="1.68203">
        <ele>163.5</ele>
        <time>2021-08-19T10:28:31Z</time>
      </trkpt>
      <trkpt lat="43.61572" lon="1.68217">
        <ele>164.6</ele>
        <time>2021-08-19T10:28:36Z</time>
      </trkpt>
      <trkpt lat="43.61588" lon="1.68228">
        <ele>166.5</ele>
        <time>2021-08-19T10:28:41Z</time>
      </trkpt>
      <trkpt lat="43.61601" lon="1.68245">
        <ele>167.8</ele>
        <time>2021-08-19T10:28:46Z</time>
      </trkpt>
      <trkpt lat="43.61614" lon="1.68262">
        <ele>169.2</ele>
        <time>2021-08-19T10:28:51Z</time>
      </trkpt>
      <trkpt lat="43.61616" lon="1.68286">
        <ele>170.3</ele>
        <time>2021-08-19T10:28:56Z</time>
      </trkpt>
      <trkpt lat="43.61605" lon="1.68299">
        <ele>172.2</ele>
        <time>2021-08-19T10:29:01Z</time>
      </trkpt>
      <trkpt lat="43.61594" lon="1.68308">
        <ele>171.9</ele>
        <time>2021-08-19T10:29:06Z</time>
      </trkpt>
      <trkpt lat="43.61585" lon="1.68316">
        <ele>173</ele>
        <time>2021-08-19T10:29:11Z</time>
      </trkpt>
      <trkpt lat="43.61576" lon="1.68324">
        <ele>173.4</ele>
        <time>2021-08-19T10:29:16Z</time>
      </trkpt>
      <trkpt lat="43.61565" lon="1.68333">
        <ele>174.6</ele>
        <time>2021-08-19T10:29:21Z</time>
      </trkpt>
      <trkpt lat="43.61554" lon="1.68342">
        <ele>175</ele>
        <time>2021-08-19T10:29:26Z</time>
      </trkpt>
      <trkpt lat="43.61543" lon="1.68353">
        <ele>175.5</ele>
        <time>2021-08-19T10:29:31Z</time>
      </trkpt>
      <trkpt lat="43.61533" lon="1.68364">
        <ele>175.2</ele>
        <time>2021-08-19T10:29:36Z</time>
      </trkpt>
      <trkpt lat="43.61523" lon="1.68375">
        <ele>175.7</ele>
        <time>2021-08-19T10:29:41Z</time>
      </trkpt>
      <trkpt lat="43.61512" lon="1.68386">
        <ele>175.5</ele>
        <time>2021-08-19T10:29:46Z</time>
      </trkpt>
      <trkpt lat="43.615" lon="1.68395">
        <ele>175.9</ele>
        <time>2021-08-19T10:29:51Z</time>
      </trkpt>
      <trkpt lat="43.61489" lon="1.68405">
        <ele>175.7</ele>
        <time>2021-08-19T10:29:56Z</time>
      </trkpt>
      <trkpt lat="43.61475" lon="1.68416">
        <ele>176.3</ele>
        <time>2021-08-19T10:30:01Z</time>
      </trkpt>
      <trkpt lat="43.61456" lon="1.68424">
        <ele>175.5</ele>
        <time>2021-08-19T10:30:06Z</time>
      </trkpt>
      <trkpt lat="43.61432" lon="1.68418">
        <ele>175.3</ele>
        <time>2021-08-19T10:30:11Z</time>
      </trkpt>
      <trkpt lat="43.61409" lon="1.68406">
        <ele>176.5</ele>
        <time>2021-08-19T10:30:16Z</time>
      </trkpt>
      <trkpt lat="43.61385" lon="1.68405">
        <ele>176.4</ele>
        <time>2021-08-19T10:30:21Z</time>
      </trkpt>
      <trkpt lat="43.61364" lon="1.68413">
        <ele>177.1</ele>
        <time>2021-08-19T10:30:26Z</time>
      </trkpt>
      <trkpt lat="43.61344" lon="1.68421">
        <ele>177.8</ele>
        <time>2021-08-19T10:30:31Z</time>
      </trkpt>
      <trkpt lat="43.61329" lon="1.68429">
        <ele>179.7</ele>
        <time>2021-08-19T10:30:36Z</time>
      </trkpt>
      <trkpt lat="43.61315" lon="1.68436">
        <ele>180.2</ele>
        <time>2021-08-19T10:30:41Z</time>
      </trkpt>
      <trkpt lat="43.61302" lon="1.68443">
        <ele>180.7</ele>
        <time>2021-08-19T10:30:46Z</time>
      </trkpt>
      <trkpt lat="43.61289" lon="1.68453">
        <ele>181.2</ele>
        <time>2021-08-19T10:30:51Z</time>
      </trkpt>
      <trkpt lat="43.61277" lon="1.68463">
        <ele>181</ele>
        <time>2021-08-19T10:30:56Z</time>
      </trkpt>
      <trkpt lat="43.61265" lon="1.68473">
        <ele>180.8</ele>
        <time>2021-08-19T10:31:01Z</time>
      </trkpt>
      <trkpt lat="43.61253" lon="1.68485">
        <ele>181.3</ele>
        <time>2021-08-19T10:31:06Z</time>
      </trkpt>
      <trkpt lat="43.61241" lon="1.68496">
        <ele>181.8</ele>
        <time>2021-08-19T10:31:11Z</time>
      </trkpt>
      <trkpt lat="43.61227" lon="1.68509">
        <ele>182.4</ele>
        <time>2021-08-19T10:31:16Z</time>
      </trkpt>
      <trkpt lat="43.61212" lon="1.68524">
        <ele>182.4</ele>
        <time>2021-08-19T10:31:21Z</time>
      </trkpt>
      <trkpt lat="43.61197" lon="1.68538">
        <ele>183</ele>
        <time>2021-08-19T10:31:26Z</time>
      </trkpt>
      <trkpt lat="43.61183" lon="1.68554">
        <ele>183.7</ele>
        <time>2021-08-19T10:31:31Z</time>
      </trkpt>
      <trkpt lat="43.61168" lon="1.68568">
        <ele>184.3</ele>
        <time>2021-08-19T10:31:36Z</time>
      </trkpt>
      <trkpt lat="43.61154" lon="1.68583">
        <ele>184.2</ele>
        <time>2021-08-19T10:31:41Z</time>
      </trkpt>
      <trkpt lat="43.61139" lon="1.68597">
        <ele>184.9</ele>
        <time>2021-08-19T10:31:46Z</time>
      </trkpt>
      <trkpt lat="43.61124" lon="1.68611">
        <ele>184.8</ele>
        <time>2021-08-19T10:31:51Z</time>
      </trkpt>
      <trkpt lat="43.61108" lon="1.68628">
        <ele>186.2</ele>
        <time>2021-08-19T10:31:56Z</time>
      </trkpt>
      <trkpt lat="43.61094" lon="1.68648">
        <ele>187</ele>
        <time>2021-08-19T10:32:01Z</time>
      </trkpt>
      <trkpt lat="43.61082" lon="1.68667">
        <ele>186.9</ele>
        <time>2021-08-19T10:32:06Z</time>
      </trkpt>
      <trkpt lat="43.6107" lon="1.68688">
        <ele>187.6</ele>
        <time>2021-08-19T10:32:11Z</time>
      </trkpt>
      <trkpt lat="43.6106" lon="1.68707">
        <ele>188.9</ele>
        <time>2021-08-19T10:32:16Z</time>
      </trkpt>
      <trkpt lat="43.6105" lon="1.68728">
        <ele>189.5</ele>
        <time>2021-08-19T10:32:21Z</time>
      </trkpt>
      <trkpt lat="43.61039" lon="1.68748">
        <ele>188.7</ele>
        <time>2021-08-19T10:32:26Z</time>
      </trkpt>
      <trkpt lat="43.61028" lon="1.68766">
        <ele>190</ele>
        <time>2021-08-19T10:32:31Z</time>
      </trkpt>
      <trkpt lat="43.61018" lon="1.68784">
        <ele>189.9</ele>
        <time>2021-08-19T10:32:36Z</time>
      </trkpt>
      <trkpt lat="43.61007" lon="1.68801">
        <ele>191.2</ele>
        <time>2021-08-19T10:32:41Z</time>
      </trkpt>
      <trkpt lat="43.60997" lon="1.68818">
        <ele>191.8</ele>
        <time>2021-08-19T10:32:46Z</time>
      </trkpt>
      <trkpt lat="43.60986" lon="1.68834">
        <ele>192.3</ele>
        <time>2021-08-19T10:32:51Z</time>
      </trkpt>
      <trkpt lat="43.60977" lon="1.6885">
        <ele>192.8</ele>
        <time>2021-08-19T10:32:56Z</time>
      </trkpt>
      <trkpt lat="43.60968" lon="1.68866">
        <ele>193.3</ele>
        <time>2021-08-19T10:33:01Z</time>
      </trkpt>
      <trkpt lat="43.60959" lon="1.68884">
        <ele>194.6</ele>
        <time>2021-08-19T10:33:06Z</time>
      </trkpt>
      <trkpt lat="43.60951" lon="1.68899">
        <ele>194.4</ele>
        <time>2021-08-19T10:33:11Z</time>
      </trkpt>
      <trkpt lat="43.60942" lon="1.68915">
        <ele>195.6</ele>
        <time>2021-08-19T10:33:16Z</time>
      </trkpt>
      <trkpt lat="43.60936" lon="1.68929">
        <ele>196</ele>
        <time>2021-08-19T10:33:21Z</time>
      </trkpt>
      <trkpt lat="43.60929" lon="1.68944">
        <ele>197.1</ele>
        <time>2021-08-19T10:33:26Z</time>
      </trkpt>
      <trkpt lat="43.60921" lon="1.68957">
        <ele>197.6</ele>
        <time>2021-08-19T10:33:31Z</time>
      </trkpt>
      <trkpt lat="43.60913" lon="1.6897">
        <ele>198</ele>
        <time>2021-08-19T10:33:36Z</time>
      </trkpt>
      <trkpt lat="43.60906" lon="1.68983">
        <ele>199.1</ele>
        <time>2021-08-19T10:33:41Z</time>
      </trkpt>
      <trkpt lat="43.60897" lon="1.68995">
        <ele>198.9</ele>
        <time>2021-08-19T10:33:46Z</time>
      </trkpt>
      <trkpt lat="43.60889" lon="1.69007">
        <ele>200</ele>
        <time>2021-08-19T10:33:51Z</time>
      </trkpt>
      <trkpt lat="43.6088" lon="1.69021">
        <ele>199.7</ele>
        <time>2021-08-19T10:33:56Z</time>
      </trkpt>
      <trkpt lat="43.60871" lon="1.69034">
        <ele>199.5</ele>
        <time>2021-08-19T10:34:01Z</time>
      </trkpt>
      <trkpt lat="43.6086" lon="1.69049">
        <ele>199.4</ele>
        <time>2021-08-19T10:34:06Z</time>
      </trkpt>
      <trkpt lat="43.60849" lon="1.69063">
        <ele>199.9</ele>
        <time>2021-08-19T10:34:11Z</time>
      </trkpt>
      <trkpt lat="43.60838" lon="1.6908">
        <ele>200.5</ele>
        <time>2021-08-19T10:34:16Z</time>
      </trkpt>
      <trkpt lat="43.60825" lon="1.69096">
        <ele>200.4</ele>
        <time>2021-08-19T10:34:21Z</time>
      </trkpt>
      <trkpt lat="43.60814" lon="1.69112">
        <ele>201</ele>
        <time>2021-08-19T10:34:26Z</time>
      </trkpt>
      <trkpt lat="43.60802" lon="1.69126">
        <ele>202.2</ele>
        <time>2021-08-19T10:34:31Z</time>
      </trkpt>
      <trkpt lat="43.60794" lon="1.69138">
        <ele>202</ele>
        <time>2021-08-19T10:34:36Z</time>
      </trkpt>
      <trkpt lat="43.60785" lon="1.6915">
        <ele>203.8</ele>
        <time>2021-08-19T10:34:41Z</time>
      </trkpt>
      <trkpt lat="43.60777" lon="1.69163">
        <ele>205</ele>
        <time>2021-08-19T10:34:46Z</time>
      </trkpt>
      <trkpt lat="43.60767" lon="1.69173">
        <ele>205.4</ele>
        <time>2021-08-19T10:34:51Z</time>
      </trkpt>
      <trkpt lat="43.6076" lon="1.69184">
        <ele>205.8</ele>
        <time>2021-08-19T10:34:56Z</time>
      </trkpt>
      <trkpt lat="43.60751" lon="1.69195">
        <ele>206.2</ele>
        <time>2021-08-19T10:35:01Z</time>
      </trkpt>
      <trkpt lat="43.60741" lon="1.69209">
        <ele>206.7</ele>
        <time>2021-08-19T10:35:06Z</time>
      </trkpt>
      <trkpt lat="43.60731" lon="1.69222">
        <ele>207.2</ele>
        <time>2021-08-19T10:35:11Z</time>
      </trkpt>
      <trkpt lat="43.6072" lon="1.69238">
        <ele>208.5</ele>
        <time>2021-08-19T10:35:16Z</time>
      </trkpt>
      <trkpt lat="43.60708" lon="1.69255">
        <ele>209.1</ele>
        <time>2021-08-19T10:35:21Z</time>
      </trkpt>
      <trkpt lat="43.60696" lon="1.69269">
        <ele>210.4</ele>
        <time>2021-08-19T10:35:26Z</time>
      </trkpt>
      <trkpt lat="43.60685" lon="1.69285">
        <ele>210.2</ele>
        <time>2021-08-19T10:35:31Z</time>
      </trkpt>
      <trkpt lat="43.60674" lon="1.693">
        <ele>211.5</ele>
        <time>2021-08-19T10:35:36Z</time>
      </trkpt>
      <trkpt lat="43.60664" lon="1.69314">
        <ele>212</ele>
        <time>2021-08-19T10:35:41Z</time>
      </trkpt>
      <trkpt lat="43.60652" lon="1.69327">
        <ele>212.6</ele>
        <time>2021-08-19T10:35:46Z</time>
      </trkpt>
      <trkpt lat="43.6064" lon="1.69339">
        <ele>212.4</ele>
        <time>2021-08-19T10:35:51Z</time>
      </trkpt>
      <trkpt lat="43.60629" lon="1.69352">
        <ele>213.6</ele>
        <time>2021-08-19T10:35:56Z</time>
      </trkpt>
      <trkpt lat="43.60616" lon="1.69364">
        <ele>214.2</ele>
        <time>2021-08-19T10:36:01Z</time>
      </trkpt>
      <trkpt lat="43.60604" lon="1.69376">
        <ele>214.7</ele>
        <time>2021-08-19T10:36:06Z</time>
      </trkpt>
      <trkpt lat="43.60593" lon="1.69388">
        <ele>215.9</ele>
        <time>2021-08-19T10:36:11Z</time>
      </trkpt>
      <trkpt lat="43.60583" lon="1.69399">
        <ele>215.6</ele>
        <time>2021-08-19T10:36:16Z</time>
      </trkpt>
      <trkpt lat="43.60575" lon="1.69411">
        <ele>216.8</ele>
        <time>2021-08-19T10:36:21Z</time>
      </trkpt>
      <trkpt lat="43.60567" lon="1.69422">
        <ele>216.5</ele>
        <time>2021-08-19T10:36:26Z</time>
      </trkpt>
      <trkpt lat="43.60557" lon="1.69434">
        <ele>216.9</ele>
        <time>2021-08-19T10:36:31Z</time>
      </trkpt>
      <trkpt lat="43.6055" lon="1.69446">
        <ele>217.4</ele>
        <time>2021-08-19T10:36:36Z</time>
      </trkpt>
      <trkpt lat="43.60541" lon="1.69459">
        <ele>217.8</ele>
        <time>2021-08-19T10:36:41Z</time>
      </trkpt>
      <trkpt lat="43.60531" lon="1.69471">
        <ele>218.3</ele>
        <time>2021-08-19T10:36:46Z</time>
      </trkpt>
      <trkpt lat="43.60524" lon="1.69485">
        <ele>218.7</ele>
        <time>2021-08-19T10:36:51Z</time>
      </trkpt>
      <trkpt lat="43.60514" lon="1.69499">
        <ele>219.2</ele>
        <time>2021-08-19T10:36:56Z</time>
      </trkpt>
      <trkpt lat="43.60505" lon="1.69513">
        <ele>219.7</ele>
        <time>2021-08-19T10:37:01Z</time>
      </trkpt>
      <trkpt lat="43.60496" lon="1.69527">
        <ele>220.2</ele>
        <time>2021-08-19T10:37:06Z</time>
      </trkpt>
      <trkpt lat="43.60488" lon="1.69539">
        <ele>219.9</ele>
        <time>2021-08-19T10:37:11Z</time>
      </trkpt>
      <trkpt lat="43.60479" lon="1.69554">
        <ele>221.1</ele>
        <time>2021-08-19T10:37:16Z</time>
      </trkpt>
      <trkpt lat="43.60469" lon="1.6957">
        <ele>221.7</ele>
        <time>2021-08-19T10:37:22Z</time>
      </trkpt>
      <trkpt lat="43.60459" lon="1.69583">
        <ele>222.2</ele>
        <time>2021-08-19T10:37:27Z</time>
      </trkpt>
      <trkpt lat="43.60447" lon="1.69598">
        <ele>222</ele>
        <time>2021-08-19T10:37:32Z</time>
      </trkpt>
      <trkpt lat="43.60435" lon="1.69611">
        <ele>221.9</ele>
        <time>2021-08-19T10:37:37Z</time>
      </trkpt>
      <trkpt lat="43.60423" lon="1.69624">
        <ele>221.7</ele>
        <time>2021-08-19T10:37:42Z</time>
      </trkpt>
      <trkpt lat="43.6041" lon="1.69636">
        <ele>222.3</ele>
        <time>2021-08-19T10:37:47Z</time>
      </trkpt>
      <trkpt lat="43.60397" lon="1.69648">
        <ele>222.8</ele>
        <time>2021-08-19T10:37:52Z</time>
      </trkpt>
      <trkpt lat="43.60384" lon="1.69659">
        <ele>222.7</ele>
        <time>2021-08-19T10:37:57Z</time>
      </trkpt>
      <trkpt lat="43.60369" lon="1.69669">
        <ele>222.5</ele>
        <time>2021-08-19T10:38:02Z</time>
      </trkpt>
      <trkpt lat="43.60352" lon="1.69678">
        <ele>223.1</ele>
        <time>2021-08-19T10:38:07Z</time>
      </trkpt>
      <trkpt lat="43.60337" lon="1.69685">
        <ele>223.7</ele>
        <time>2021-08-19T10:38:12Z</time>
      </trkpt>
      <trkpt lat="43.60322" lon="1.69693">
        <ele>223.5</ele>
        <time>2021-08-19T10:38:17Z</time>
      </trkpt>
      <trkpt lat="43.60307" lon="1.697">
        <ele>224.7</ele>
        <time>2021-08-19T10:38:22Z</time>
      </trkpt>
      <trkpt lat="43.60293" lon="1.69707">
        <ele>225.2</ele>
        <time>2021-08-19T10:38:27Z</time>
      </trkpt>
      <trkpt lat="43.60281" lon="1.69719">
        <ele>225.1</ele>
        <time>2021-08-19T10:38:32Z</time>
      </trkpt>
      <trkpt lat="43.6027" lon="1.69733">
        <ele>225.6</ele>
        <time>2021-08-19T10:38:37Z</time>
      </trkpt>
      <trkpt lat="43.60261" lon="1.69749">
        <ele>226.1</ele>
        <time>2021-08-19T10:38:42Z</time>
      </trkpt>
      <trkpt lat="43.60253" lon="1.69766">
        <ele>226.6</ele>
        <time>2021-08-19T10:38:47Z</time>
      </trkpt>
      <trkpt lat="43.60244" lon="1.69784">
        <ele>226.5</ele>
        <time>2021-08-19T10:38:52Z</time>
      </trkpt>
      <trkpt lat="43.60232" lon="1.69805">
        <ele>226.4</ele>
        <time>2021-08-19T10:38:57Z</time>
      </trkpt>
      <trkpt lat="43.60221" lon="1.69828">
        <ele>226.4</ele>
        <time>2021-08-19T10:39:02Z</time>
      </trkpt>
      <trkpt lat="43.6021" lon="1.6985">
        <ele>226.4</ele>
        <time>2021-08-19T10:39:07Z</time>
      </trkpt>
      <trkpt lat="43.602" lon="1.69871">
        <ele>225.6</ele>
        <time>2021-08-19T10:39:12Z</time>
      </trkpt>
      <trkpt lat="43.60189" lon="1.69891">
        <ele>226.3</ele>
        <time>2021-08-19T10:39:17Z</time>
      </trkpt>
      <trkpt lat="43.60179" lon="1.69912">
        <ele>226.2</ele>
        <time>2021-08-19T10:39:22Z</time>
      </trkpt>
      <trkpt lat="43.60169" lon="1.69931">
        <ele>226.8</ele>
        <time>2021-08-19T10:39:27Z</time>
      </trkpt>
      <trkpt lat="43.6016" lon="1.6995">
        <ele>227.3</ele>
        <time>2021-08-19T10:39:32Z</time>
      </trkpt>
      <trkpt lat="43.6015" lon="1.69968">
        <ele>227.9</ele>
        <time>2021-08-19T10:39:37Z</time>
      </trkpt>
      <trkpt lat="43.60142" lon="1.69984">
        <ele>229.1</ele>
        <time>2021-08-19T10:39:42Z</time>
      </trkpt>
      <trkpt lat="43.60133" lon="1.7">
        <ele>228.9</ele>
        <time>2021-08-19T10:39:47Z</time>
      </trkpt>
      <trkpt lat="43.60125" lon="1.70016">
        <ele>229.4</ele>
        <time>2021-08-19T10:39:52Z</time>
      </trkpt>
      <trkpt lat="43.60118" lon="1.70032">
        <ele>229.9</ele>
        <time>2021-08-19T10:39:57Z</time>
      </trkpt>
      <trkpt lat="43.6011" lon="1.70046">
        <ele>230.3</ele>
        <time>2021-08-19T10:40:02Z</time>
      </trkpt>
      <trkpt lat="43.60102" lon="1.70064">
        <ele>230.9</ele>
        <time>2021-08-19T10:40:07Z</time>
      </trkpt>
      <trkpt lat="43.60094" lon="1.70079">
        <ele>231.3</ele>
        <time>2021-08-19T10:40:12Z</time>
      </trkpt>
      <trkpt lat="43.60085" lon="1.70095">
        <ele>232.5</ele>
        <time>2021-08-19T10:40:17Z</time>
      </trkpt>
      <trkpt lat="43.60077" lon="1.70111">
        <ele>232.3</ele>
        <time>2021-08-19T10:40:22Z</time>
      </trkpt>
      <trkpt lat="43.60068" lon="1.70126">
        <ele>232.1</ele>
        <time>2021-08-19T10:40:27Z</time>
      </trkpt>
      <trkpt lat="43.60059" lon="1.70142">
        <ele>232.6</ele>
        <time>2021-08-19T10:40:32Z</time>
      </trkpt>
      <trkpt lat="43.6005" lon="1.70157">
        <ele>233.2</ele>
        <time>2021-08-19T10:40:37Z</time>
      </trkpt>
      <trkpt lat="43.60041" lon="1.70172">
        <ele>233.6</ele>
        <time>2021-08-19T10:40:42Z</time>
      </trkpt>
      <trkpt lat="43.60032" lon="1.70188">
        <ele>234.2</ele>
        <time>2021-08-19T10:40:47Z</time>
      </trkpt>
      <trkpt lat="43.60023" lon="1.70202">
        <ele>234.7</ele>
        <time>2021-08-19T10:40:52Z</time>
      </trkpt>
      <trkpt lat="43.60014" lon="1.70217">
        <ele>235.2</ele>
        <time>2021-08-19T10:40:57Z</time>
      </trkpt>
      <trkpt lat="43.60005" lon="1.70232">
        <ele>236.4</ele>
        <time>2021-08-19T10:41:02Z</time>
      </trkpt>
      <trkpt lat="43.59995" lon="1.70247">
        <ele>236.9</ele>
        <time>2021-08-19T10:41:07Z</time>
      </trkpt>
      <trkpt lat="43.59988" lon="1.7026">
        <ele>238</ele>
        <time>2021-08-19T10:41:12Z</time>
      </trkpt>
      <trkpt lat="43.59981" lon="1.70271">
        <ele>238.4</ele>
        <time>2021-08-19T10:41:17Z</time>
      </trkpt>
      <trkpt lat="43.59975" lon="1.7028">
        <ele>238.7</ele>
        <time>2021-08-19T10:41:22Z</time>
      </trkpt>
      <trkpt lat="43.59968" lon="1.7029">
        <ele>239.1</ele>
        <time>2021-08-19T10:41:27Z</time>
      </trkpt>
      <trkpt lat="43.59962" lon="1.70301">
        <ele>240.1</ele>
        <time>2021-08-19T10:41:32Z</time>
      </trkpt>
      <trkpt lat="43.59955" lon="1.70312">
        <ele>239.8</ele>
        <time>2021-08-19T10:41:37Z</time>
      </trkpt>
      <trkpt lat="43.59948" lon="1.70323">
        <ele>240.2</ele>
        <time>2021-08-19T10:41:42Z</time>
      </trkpt>
      <trkpt lat="43.59942" lon="1.70334">
        <ele>240.5</ele>
        <time>2021-08-19T10:41:47Z</time>
      </trkpt>
      <trkpt lat="43.59935" lon="1.70345">
        <ele>241.6</ele>
        <time>2021-08-19T10:41:52Z</time>
      </trkpt>
      <trkpt lat="43.59929" lon="1.70357">
        <ele>242.7</ele>
        <time>2021-08-19T10:41:57Z</time>
      </trkpt>
      <trkpt lat="43.59921" lon="1.70368">
        <ele>243.1</ele>
        <time>2021-08-19T10:42:02Z</time>
      </trkpt>
      <trkpt lat="43.59915" lon="1.7038">
        <ele>243.5</ele>
        <time>2021-08-19T10:42:07Z</time>
      </trkpt>
      <trkpt lat="43.59908" lon="1.70391">
        <ele>243.8</ele>
        <time>2021-08-19T10:42:12Z</time>
      </trkpt>
      <trkpt lat="43.59901" lon="1.70404">
        <ele>245</ele>
        <time>2021-08-19T10:42:17Z</time>
      </trkpt>
      <trkpt lat="43.59894" lon="1.70418">
        <ele>245.4</ele>
        <time>2021-08-19T10:42:22Z</time>
      </trkpt>
      <trkpt lat="43.59886" lon="1.70436">
        <ele>244.5</ele>
        <time>2021-08-19T10:42:27Z</time>
      </trkpt>
      <trkpt lat="43.59875" lon="1.70467">
        <ele>243.2</ele>
        <time>2021-08-19T10:42:32Z</time>
      </trkpt>
      <trkpt lat="43.59858" lon="1.70515">
        <ele>239.5</ele>
        <time>2021-08-19T10:42:37Z</time>
      </trkpt>
      <trkpt lat="43.59841" lon="1.7058">
        <ele>234.7</ele>
        <time>2021-08-19T10:42:42Z</time>
      </trkpt>
      <trkpt lat="43.5983" lon="1.70662">
        <ele>230.1</ele>
        <time>2021-08-19T10:42:47Z</time>
      </trkpt>
      <trkpt lat="43.59841" lon="1.70746">
        <ele>224.8</ele>
        <time>2021-08-19T10:42:52Z</time>
      </trkpt>
      <trkpt lat="43.59847" lon="1.7082">
        <ele>220.3</ele>
        <time>2021-08-19T10:42:57Z</time>
      </trkpt>
      <trkpt lat="43.59837" lon="1.70883">
        <ele>220.9</ele>
        <time>2021-08-19T10:43:02Z</time>
      </trkpt>
      <trkpt lat="43.59832" lon="1.70926">
        <ele>222.5</ele>
        <time>2021-08-19T10:43:07Z</time>
      </trkpt>
      <trkpt lat="43.59828" lon="1.70952">
        <ele>223.7</ele>
        <time>2021-08-19T10:43:12Z</time>
      </trkpt>
      <trkpt lat="43.59827" lon="1.7097">
        <ele>224.1</ele>
        <time>2021-08-19T10:43:17Z</time>
      </trkpt>
      <trkpt lat="43.59822" lon="1.70986">
        <ele>225.2</ele>
        <time>2021-08-19T10:43:22Z</time>
      </trkpt>
      <trkpt lat="43.5982" lon="1.71002">
        <ele>226.2</ele>
        <time>2021-08-19T10:43:27Z</time>
      </trkpt>
      <trkpt lat="43.59818" lon="1.7102">
        <ele>227.3</ele>
        <time>2021-08-19T10:43:32Z</time>
      </trkpt>
      <trkpt lat="43.59814" lon="1.71037">
        <ele>228.4</ele>
        <time>2021-08-19T10:43:37Z</time>
      </trkpt>
      <trkpt lat="43.59812" lon="1.71053">
        <ele>229.4</ele>
        <time>2021-08-19T10:43:42Z</time>
      </trkpt>
      <trkpt lat="43.59809" lon="1.71068">
        <ele>231.2</ele>
        <time>2021-08-19T10:43:47Z</time>
      </trkpt>
      <trkpt lat="43.59808" lon="1.71081">
        <ele>232.9</ele>
        <time>2021-08-19T10:43:52Z</time>
      </trkpt>
      <trkpt lat="43.59805" lon="1.71093">
        <ele>233.1</ele>
        <time>2021-08-19T10:43:57Z</time>
      </trkpt>
      <trkpt lat="43.59804" lon="1.71106">
        <ele>234.1</ele>
        <time>2021-08-19T10:44:02Z</time>
      </trkpt>
      <trkpt lat="43.59802" lon="1.71118">
        <ele>234.4</ele>
        <time>2021-08-19T10:44:07Z</time>
      </trkpt>
      <trkpt lat="43.59797" lon="1.7113">
        <ele>234</ele>
        <time>2021-08-19T10:44:12Z</time>
      </trkpt>
      <trkpt lat="43.59794" lon="1.71144">
        <ele>233.6</ele>
        <time>2021-08-19T10:44:17Z</time>
      </trkpt>
      <trkpt lat="43.59804" lon="1.7115">
        <ele>234.1</ele>
        <time>2021-08-19T10:44:22Z</time>
      </trkpt>
      <trkpt lat="43.59821" lon="1.71157">
        <ele>233.8</ele>
        <time>2021-08-19T10:44:27Z</time>
      </trkpt>
      <trkpt lat="43.59842" lon="1.71175">
        <ele>233.5</ele>
        <time>2021-08-19T10:44:32Z</time>
      </trkpt>
      <trkpt lat="43.59869" lon="1.71197">
        <ele>231.8</ele>
        <time>2021-08-19T10:44:37Z</time>
      </trkpt>
      <trkpt lat="43.59899" lon="1.71225">
        <ele>230.7</ele>
        <time>2021-08-19T10:44:42Z</time>
      </trkpt>
      <trkpt lat="43.59935" lon="1.71256">
        <ele>226.7</ele>
        <time>2021-08-19T10:44:47Z</time>
      </trkpt>
      <trkpt lat="43.59949" lon="1.71289">
        <ele>224.7</ele>
        <time>2021-08-19T10:44:52Z</time>
      </trkpt>
      <trkpt lat="43.59935" lon="1.71319">
        <ele>224.9</ele>
        <time>2021-08-19T10:44:57Z</time>
      </trkpt>
      <trkpt lat="43.59921" lon="1.71345">
        <ele>224.4</ele>
        <time>2021-08-19T10:45:02Z</time>
      </trkpt>
      <trkpt lat="43.59908" lon="1.71365">
        <ele>225.1</ele>
        <time>2021-08-19T10:45:07Z</time>
      </trkpt>
      <trkpt lat="43.59896" lon="1.71382">
        <ele>225.7</ele>
        <time>2021-08-19T10:45:12Z</time>
      </trkpt>
      <trkpt lat="43.59883" lon="1.71401">
        <ele>225.7</ele>
        <time>2021-08-19T10:45:17Z</time>
      </trkpt>
      <trkpt lat="43.59866" lon="1.71419">
        <ele>225.7</ele>
        <time>2021-08-19T10:45:22Z</time>
      </trkpt>
      <trkpt lat="43.59846" lon="1.71437">
        <ele>225.9</ele>
        <time>2021-08-19T10:45:27Z</time>
      </trkpt>
      <trkpt lat="43.59824" lon="1.71453">
        <ele>225.3</ele>
        <time>2021-08-19T10:45:32Z</time>
      </trkpt>
      <trkpt lat="43.59802" lon="1.71471">
        <ele>224.8</ele>
        <time>2021-08-19T10:45:37Z</time>
      </trkpt>
      <trkpt lat="43.59781" lon="1.71486">
        <ele>224.9</ele>
        <time>2021-08-19T10:45:42Z</time>
      </trkpt>
      <trkpt lat="43.59764" lon="1.71504">
        <ele>225.7</ele>
        <time>2021-08-19T10:45:47Z</time>
      </trkpt>
      <trkpt lat="43.59752" lon="1.71526">
        <ele>225.7</ele>
        <time>2021-08-19T10:45:52Z</time>
      </trkpt>
      <trkpt lat="43.59743" lon="1.71551">
        <ele>226.4</ele>
        <time>2021-08-19T10:45:57Z</time>
      </trkpt>
      <trkpt lat="43.59736" lon="1.71574">
        <ele>227</ele>
        <time>2021-08-19T10:46:02Z</time>
      </trkpt>
      <trkpt lat="43.59728" lon="1.71596">
        <ele>227.6</ele>
        <time>2021-08-19T10:46:07Z</time>
      </trkpt>
      <trkpt lat="43.59723" lon="1.71618">
        <ele>228.8</ele>
        <time>2021-08-19T10:46:12Z</time>
      </trkpt>
      <trkpt lat="43.59726" lon="1.71641">
        <ele>228.4</ele>
        <time>2021-08-19T10:46:17Z</time>
      </trkpt>
      <trkpt lat="43.59733" lon="1.71664">
        <ele>227.2</ele>
        <time>2021-08-19T10:46:22Z</time>
      </trkpt>
      <trkpt lat="43.59745" lon="1.71684">
        <ele>227.2</ele>
        <time>2021-08-19T10:46:27Z</time>
      </trkpt>
      <trkpt lat="43.59756" lon="1.71702">
        <ele>227.2</ele>
        <time>2021-08-19T10:46:32Z</time>
      </trkpt>
      <trkpt lat="43.59767" lon="1.71716">
        <ele>227.1</ele>
        <time>2021-08-19T10:46:37Z</time>
      </trkpt>
      <trkpt lat="43.59778" lon="1.71728">
        <ele>227.8</ele>
        <time>2021-08-19T10:46:42Z</time>
      </trkpt>
      <trkpt lat="43.59787" lon="1.7174">
        <ele>228.4</ele>
        <time>2021-08-19T10:46:47Z</time>
      </trkpt>
      <trkpt lat="43.59796" lon="1.7175">
        <ele>229</ele>
        <time>2021-08-19T10:46:52Z</time>
      </trkpt>
      <trkpt lat="43.59805" lon="1.7176">
        <ele>229.7</ele>
        <time>2021-08-19T10:46:57Z</time>
      </trkpt>
      <trkpt lat="43.59811" lon="1.71769">
        <ele>230.4</ele>
        <time>2021-08-19T10:47:02Z</time>
      </trkpt>
      <trkpt lat="43.59819" lon="1.71778">
        <ele>231.7</ele>
        <time>2021-08-19T10:47:07Z</time>
      </trkpt>
      <trkpt lat="43.59825" lon="1.71787">
        <ele>231.7</ele>
        <time>2021-08-19T10:47:12Z</time>
      </trkpt>
      <trkpt lat="43.59832" lon="1.71799">
        <ele>232.4</ele>
        <time>2021-08-19T10:47:17Z</time>
      </trkpt>
      <trkpt lat="43.59841" lon="1.71813">
        <ele>232.4</ele>
        <time>2021-08-19T10:47:22Z</time>
      </trkpt>
      <trkpt lat="43.59854" lon="1.71837">
        <ele>231.1</ele>
        <time>2021-08-19T10:47:27Z</time>
      </trkpt>
      <trkpt lat="43.59873" lon="1.71872">
        <ele>229</ele>
        <time>2021-08-19T10:47:32Z</time>
      </trkpt>
      <trkpt lat="43.59899" lon="1.71916">
        <ele>226.2</ele>
        <time>2021-08-19T10:47:37Z</time>
      </trkpt>
      <trkpt lat="43.59927" lon="1.71966">
        <ele>224.9</ele>
        <time>2021-08-19T10:47:42Z</time>
      </trkpt>
      <trkpt lat="43.5995" lon="1.72016">
        <ele>223.7</ele>
        <time>2021-08-19T10:47:47Z</time>
      </trkpt>
      <trkpt lat="43.59968" lon="1.72066">
        <ele>222.7</ele>
        <time>2021-08-19T10:47:52Z</time>
      </trkpt>
      <trkpt lat="43.59985" lon="1.7212">
        <ele>220.3</ele>
        <time>2021-08-19T10:47:57Z</time>
      </trkpt>
      <trkpt lat="43.60004" lon="1.72177">
        <ele>217.2</ele>
        <time>2021-08-19T10:48:02Z</time>
      </trkpt>
      <trkpt lat="43.60023" lon="1.72239">
        <ele>214.9</ele>
        <time>2021-08-19T10:48:07Z</time>
      </trkpt>
      <trkpt lat="43.60043" lon="1.72296">
        <ele>214</ele>
        <time>2021-08-19T10:48:12Z</time>
      </trkpt>
      <trkpt lat="43.60066" lon="1.7235">
        <ele>212.1</ele>
        <time>2021-08-19T10:48:17Z</time>
      </trkpt>
      <trkpt lat="43.60089" lon="1.72401">
        <ele>211</ele>
        <time>2021-08-19T10:48:22Z</time>
      </trkpt>
      <trkpt lat="43.60111" lon="1.72446">
        <ele>210.4</ele>
        <time>2021-08-19T10:48:27Z</time>
      </trkpt>
      <trkpt lat="43.60127" lon="1.72487">
        <ele>210</ele>
        <time>2021-08-19T10:48:32Z</time>
      </trkpt>
      <trkpt lat="43.60141" lon="1.7252">
        <ele>211.6</ele>
        <time>2021-08-19T10:48:37Z</time>
      </trkpt>
      <trkpt lat="43.60154" lon="1.72549">
        <ele>211</ele>
        <time>2021-08-19T10:48:42Z</time>
      </trkpt>
      <trkpt lat="43.60163" lon="1.72576">
        <ele>211.2</ele>
        <time>2021-08-19T10:48:47Z</time>
      </trkpt>
      <trkpt lat="43.60171" lon="1.72597">
        <ele>212.1</ele>
        <time>2021-08-19T10:48:52Z</time>
      </trkpt>
      <trkpt lat="43.60179" lon="1.72619">
        <ele>212.3</ele>
        <time>2021-08-19T10:48:57Z</time>
      </trkpt>
      <trkpt lat="43.60186" lon="1.7264">
        <ele>212.4</ele>
        <time>2021-08-19T10:49:02Z</time>
      </trkpt>
      <trkpt lat="43.60195" lon="1.7266">
        <ele>212.5</ele>
        <time>2021-08-19T10:49:07Z</time>
      </trkpt>
      <trkpt lat="43.60201" lon="1.72681">
        <ele>212</ele>
        <time>2021-08-19T10:49:12Z</time>
      </trkpt>
      <trkpt lat="43.60208" lon="1.72704">
        <ele>211.5</ele>
        <time>2021-08-19T10:49:17Z</time>
      </trkpt>
      <trkpt lat="43.60217" lon="1.7273">
        <ele>211</ele>
        <time>2021-08-19T10:49:22Z</time>
      </trkpt>
      <trkpt lat="43.60227" lon="1.72765">
        <ele>209.2</ele>
        <time>2021-08-19T10:49:27Z</time>
      </trkpt>
      <trkpt lat="43.60243" lon="1.72806">
        <ele>208.1</ele>
        <time>2021-08-19T10:49:32Z</time>
      </trkpt>
      <trkpt lat="43.60263" lon="1.72859">
        <ele>203.5</ele>
        <time>2021-08-19T10:49:37Z</time>
      </trkpt>
      <trkpt lat="43.60282" lon="1.72928">
        <ele>197.8</ele>
        <time>2021-08-19T10:49:42Z</time>
      </trkpt>
      <trkpt lat="43.60281" lon="1.72994">
        <ele>191.9</ele>
        <time>2021-08-19T10:49:47Z</time>
      </trkpt>
      <trkpt lat="43.60275" lon="1.73022">
        <ele>189.7</ele>
        <time>2021-08-19T10:49:52Z</time>
      </trkpt>
      <trkpt lat="43.60274" lon="1.73022">
        <ele>189.7</ele>
        <time>2021-08-19T10:49:57Z</time>
      </trkpt>
      <trkpt lat="43.60273" lon="1.73033">
        <ele>189.2</ele>
        <time>2021-08-19T10:50:02Z</time>
      </trkpt>
      <trkpt lat="43.60267" lon="1.73064">
        <ele>187.8</ele>
        <time>2021-08-19T10:50:07Z</time>
      </trkpt>
      <trkpt lat="43.60258" lon="1.73104">
        <ele>185.9</ele>
        <time>2021-08-19T10:50:12Z</time>
      </trkpt>
      <trkpt lat="43.60249" lon="1.73144">
        <ele>185.4</ele>
        <time>2021-08-19T10:50:17Z</time>
      </trkpt>
      <trkpt lat="43.60239" lon="1.73185">
        <ele>183.6</ele>
        <time>2021-08-19T10:50:22Z</time>
      </trkpt>
      <trkpt lat="43.60231" lon="1.73233">
        <ele>179.7</ele>
        <time>2021-08-19T10:50:27Z</time>
      </trkpt>
      <trkpt lat="43.60225" lon="1.73303">
        <ele>174</ele>
        <time>2021-08-19T10:50:32Z</time>
      </trkpt>
      <trkpt lat="43.60214" lon="1.73377">
        <ele>171.3</ele>
        <time>2021-08-19T10:50:37Z</time>
      </trkpt>
      <trkpt lat="43.6018" lon="1.7343">
        <ele>171.7</ele>
        <time>2021-08-19T10:50:42Z</time>
      </trkpt>
      <trkpt lat="43.60151" lon="1.73475">
        <ele>171.9</ele>
        <time>2021-08-19T10:50:47Z</time>
      </trkpt>
      <trkpt lat="43.60125" lon="1.73515">
        <ele>170.5</ele>
        <time>2021-08-19T10:50:52Z</time>
      </trkpt>
      <trkpt lat="43.601" lon="1.73553">
        <ele>170.4</ele>
        <time>2021-08-19T10:50:57Z</time>
      </trkpt>
      <trkpt lat="43.60078" lon="1.73587">
        <ele>170.2</ele>
        <time>2021-08-19T10:51:02Z</time>
      </trkpt>
      <trkpt lat="43.6006" lon="1.73615">
        <ele>169.7</ele>
        <time>2021-08-19T10:51:07Z</time>
      </trkpt>
      <trkpt lat="43.60043" lon="1.73638">
        <ele>171.3</ele>
        <time>2021-08-19T10:51:12Z</time>
      </trkpt>
      <trkpt lat="43.6003" lon="1.7366">
        <ele>171.3</ele>
        <time>2021-08-19T10:51:17Z</time>
      </trkpt>
      <trkpt lat="43.60023" lon="1.73686">
        <ele>170.6</ele>
        <time>2021-08-19T10:51:22Z</time>
      </trkpt>
      <trkpt lat="43.60032" lon="1.7371">
        <ele>171.4</ele>
        <time>2021-08-19T10:51:27Z</time>
      </trkpt>
      <trkpt lat="43.6004" lon="1.73728">
        <ele>173.7</ele>
        <time>2021-08-19T10:51:32Z</time>
      </trkpt>
      <trkpt lat="43.60045" lon="1.73745">
        <ele>175.2</ele>
        <time>2021-08-19T10:51:37Z</time>
      </trkpt>
      <trkpt lat="43.6004" lon="1.73763">
        <ele>176.4</ele>
        <time>2021-08-19T10:51:42Z</time>
      </trkpt>
      <trkpt lat="43.60031" lon="1.73779">
        <ele>178.3</ele>
        <time>2021-08-19T10:51:47Z</time>
      </trkpt>
      <trkpt lat="43.6002" lon="1.73793">
        <ele>179.6</ele>
        <time>2021-08-19T10:51:52Z</time>
      </trkpt>
      <trkpt lat="43.60013" lon="1.73804">
        <ele>180.7</ele>
        <time>2021-08-19T10:51:57Z</time>
      </trkpt>
      <trkpt lat="43.60005" lon="1.73814">
        <ele>181</ele>
        <time>2021-08-19T10:52:02Z</time>
      </trkpt>
      <trkpt lat="43.59998" lon="1.73826">
        <ele>182.2</ele>
        <time>2021-08-19T10:52:07Z</time>
      </trkpt>
      <trkpt lat="43.59991" lon="1.73836">
        <ele>181.8</ele>
        <time>2021-08-19T10:52:12Z</time>
      </trkpt>
      <trkpt lat="43.59983" lon="1.73845">
        <ele>182.9</ele>
        <time>2021-08-19T10:52:17Z</time>
      </trkpt>
      <trkpt lat="43.59975" lon="1.73858">
        <ele>183.3</ele>
        <time>2021-08-19T10:52:22Z</time>
      </trkpt>
      <trkpt lat="43.59967" lon="1.7387">
        <ele>183.8</ele>
        <time>2021-08-19T10:52:27Z</time>
      </trkpt>
      <trkpt lat="43.59958" lon="1.73881">
        <ele>184.2</ele>
        <time>2021-08-19T10:52:32Z</time>
      </trkpt>
      <trkpt lat="43.5995" lon="1.73893">
        <ele>184.6</ele>
        <time>2021-08-19T10:52:37Z</time>
      </trkpt>
      <trkpt lat="43.59942" lon="1.73904">
        <ele>185</ele>
        <time>2021-08-19T10:52:42Z</time>
      </trkpt>
      <trkpt lat="43.59934" lon="1.73915">
        <ele>186.2</ele>
        <time>2021-08-19T10:52:47Z</time>
      </trkpt>
      <trkpt lat="43.59926" lon="1.73927">
        <ele>186.6</ele>
        <time>2021-08-19T10:52:52Z</time>
      </trkpt>
      <trkpt lat="43.59919" lon="1.73938">
        <ele>186.3</ele>
        <time>2021-08-19T10:52:57Z</time>
      </trkpt>
      <trkpt lat="43.5991" lon="1.73949">
        <ele>187.4</ele>
        <time>2021-08-19T10:53:02Z</time>
      </trkpt>
      <trkpt lat="43.59903" lon="1.73959">
        <ele>187.8</ele>
        <time>2021-08-19T10:53:07Z</time>
      </trkpt>
      <trkpt lat="43.59895" lon="1.7397">
        <ele>188.2</ele>
        <time>2021-08-19T10:53:12Z</time>
      </trkpt>
      <trkpt lat="43.59886" lon="1.7398">
        <ele>189.3</ele>
        <time>2021-08-19T10:53:17Z</time>
      </trkpt>
      <trkpt lat="43.59877" lon="1.73987">
        <ele>190.4</ele>
        <time>2021-08-19T10:53:22Z</time>
      </trkpt>
      <trkpt lat="43.59867" lon="1.73993">
        <ele>190.1</ele>
        <time>2021-08-19T10:53:27Z</time>
      </trkpt>
      <trkpt lat="43.59856" lon="1.73998">
        <ele>191.1</ele>
        <time>2021-08-19T10:53:32Z</time>
      </trkpt>
      <trkpt lat="43.59846" lon="1.74002">
        <ele>192.9</ele>
        <time>2021-08-19T10:53:37Z</time>
      </trkpt>
      <trkpt lat="43.59835" lon="1.74006">
        <ele>192.6</ele>
        <time>2021-08-19T10:53:42Z</time>
      </trkpt>
      <trkpt lat="43.59826" lon="1.74009">
        <ele>193.6</ele>
        <time>2021-08-19T10:53:47Z</time>
      </trkpt>
      <trkpt lat="43.59815" lon="1.74014">
        <ele>194.7</ele>
        <time>2021-08-19T10:53:52Z</time>
      </trkpt>
      <trkpt lat="43.59804" lon="1.74017">
        <ele>195</ele>
        <time>2021-08-19T10:53:57Z</time>
      </trkpt>
      <trkpt lat="43.59795" lon="1.74021">
        <ele>196.1</ele>
        <time>2021-08-19T10:54:02Z</time>
      </trkpt>
      <trkpt lat="43.59785" lon="1.74025">
        <ele>196.4</ele>
        <time>2021-08-19T10:54:07Z</time>
      </trkpt>
      <trkpt lat="43.59776" lon="1.74029">
        <ele>196.7</ele>
        <time>2021-08-19T10:54:12Z</time>
      </trkpt>
      <trkpt lat="43.59766" lon="1.74033">
        <ele>197.8</ele>
        <time>2021-08-19T10:54:17Z</time>
      </trkpt>
      <trkpt lat="43.59756" lon="1.74037">
        <ele>198.1</ele>
        <time>2021-08-19T10:54:22Z</time>
      </trkpt>
      <trkpt lat="43.59745" lon="1.74041">
        <ele>199.2</ele>
        <time>2021-08-19T10:54:27Z</time>
      </trkpt>
      <trkpt lat="43.59735" lon="1.74045">
        <ele>199.5</ele>
        <time>2021-08-19T10:54:32Z</time>
      </trkpt>
      <trkpt lat="43.59725" lon="1.74049">
        <ele>200.6</ele>
        <time>2021-08-19T10:54:37Z</time>
      </trkpt>
      <trkpt lat="43.59715" lon="1.74054">
        <ele>201</ele>
        <time>2021-08-19T10:54:42Z</time>
      </trkpt>
      <trkpt lat="43.59705" lon="1.7406">
        <ele>202</ele>
        <time>2021-08-19T10:54:47Z</time>
      </trkpt>
      <trkpt lat="43.59696" lon="1.74067">
        <ele>201.7</ele>
        <time>2021-08-19T10:54:52Z</time>
      </trkpt>
      <trkpt lat="43.59683" lon="1.74075">
        <ele>202.9</ele>
        <time>2021-08-19T10:54:57Z</time>
      </trkpt>
      <trkpt lat="43.5967" lon="1.74085">
        <ele>203.4</ele>
        <time>2021-08-19T10:55:02Z</time>
      </trkpt>
      <trkpt lat="43.59658" lon="1.74093">
        <ele>203.2</ele>
        <time>2021-08-19T10:55:07Z</time>
      </trkpt>
      <trkpt lat="43.59647" lon="1.74103">
        <ele>203.7</ele>
        <time>2021-08-19T10:55:12Z</time>
      </trkpt>
      <trkpt lat="43.59634" lon="1.74112">
        <ele>204.2</ele>
        <time>2021-08-19T10:55:17Z</time>
      </trkpt>
      <trkpt lat="43.59621" lon="1.74121">
        <ele>204.7</ele>
        <time>2021-08-19T10:55:22Z</time>
      </trkpt>
      <trkpt lat="43.59608" lon="1.7413">
        <ele>205.2</ele>
        <time>2021-08-19T10:55:27Z</time>
      </trkpt>
      <trkpt lat="43.59595" lon="1.74138">
        <ele>205</ele>
        <time>2021-08-19T10:55:32Z</time>
      </trkpt>
      <trkpt lat="43.59582" lon="1.74147">
        <ele>205.5</ele>
        <time>2021-08-19T10:55:37Z</time>
      </trkpt>
      <trkpt lat="43.59569" lon="1.74155">
        <ele>206</ele>
        <time>2021-08-19T10:55:42Z</time>
      </trkpt>
      <trkpt lat="43.59555" lon="1.74162">
        <ele>207.2</ele>
        <time>2021-08-19T10:55:47Z</time>
      </trkpt>
      <trkpt lat="43.59543" lon="1.74168">
        <ele>206.9</ele>
        <time>2021-08-19T10:55:52Z</time>
      </trkpt>
      <trkpt lat="43.5953" lon="1.74172">
        <ele>207.4</ele>
        <time>2021-08-19T10:55:57Z</time>
      </trkpt>
      <trkpt lat="43.59517" lon="1.74178">
        <ele>208.6</ele>
        <time>2021-08-19T10:56:02Z</time>
      </trkpt>
      <trkpt lat="43.59505" lon="1.74182">
        <ele>208.9</ele>
        <time>2021-08-19T10:56:07Z</time>
      </trkpt>
      <trkpt lat="43.59493" lon="1.74185">
        <ele>210</ele>
        <time>2021-08-19T10:56:12Z</time>
      </trkpt>
      <trkpt lat="43.59481" lon="1.7419">
        <ele>210.5</ele>
        <time>2021-08-19T10:56:17Z</time>
      </trkpt>
      <trkpt lat="43.59466" lon="1.74194">
        <ele>210.2</ele>
        <time>2021-08-19T10:56:22Z</time>
      </trkpt>
      <trkpt lat="43.59452" lon="1.74201">
        <ele>210.7</ele>
        <time>2021-08-19T10:56:27Z</time>
      </trkpt>
      <trkpt lat="43.59436" lon="1.74212">
        <ele>210.7</ele>
        <time>2021-08-19T10:56:32Z</time>
      </trkpt>
      <trkpt lat="43.59418" lon="1.74226">
        <ele>210.7</ele>
        <time>2021-08-19T10:56:37Z</time>
      </trkpt>
      <trkpt lat="43.59395" lon="1.7425">
        <ele>208.9</ele>
        <time>2021-08-19T10:56:42Z</time>
      </trkpt>
      <trkpt lat="43.59368" lon="1.7429">
        <ele>206.8</ele>
        <time>2021-08-19T10:56:47Z</time>
      </trkpt>
      <trkpt lat="43.59339" lon="1.74334">
        <ele>205.5</ele>
        <time>2021-08-19T10:56:52Z</time>
      </trkpt>
      <trkpt lat="43.59308" lon="1.74375">
        <ele>205.7</ele>
        <time>2021-08-19T10:56:57Z</time>
      </trkpt>
      <trkpt lat="43.59277" lon="1.74412">
        <ele>205.8</ele>
        <time>2021-08-19T10:57:02Z</time>
      </trkpt>
      <trkpt lat="43.59248" lon="1.74446">
        <ele>207.1</ele>
        <time>2021-08-19T10:57:07Z</time>
      </trkpt>
      <trkpt lat="43.59221" lon="1.74468">
        <ele>209</ele>
        <time>2021-08-19T10:57:12Z</time>
      </trkpt>
      <trkpt lat="43.59198" lon="1.74476">
        <ele>210.5</ele>
        <time>2021-08-19T10:57:17Z</time>
      </trkpt>
      <trkpt lat="43.59184" lon="1.74478">
        <ele>211.6</ele>
        <time>2021-08-19T10:57:22Z</time>
      </trkpt>
      <trkpt lat="43.59172" lon="1.7448">
        <ele>212.7</ele>
        <time>2021-08-19T10:57:27Z</time>
      </trkpt>
      <trkpt lat="43.5916" lon="1.74482">
        <ele>213.8</ele>
        <time>2021-08-19T10:57:32Z</time>
      </trkpt>
      <trkpt lat="43.59149" lon="1.74487">
        <ele>213.5</ele>
        <time>2021-08-19T10:57:37Z</time>
      </trkpt>
      <trkpt lat="43.59138" lon="1.74493">
        <ele>214.6</ele>
        <time>2021-08-19T10:57:42Z</time>
      </trkpt>
      <trkpt lat="43.59127" lon="1.74501">
        <ele>215</ele>
        <time>2021-08-19T10:57:47Z</time>
      </trkpt>
      <trkpt lat="43.59117" lon="1.74511">
        <ele>215.4</ele>
        <time>2021-08-19T10:57:52Z</time>
      </trkpt>
      <trkpt lat="43.59104" lon="1.74524">
        <ele>216</ele>
        <time>2021-08-19T10:57:57Z</time>
      </trkpt>
      <trkpt lat="43.59088" lon="1.74544">
        <ele>214.7</ele>
        <time>2021-08-19T10:58:02Z</time>
      </trkpt>
      <trkpt lat="43.5907" lon="1.74568">
        <ele>214.2</ele>
        <time>2021-08-19T10:58:07Z</time>
      </trkpt>
      <trkpt lat="43.59052" lon="1.74586">
        <ele>214.3</ele>
        <time>2021-08-19T10:58:12Z</time>
      </trkpt>
      <trkpt lat="43.59032" lon="1.74599">
        <ele>214.4</ele>
        <time>2021-08-19T10:58:17Z</time>
      </trkpt>
      <trkpt lat="43.5901" lon="1.74606">
        <ele>215.8</ele>
        <time>2021-08-19T10:58:22Z</time>
      </trkpt>
      <trkpt lat="43.58988" lon="1.74609">
        <ele>216.5</ele>
        <time>2021-08-19T10:58:27Z</time>
      </trkpt>
      <trkpt lat="43.58969" lon="1.74613">
        <ele>218.5</ele>
        <time>2021-08-19T10:58:32Z</time>
      </trkpt>
      <trkpt lat="43.58954" lon="1.74615">
        <ele>219.6</ele>
        <time>2021-08-19T10:58:37Z</time>
      </trkpt>
      <trkpt lat="43.5894" lon="1.74617">
        <ele>220</ele>
        <time>2021-08-19T10:58:42Z</time>
      </trkpt>
      <trkpt lat="43.58928" lon="1.74619">
        <ele>220.4</ele>
        <time>2021-08-19T10:58:47Z</time>
      </trkpt>
      <trkpt lat="43.58916" lon="1.7462">
        <ele>222.2</ele>
        <time>2021-08-19T10:58:52Z</time>
      </trkpt>
      <trkpt lat="43.58906" lon="1.74624">
        <ele>222.5</ele>
        <time>2021-08-19T10:58:57Z</time>
      </trkpt>
      <trkpt lat="43.58895" lon="1.74628">
        <ele>223.6</ele>
        <time>2021-08-19T10:59:02Z</time>
      </trkpt>
      <trkpt lat="43.58885" lon="1.74637">
        <ele>224</ele>
        <time>2021-08-19T10:59:07Z</time>
      </trkpt>
      <trkpt lat="43.58876" lon="1.74647">
        <ele>224.5</ele>
        <time>2021-08-19T10:59:12Z</time>
      </trkpt>
      <trkpt lat="43.58864" lon="1.74662">
        <ele>225.1</ele>
        <time>2021-08-19T10:59:17Z</time>
      </trkpt>
      <trkpt lat="43.58852" lon="1.74676">
        <ele>225.6</ele>
        <time>2021-08-19T10:59:22Z</time>
      </trkpt>
      <trkpt lat="43.58843" lon="1.7469">
        <ele>225.4</ele>
        <time>2021-08-19T10:59:27Z</time>
      </trkpt>
      <trkpt lat="43.58831" lon="1.74703">
        <ele>226</ele>
        <time>2021-08-19T10:59:32Z</time>
      </trkpt>
      <trkpt lat="43.5882" lon="1.74719">
        <ele>225.9</ele>
        <time>2021-08-19T10:59:37Z</time>
      </trkpt>
      <trkpt lat="43.58808" lon="1.74732">
        <ele>226.4</ele>
        <time>2021-08-19T10:59:42Z</time>
      </trkpt>
      <trkpt lat="43.58797" lon="1.74748">
        <ele>226.3</ele>
        <time>2021-08-19T10:59:47Z</time>
      </trkpt>
      <trkpt lat="43.58786" lon="1.74761">
        <ele>227.5</ele>
        <time>2021-08-19T10:59:52Z</time>
      </trkpt>
      <trkpt lat="43.58776" lon="1.74776">
        <ele>228.1</ele>
        <time>2021-08-19T10:59:57Z</time>
      </trkpt>
      <trkpt lat="43.58764" lon="1.74791">
        <ele>228.7</ele>
        <time>2021-08-19T11:00:02Z</time>
      </trkpt>
      <trkpt lat="43.58752" lon="1.74806">
        <ele>228.6</ele>
        <time>2021-08-19T11:00:07Z</time>
      </trkpt>
      <trkpt lat="43.58739" lon="1.74822">
        <ele>229.9</ele>
        <time>2021-08-19T11:00:12Z</time>
      </trkpt>
      <trkpt lat="43.5873" lon="1.74837">
        <ele>229.7</ele>
        <time>2021-08-19T11:00:17Z</time>
      </trkpt>
      <trkpt lat="43.58717" lon="1.74857">
        <ele>230.4</ele>
        <time>2021-08-19T11:00:22Z</time>
      </trkpt>
      <trkpt lat="43.58706" lon="1.74871">
        <ele>230.3</ele>
        <time>2021-08-19T11:00:27Z</time>
      </trkpt>
      <trkpt lat="43.58696" lon="1.74884">
        <ele>230.7</ele>
        <time>2021-08-19T11:00:32Z</time>
      </trkpt>
      <trkpt lat="43.58685" lon="1.74893">
        <ele>231.2</ele>
        <time>2021-08-19T11:00:37Z</time>
      </trkpt>
      <trkpt lat="43.58672" lon="1.74901">
        <ele>231.7</ele>
        <time>2021-08-19T11:00:42Z</time>
      </trkpt>
      <trkpt lat="43.58662" lon="1.74902">
        <ele>233.4</ele>
        <time>2021-08-19T11:00:47Z</time>
      </trkpt>
      <trkpt lat="43.5865" lon="1.74897">
        <ele>235.8</ele>
        <time>2021-08-19T11:00:52Z</time>
      </trkpt>
      <trkpt lat="43.58637" lon="1.74887">
        <ele>236.7</ele>
        <time>2021-08-19T11:00:57Z</time>
      </trkpt>
      <trkpt lat="43.58626" lon="1.74879">
        <ele>237.5</ele>
        <time>2021-08-19T11:01:02Z</time>
      </trkpt>
      <trkpt lat="43.58614" lon="1.74872">
        <ele>237.1</ele>
        <time>2021-08-19T11:01:07Z</time>
      </trkpt>
      <trkpt lat="43.58602" lon="1.74871">
        <ele>238.1</ele>
        <time>2021-08-19T11:01:12Z</time>
      </trkpt>
      <trkpt lat="43.5859" lon="1.74873">
        <ele>238.4</ele>
        <time>2021-08-19T11:01:17Z</time>
      </trkpt>
      <trkpt lat="43.5858" lon="1.74881">
        <ele>238.9</ele>
        <time>2021-08-19T11:01:22Z</time>
      </trkpt>
      <trkpt lat="43.58573" lon="1.74895">
        <ele>240</ele>
        <time>2021-08-19T11:01:27Z</time>
      </trkpt>
      <trkpt lat="43.58566" lon="1.74911">
        <ele>239</ele>
        <time>2021-08-19T11:01:32Z</time>
      </trkpt>
      <trkpt lat="43.58561" lon="1.74925">
        <ele>239.4</ele>
        <time>2021-08-19T11:01:37Z</time>
      </trkpt>
      <trkpt lat="43.58554" lon="1.7494">
        <ele>239.2</ele>
        <time>2021-08-19T11:01:42Z</time>
      </trkpt>
      <trkpt lat="43.5855" lon="1.74953">
        <ele>238.8</ele>
        <time>2021-08-19T11:01:47Z</time>
      </trkpt>
      <trkpt lat="43.58552" lon="1.74967">
        <ele>238.3</ele>
        <time>2021-08-19T11:01:52Z</time>
      </trkpt>
      <trkpt lat="43.58566" lon="1.74997">
        <ele>237</ele>
        <time>2021-08-19T11:01:57Z</time>
      </trkpt>
      <trkpt lat="43.58589" lon="1.75059">
        <ele>232.5</ele>
        <time>2021-08-19T11:02:02Z</time>
      </trkpt>
      <trkpt lat="43.58619" lon="1.75133">
        <ele>224.5</ele>
        <time>2021-08-19T11:02:07Z</time>
      </trkpt>
      <trkpt lat="43.58615" lon="1.75188">
        <ele>218.5</ele>
        <time>2021-08-19T11:02:12Z</time>
      </trkpt>
      <trkpt lat="43.58631" lon="1.75248">
        <ele>211.3</ele>
        <time>2021-08-19T11:02:17Z</time>
      </trkpt>
      <trkpt lat="43.58663" lon="1.75304">
        <ele>206.5</ele>
        <time>2021-08-19T11:02:22Z</time>
      </trkpt>
      <trkpt lat="43.58694" lon="1.75364">
        <ele>201.7</ele>
        <time>2021-08-19T11:02:27Z</time>
      </trkpt>
      <trkpt lat="43.58722" lon="1.75424">
        <ele>198.4</ele>
        <time>2021-08-19T11:02:32Z</time>
      </trkpt>
      <trkpt lat="43.58753" lon="1.75473">
        <ele>196.3</ele>
        <time>2021-08-19T11:02:37Z</time>
      </trkpt>
      <trkpt lat="43.58781" lon="1.7552">
        <ele>194.9</ele>
        <time>2021-08-19T11:02:42Z</time>
      </trkpt>
      <trkpt lat="43.58805" lon="1.7556">
        <ele>195</ele>
        <time>2021-08-19T11:02:47Z</time>
      </trkpt>
      <trkpt lat="43.58826" lon="1.75596">
        <ele>195</ele>
        <time>2021-08-19T11:02:52Z</time>
      </trkpt>
      <trkpt lat="43.58841" lon="1.75628">
        <ele>195.2</ele>
        <time>2021-08-19T11:02:57Z</time>
      </trkpt>
      <trkpt lat="43.58843" lon="1.75668">
        <ele>194.4</ele>
        <time>2021-08-19T11:03:02Z</time>
      </trkpt>
      <trkpt lat="43.58842" lon="1.75709">
        <ele>193.7</ele>
        <time>2021-08-19T11:03:07Z</time>
      </trkpt>
      <trkpt lat="43.58842" lon="1.75751">
        <ele>193.1</ele>
        <time>2021-08-19T11:03:12Z</time>
      </trkpt>
      <trkpt lat="43.58841" lon="1.75796">
        <ele>192.4</ele>
        <time>2021-08-19T11:03:17Z</time>
      </trkpt>
      <trkpt lat="43.5884" lon="1.7584">
        <ele>191.8</ele>
        <time>2021-08-19T11:03:22Z</time>
      </trkpt>
      <trkpt lat="43.58839" lon="1.75885">
        <ele>190.5</ele>
        <time>2021-08-19T11:03:27Z</time>
      </trkpt>
      <trkpt lat="43.58839" lon="1.75929">
        <ele>190.6</ele>
        <time>2021-08-19T11:03:32Z</time>
      </trkpt>
      <trkpt lat="43.58838" lon="1.75973">
        <ele>190</ele>
        <time>2021-08-19T11:03:37Z</time>
      </trkpt>
      <trkpt lat="43.58839" lon="1.76016">
        <ele>188.6</ele>
        <time>2021-08-19T11:03:42Z</time>
      </trkpt>
      <trkpt lat="43.58848" lon="1.76057">
        <ele>187.7</ele>
        <time>2021-08-19T11:03:47Z</time>
      </trkpt>
      <trkpt lat="43.58873" lon="1.76087">
        <ele>186.8</ele>
        <time>2021-08-19T11:03:52Z</time>
      </trkpt>
      <trkpt lat="43.58903" lon="1.76111">
        <ele>185.7</ele>
        <time>2021-08-19T11:03:57Z</time>
      </trkpt>
      <trkpt lat="43.58932" lon="1.76142">
        <ele>184</ele>
        <time>2021-08-19T11:04:02Z</time>
      </trkpt>
      <trkpt lat="43.58954" lon="1.76182">
        <ele>183.4</ele>
        <time>2021-08-19T11:04:07Z</time>
      </trkpt>
      <trkpt lat="43.58976" lon="1.76225">
        <ele>182.8</ele>
        <time>2021-08-19T11:04:12Z</time>
      </trkpt>
      <trkpt lat="43.58992" lon="1.76272">
        <ele>181.1</ele>
        <time>2021-08-19T11:04:17Z</time>
      </trkpt>
      <trkpt lat="43.59013" lon="1.76315">
        <ele>181.2</ele>
        <time>2021-08-19T11:04:22Z</time>
      </trkpt>
      <trkpt lat="43.59032" lon="1.76345">
        <ele>179.8</ele>
        <time>2021-08-19T11:04:27Z</time>
      </trkpt>
      <trkpt lat="43.59047" lon="1.76378">
        <ele>180</ele>
        <time>2021-08-19T11:04:32Z</time>
      </trkpt>
      <trkpt lat="43.59053" lon="1.76414">
        <ele>179.1</ele>
        <time>2021-08-19T11:04:37Z</time>
      </trkpt>
      <trkpt lat="43.59053" lon="1.76443">
        <ele>178.9</ele>
        <time>2021-08-19T11:04:42Z</time>
      </trkpt>
      <trkpt lat="43.59055" lon="1.76477">
        <ele>178</ele>
        <time>2021-08-19T11:04:47Z</time>
      </trkpt>
      <trkpt lat="43.59061" lon="1.76523">
        <ele>176.5</ele>
        <time>2021-08-19T11:04:52Z</time>
      </trkpt>
      <trkpt lat="43.59074" lon="1.76566">
        <ele>174.8</ele>
        <time>2021-08-19T11:04:57Z</time>
      </trkpt>
      <trkpt lat="43.59085" lon="1.76592">
        <ele>175.6</ele>
        <time>2021-08-19T11:05:02Z</time>
      </trkpt>
      <trkpt lat="43.59091" lon="1.76615">
        <ele>176.6</ele>
        <time>2021-08-19T11:05:07Z</time>
      </trkpt>
      <trkpt lat="43.59088" lon="1.76631">
        <ele>176.9</ele>
        <time>2021-08-19T11:05:12Z</time>
      </trkpt>
      <trkpt lat="43.5909" lon="1.76635">
        <ele>177.7</ele>
        <time>2021-08-19T11:05:17Z</time>
      </trkpt>
      <trkpt lat="43.5909" lon="1.76633">
        <ele>177.6</ele>
        <time>2021-08-19T11:05:22Z</time>
      </trkpt>
      <trkpt lat="43.5909" lon="1.76633">
        <ele>177.6</ele>
        <time>2021-08-19T11:05:27Z</time>
      </trkpt>
      <trkpt lat="43.5909" lon="1.76633">
        <ele>177.6</ele>
        <time>2021-08-19T11:05:32Z</time>
      </trkpt>
      <trkpt lat="43.5909" lon="1.76633">
        <ele>177.6</ele>
        <time>2021-08-19T11:05:37Z</time>
      </trkpt>
      <trkpt lat="43.5909" lon="1.76633">
        <ele>177.6</ele>
        <time>2021-08-19T11:05:42Z</time>
      </trkpt>
      <trkpt lat="43.5909" lon="1.76633">
        <ele>178.3</ele>
        <time>2021-08-19T11:05:47Z</time>
      </trkpt>
      <trkpt lat="43.5909" lon="1.76633">
        <ele>178.3</ele>
        <time>2021-08-19T11:05:52Z</time>
      </trkpt>
      <trkpt lat="43.59091" lon="1.76633">
        <ele>179</ele>
        <time>2021-08-19T11:05:57Z</time>
      </trkpt>
      <trkpt lat="43.59091" lon="1.76633">
        <ele>179</ele>
        <time>2021-08-19T11:06:02Z</time>
      </trkpt>
      <trkpt lat="43.59091" lon="1.76633">
        <ele>179</ele>
        <time>2021-08-19T11:06:07Z</time>
      </trkpt>
      <trkpt lat="43.59091" lon="1.76633">
        <ele>179</ele>
        <time>2021-08-19T11:06:12Z</time>
      </trkpt>
      <trkpt lat="43.59091" lon="1.76633">
        <ele>179</ele>
        <time>2021-08-19T11:06:17Z</time>
      </trkpt>
      <trkpt lat="43.5909" lon="1.76633">
        <ele>178.3</ele>
        <time>2021-08-19T11:06:22Z</time>
      </trkpt>
      <trkpt lat="43.5909" lon="1.76632">
        <ele>179</ele>
        <time>2021-08-19T11:06:27Z</time>
      </trkpt>
      <trkpt lat="43.5909" lon="1.76632">
        <ele>179</ele>
        <time>2021-08-19T11:06:32Z</time>
      </trkpt>
      <trkpt lat="43.59091" lon="1.76632">
        <ele>179.7</ele>
        <time>2021-08-19T11:06:37Z</time>
      </trkpt>
      <trkpt lat="43.59091" lon="1.76632">
        <ele>179.7</ele>
        <time>2021-08-19T11:06:42Z</time>
      </trkpt>
      <trkpt lat="43.59091" lon="1.76632">
        <ele>179.7</ele>
        <time>2021-08-19T11:06:47Z</time>
      </trkpt>
      <trkpt lat="43.59091" lon="1.76632">
        <ele>179</ele>
        <time>2021-08-19T11:06:52Z</time>
      </trkpt>
      <trkpt lat="43.59091" lon="1.76632">
        <ele>179</ele>
        <time>2021-08-19T11:06:57Z</time>
      </trkpt>
      <trkpt lat="43.59091" lon="1.76632">
        <ele>179</ele>
        <time>2021-08-19T11:07:02Z</time>
      </trkpt>
      <trkpt lat="43.59092" lon="1.76635">
        <ele>179</ele>
        <time>2021-08-19T11:07:07Z</time>
      </trkpt>
      <trkpt lat="43.59092" lon="1.76637">
        <ele>178.4</ele>
        <time>2021-08-19T11:07:12Z</time>
      </trkpt>
      <trkpt lat="43.59091" lon="1.76639">
        <ele>179.1</ele>
        <time>2021-08-19T11:07:17Z</time>
      </trkpt>
      <trkpt lat="43.5909" lon="1.76642">
        <ele>178.5</ele>
        <time>2021-08-19T11:07:22Z</time>
      </trkpt>
      <trkpt lat="43.5909" lon="1.76643">
        <ele>178.5</ele>
        <time>2021-08-19T11:07:27Z</time>
      </trkpt>
      <trkpt lat="43.5909" lon="1.76643">
        <ele>178.5</ele>
        <time>2021-08-19T11:07:32Z</time>
      </trkpt>
      <trkpt lat="43.5909" lon="1.76644">
        <ele>178.5</ele>
        <time>2021-08-19T11:07:37Z</time>
      </trkpt>
      <trkpt lat="43.59091" lon="1.76648">
        <ele>177.9</ele>
        <time>2021-08-19T11:07:42Z</time>
      </trkpt>
      <trkpt lat="43.5909" lon="1.76649">
        <ele>177.2</ele>
        <time>2021-08-19T11:07:47Z</time>
      </trkpt>
      <trkpt lat="43.59091" lon="1.76648">
        <ele>177.2</ele>
        <time>2021-08-19T11:07:52Z</time>
      </trkpt>
      <trkpt lat="43.59093" lon="1.76648">
        <ele>177.1</ele>
        <time>2021-08-19T11:07:57Z</time>
      </trkpt>
      <trkpt lat="43.59091" lon="1.76649">
        <ele>176.5</ele>
        <time>2021-08-19T11:08:02Z</time>
      </trkpt>
      <trkpt lat="43.5909" lon="1.76651">
        <ele>176.5</ele>
        <time>2021-08-19T11:08:07Z</time>
      </trkpt>
      <trkpt lat="43.59089" lon="1.76654">
        <ele>175.9</ele>
        <time>2021-08-19T11:08:12Z</time>
      </trkpt>
      <trkpt lat="43.59087" lon="1.76658">
        <ele>176</ele>
        <time>2021-08-19T11:08:17Z</time>
      </trkpt>
      <trkpt lat="43.59088" lon="1.76658">
        <ele>175.3</ele>
        <time>2021-08-19T11:08:22Z</time>
      </trkpt>
      <trkpt lat="43.59088" lon="1.76658">
        <ele>175.3</ele>
        <time>2021-08-19T11:08:27Z</time>
      </trkpt>
      <trkpt lat="43.59088" lon="1.76658">
        <ele>175.3</ele>
        <time>2021-08-19T11:08:32Z</time>
      </trkpt>
      <trkpt lat="43.59089" lon="1.76657">
        <ele>175.2</ele>
        <time>2021-08-19T11:08:37Z</time>
      </trkpt>
      <trkpt lat="43.59089" lon="1.76657">
        <ele>175.2</ele>
        <time>2021-08-19T11:08:42Z</time>
      </trkpt>
      <trkpt lat="43.5909" lon="1.76657">
        <ele>174.5</ele>
        <time>2021-08-19T11:08:47Z</time>
      </trkpt>
      <trkpt lat="43.5909" lon="1.76657">
        <ele>174.5</ele>
        <time>2021-08-19T11:08:52Z</time>
      </trkpt>
      <trkpt lat="43.59089" lon="1.76657">
        <ele>175.2</ele>
        <time>2021-08-19T11:08:57Z</time>
      </trkpt>
      <trkpt lat="43.59089" lon="1.76657">
        <ele>175.2</ele>
        <time>2021-08-19T11:09:02Z</time>
      </trkpt>
      <trkpt lat="43.59089" lon="1.76658">
        <ele>173.9</ele>
        <time>2021-08-19T11:09:07Z</time>
      </trkpt>
      <trkpt lat="43.59089" lon="1.76658">
        <ele>173.2</ele>
        <time>2021-08-19T11:09:12Z</time>
      </trkpt>
      <trkpt lat="43.59089" lon="1.76659">
        <ele>173.2</ele>
        <time>2021-08-19T11:09:17Z</time>
      </trkpt>
      <trkpt lat="43.59087" lon="1.76659">
        <ele>173.2</ele>
        <time>2021-08-19T11:09:22Z</time>
      </trkpt>
      <trkpt lat="43.59087" lon="1.76656">
        <ele>173.9</ele>
        <time>2021-08-19T11:09:27Z</time>
      </trkpt>
      <trkpt lat="43.59087" lon="1.76652">
        <ele>173.8</ele>
        <time>2021-08-19T11:09:32Z</time>
      </trkpt>
      <trkpt lat="43.59087" lon="1.76653">
        <ele>173.8</ele>
        <time>2021-08-19T11:09:37Z</time>
      </trkpt>
      <trkpt lat="43.59088" lon="1.76648">
        <ele>173.7</ele>
        <time>2021-08-19T11:09:42Z</time>
      </trkpt>
      <trkpt lat="43.59089" lon="1.76646">
        <ele>172.9</ele>
        <time>2021-08-19T11:09:47Z</time>
      </trkpt>
      <trkpt lat="43.59089" lon="1.76646">
        <ele>172.9</ele>
        <time>2021-08-19T11:09:52Z</time>
      </trkpt>
      <trkpt lat="43.5909" lon="1.76646">
        <ele>173.6</ele>
        <time>2021-08-19T11:09:57Z</time>
      </trkpt>
      <trkpt lat="43.5909" lon="1.76645">
        <ele>173.6</ele>
        <time>2021-08-19T11:10:02Z</time>
      </trkpt>
      <trkpt lat="43.5909" lon="1.76642">
        <ele>174.3</ele>
        <time>2021-08-19T11:10:07Z</time>
      </trkpt>
      <trkpt lat="43.5909" lon="1.76641">
        <ele>174.2</ele>
        <time>2021-08-19T11:10:12Z</time>
      </trkpt>
      <trkpt lat="43.5909" lon="1.7664">
        <ele>174.2</ele>
        <time>2021-08-19T11:10:17Z</time>
      </trkpt>
      <trkpt lat="43.59091" lon="1.7664">
        <ele>174.9</ele>
        <time>2021-08-19T11:10:22Z</time>
      </trkpt>
      <trkpt lat="43.59091" lon="1.76638">
        <ele>174.9</ele>
        <time>2021-08-19T11:10:27Z</time>
      </trkpt>
      <trkpt lat="43.5909" lon="1.76638">
        <ele>175.6</ele>
        <time>2021-08-19T11:10:32Z</time>
      </trkpt>
      <trkpt lat="43.59089" lon="1.76638">
        <ele>175.6</ele>
        <time>2021-08-19T11:10:37Z</time>
      </trkpt>
      <trkpt lat="43.59089" lon="1.76638">
        <ele>175.6</ele>
        <time>2021-08-19T11:10:42Z</time>
      </trkpt>
      <trkpt lat="43.59089" lon="1.76638">
        <ele>175.6</ele>
        <time>2021-08-19T11:10:47Z</time>
      </trkpt>
      <trkpt lat="43.59089" lon="1.76638">
        <ele>175.6</ele>
        <time>2021-08-19T11:10:52Z</time>
      </trkpt>
      <trkpt lat="43.59089" lon="1.76638">
        <ele>175.6</ele>
        <time>2021-08-19T11:10:57Z</time>
      </trkpt>
      <trkpt lat="43.59089" lon="1.76638">
        <ele>175.6</ele>
        <time>2021-08-19T11:11:02Z</time>
      </trkpt>
      <trkpt lat="43.59089" lon="1.76638">
        <ele>175.6</ele>
        <time>2021-08-19T11:11:07Z</time>
      </trkpt>
      <trkpt lat="43.59089" lon="1.76638">
        <ele>175.6</ele>
        <time>2021-08-19T11:11:12Z</time>
      </trkpt>
      <trkpt lat="43.59089" lon="1.76638">
        <ele>175.6</ele>
        <time>2021-08-19T11:11:17Z</time>
      </trkpt>
      <trkpt lat="43.59089" lon="1.76638">
        <ele>175.6</ele>
        <time>2021-08-19T11:11:22Z</time>
      </trkpt>
      <trkpt lat="43.59089" lon="1.76638">
        <ele>175.6</ele>
        <time>2021-08-19T11:11:27Z</time>
      </trkpt>
      <trkpt lat="43.59089" lon="1.76638">
        <ele>175.6</ele>
        <time>2021-08-19T11:11:32Z</time>
      </trkpt>
      <trkpt lat="43.59089" lon="1.76638">
        <ele>175.6</ele>
        <time>2021-08-19T11:11:37Z</time>
      </trkpt>
      <trkpt lat="43.59089" lon="1.76638">
        <ele>175.6</ele>
        <time>2021-08-19T11:11:42Z</time>
      </trkpt>
      <trkpt lat="43.59089" lon="1.76638">
        <ele>175.6</ele>
        <time>2021-08-19T11:11:47Z</time>
      </trkpt>
      <trkpt lat="43.59089" lon="1.76638">
        <ele>175.6</ele>
        <time>2021-08-19T11:11:52Z</time>
      </trkpt>
      <trkpt lat="43.59089" lon="1.76638">
        <ele>175.6</ele>
        <time>2021-08-19T11:11:57Z</time>
      </trkpt>
      <trkpt lat="43.59089" lon="1.76638">
        <ele>175.6</ele>
        <time>2021-08-19T11:12:02Z</time>
      </trkpt>
      <trkpt lat="43.59089" lon="1.76638">
        <ele>175.6</ele>
        <time>2021-08-19T11:12:07Z</time>
      </trkpt>
      <trkpt lat="43.59089" lon="1.76638">
        <ele>175.6</ele>
        <time>2021-08-19T11:12:12Z</time>
      </trkpt>
      <trkpt lat="43.59089" lon="1.76638">
        <ele>175.6</ele>
        <time>2021-08-19T11:12:17Z</time>
      </trkpt>
      <trkpt lat="43.59089" lon="1.76638">
        <ele>175.6</ele>
        <time>2021-08-19T11:12:22Z</time>
      </trkpt>
      <trkpt lat="43.59089" lon="1.76638">
        <ele>175.6</ele>
        <time>2021-08-19T11:12:27Z</time>
      </trkpt>
      <trkpt lat="43.59089" lon="1.76638">
        <ele>175.6</ele>
        <time>2021-08-19T11:12:32Z</time>
      </trkpt>
      <trkpt lat="43.59089" lon="1.76638">
        <ele>175.6</ele>
        <time>2021-08-19T11:12:37Z</time>
      </trkpt>
      <trkpt lat="43.59089" lon="1.76638">
        <ele>175.6</ele>
        <time>2021-08-19T11:12:42Z</time>
      </trkpt>
      <trkpt lat="43.59089" lon="1.76638">
        <ele>175.6</ele>
        <time>2021-08-19T11:12:47Z</time>
      </trkpt>
      <trkpt lat="43.59089" lon="1.76638">
        <ele>175.6</ele>
        <time>2021-08-19T11:12:52Z</time>
      </trkpt>
      <trkpt lat="43.59089" lon="1.76638">
        <ele>175.6</ele>
        <time>2021-08-19T11:12:57Z</time>
      </trkpt>
      <trkpt lat="43.59089" lon="1.76638">
        <ele>175.6</ele>
        <time>2021-08-19T11:13:02Z</time>
      </trkpt>
      <trkpt lat="43.59089" lon="1.76638">
        <ele>175.6</ele>
        <time>2021-08-19T11:13:07Z</time>
      </trkpt>
      <trkpt lat="43.59089" lon="1.76638">
        <ele>175.6</ele>
        <time>2021-08-19T11:13:12Z</time>
      </trkpt>
      <trkpt lat="43.59089" lon="1.76638">
        <ele>175.6</ele>
        <time>2021-08-19T11:13:17Z</time>
      </trkpt>
      <trkpt lat="43.59089" lon="1.76638">
        <ele>175.6</ele>
        <time>2021-08-19T11:13:22Z</time>
      </trkpt>
      <trkpt lat="43.59089" lon="1.76638">
        <ele>175.6</ele>
        <time>2021-08-19T11:13:27Z</time>
      </trkpt>
      <trkpt lat="43.59089" lon="1.76638">
        <ele>175.6</ele>
        <time>2021-08-19T11:13:32Z</time>
      </trkpt>
      <trkpt lat="43.59089" lon="1.76638">
        <ele>175.6</ele>
        <time>2021-08-19T11:13:37Z</time>
      </trkpt>
      <trkpt lat="43.59089" lon="1.76638">
        <ele>175.6</ele>
        <time>2021-08-19T11:13:42Z</time>
      </trkpt>
      <trkpt lat="43.59089" lon="1.76638">
        <ele>175.6</ele>
        <time>2021-08-19T11:13:47Z</time>
      </trkpt>
      <trkpt lat="43.59089" lon="1.76638">
        <ele>175.6</ele>
        <time>2021-08-19T11:13:52Z</time>
      </trkpt>
      <trkpt lat="43.59089" lon="1.76638">
        <ele>175.6</ele>
        <time>2021-08-19T11:13:57Z</time>
      </trkpt>
      <trkpt lat="43.59089" lon="1.76638">
        <ele>175.6</ele>
        <time>2021-08-19T11:14:02Z</time>
      </trkpt>
      <trkpt lat="43.59089" lon="1.76638">
        <ele>175.6</ele>
        <time>2021-08-19T11:14:07Z</time>
      </trkpt>
      <trkpt lat="43.59089" lon="1.76638">
        <ele>175.6</ele>
        <time>2021-08-19T11:14:12Z</time>
      </trkpt>
      <trkpt lat="43.59089" lon="1.76638">
        <ele>175.6</ele>
        <time>2021-08-19T11:14:17Z</time>
      </trkpt>
      <trkpt lat="43.59089" lon="1.76638">
        <ele>175.6</ele>
        <time>2021-08-19T11:14:22Z</time>
      </trkpt>
      <trkpt lat="43.59089" lon="1.76638">
        <ele>175.6</ele>
        <time>2021-08-19T11:14:27Z</time>
      </trkpt>
      <trkpt lat="43.59089" lon="1.76638">
        <ele>175.6</ele>
        <time>2021-08-19T11:14:32Z</time>
      </trkpt>
      <trkpt lat="43.59089" lon="1.76638">
        <ele>175.6</ele>
        <time>2021-08-19T11:14:37Z</time>
      </trkpt>
      <trkpt lat="43.59089" lon="1.76638">
        <ele>175.6</ele>
        <time>2021-08-19T11:14:42Z</time>
      </trkpt>
      <trkpt lat="43.59089" lon="1.76638">
        <ele>175.6</ele>
        <time>2021-08-19T11:14:47Z</time>
      </trkpt>
      <trkpt lat="43.59089" lon="1.76638">
        <ele>175.6</ele>
        <time>2021-08-19T11:14:52Z</time>
      </trkpt>
      <trkpt lat="43.59089" lon="1.76638">
        <ele>175.6</ele>
        <time>2021-08-19T11:14:57Z</time>
      </trkpt>
      <trkpt lat="43.59088" lon="1.76638">
        <ele>176.4</ele>
        <time>2021-08-19T11:15:02Z</time>
      </trkpt>
      <trkpt lat="43.59088" lon="1.76638">
        <ele>176.4</ele>
        <time>2021-08-19T11:15:07Z</time>
      </trkpt>
      <trkpt lat="43.59088" lon="1.76638">
        <ele>176.4</ele>
        <time>2021-08-19T11:15:12Z</time>
      </trkpt>
      <trkpt lat="43.59088" lon="1.76638">
        <ele>176.4</ele>
        <time>2021-08-19T11:15:17Z</time>
      </trkpt>
      <trkpt lat="43.59088" lon="1.76638">
        <ele>176.4</ele>
        <time>2021-08-19T11:15:22Z</time>
      </trkpt>
      <trkpt lat="43.59088" lon="1.76638">
        <ele>176.4</ele>
        <time>2021-08-19T11:15:27Z</time>
      </trkpt>
      <trkpt lat="43.59088" lon="1.76638">
        <ele>176.4</ele>
        <time>2021-08-19T11:15:32Z</time>
      </trkpt>
      <trkpt lat="43.59088" lon="1.76638">
        <ele>176.4</ele>
        <time>2021-08-19T11:15:37Z</time>
      </trkpt>
      <trkpt lat="43.59088" lon="1.76638">
        <ele>176.4</ele>
        <time>2021-08-19T11:15:42Z</time>
      </trkpt>
      <trkpt lat="43.59088" lon="1.76638">
        <ele>176.4</ele>
        <time>2021-08-19T11:15:47Z</time>
      </trkpt>
      <trkpt lat="43.59088" lon="1.76638">
        <ele>176.4</ele>
        <time>2021-08-19T11:15:52Z</time>
      </trkpt>
      <trkpt lat="43.59088" lon="1.76638">
        <ele>176.4</ele>
        <time>2021-08-19T11:15:57Z</time>
      </trkpt>
      <trkpt lat="43.59088" lon="1.76638">
        <ele>176.4</ele>
        <time>2021-08-19T11:16:02Z</time>
      </trkpt>
      <trkpt lat="43.59088" lon="1.76638">
        <ele>176.4</ele>
        <time>2021-08-19T11:16:07Z</time>
      </trkpt>
      <trkpt lat="43.59088" lon="1.76638">
        <ele>176.4</ele>
        <time>2021-08-19T11:16:12Z</time>
      </trkpt>
      <trkpt lat="43.59088" lon="1.76638">
        <ele>176.4</ele>
        <time>2021-08-19T11:16:17Z</time>
      </trkpt>
      <trkpt lat="43.59088" lon="1.76638">
        <ele>176.4</ele>
        <time>2021-08-19T11:16:22Z</time>
      </trkpt>
      <trkpt lat="43.59088" lon="1.76638">
        <ele>176.4</ele>
        <time>2021-08-19T11:16:27Z</time>
      </trkpt>
      <trkpt lat="43.59088" lon="1.76638">
        <ele>176.4</ele>
        <time>2021-08-19T11:16:32Z</time>
      </trkpt>
      <trkpt lat="43.59088" lon="1.76638">
        <ele>176.4</ele>
        <time>2021-08-19T11:16:37Z</time>
      </trkpt>
      <trkpt lat="43.59088" lon="1.76638">
        <ele>176.4</ele>
        <time>2021-08-19T11:16:42Z</time>
      </trkpt>
      <trkpt lat="43.59088" lon="1.76638">
        <ele>176.4</ele>
        <time>2021-08-19T11:16:47Z</time>
      </trkpt>
      <trkpt lat="43.59088" lon="1.76638">
        <ele>176.4</ele>
        <time>2021-08-19T11:16:52Z</time>
      </trkpt>
      <trkpt lat="43.59088" lon="1.76638">
        <ele>176.4</ele>
        <time>2021-08-19T11:16:57Z</time>
      </trkpt>
      <trkpt lat="43.59088" lon="1.76638">
        <ele>176.4</ele>
        <time>2021-08-19T11:17:02Z</time>
      </trkpt>
      <trkpt lat="43.59088" lon="1.76638">
        <ele>176.4</ele>
        <time>2021-08-19T11:17:07Z</time>
      </trkpt>
      <trkpt lat="43.59088" lon="1.76638">
        <ele>176.4</ele>
        <time>2021-08-19T11:17:12Z</time>
      </trkpt>
      <trkpt lat="43.59088" lon="1.76638">
        <ele>176.4</ele>
        <time>2021-08-19T11:17:17Z</time>
      </trkpt>
      <trkpt lat="43.59088" lon="1.76638">
        <ele>176.4</ele>
        <time>2021-08-19T11:17:22Z</time>
      </trkpt>
      <trkpt lat="43.59088" lon="1.76638">
        <ele>176.4</ele>
        <time>2021-08-19T11:17:27Z</time>
      </trkpt>
      <trkpt lat="43.59088" lon="1.76638">
        <ele>176.4</ele>
        <time>2021-08-19T11:17:32Z</time>
      </trkpt>
      <trkpt lat="43.59088" lon="1.76638">
        <ele>176.4</ele>
        <time>2021-08-19T11:17:37Z</time>
      </trkpt>
      <trkpt lat="43.59088" lon="1.76638">
        <ele>176.4</ele>
        <time>2021-08-19T11:17:42Z</time>
      </trkpt>
      <trkpt lat="43.59088" lon="1.76638">
        <ele>176.4</ele>
        <time>2021-08-19T11:17:47Z</time>
      </trkpt>
      <trkpt lat="43.59088" lon="1.76638">
        <ele>176.4</ele>
        <time>2021-08-19T11:17:52Z</time>
      </trkpt>
      <trkpt lat="43.59088" lon="1.76638">
        <ele>176.4</ele>
        <time>2021-08-19T11:17:57Z</time>
      </trkpt>
      <trkpt lat="43.59088" lon="1.76638">
        <ele>176.4</ele>
        <time>2021-08-19T11:18:02Z</time>
      </trkpt>
      <trkpt lat="43.59088" lon="1.76638">
        <ele>176.4</ele>
        <time>2021-08-19T11:18:07Z</time>
      </trkpt>
      <trkpt lat="43.59088" lon="1.76638">
        <ele>176.4</ele>
        <time>2021-08-19T11:18:12Z</time>
      </trkpt>
      <trkpt lat="43.59088" lon="1.76638">
        <ele>176.4</ele>
        <time>2021-08-19T11:18:17Z</time>
      </trkpt>
      <trkpt lat="43.59088" lon="1.76638">
        <ele>176.4</ele>
        <time>2021-08-19T11:18:22Z</time>
      </trkpt>
      <trkpt lat="43.59088" lon="1.76638">
        <ele>177.1</ele>
        <time>2021-08-19T11:18:27Z</time>
      </trkpt>
      <trkpt lat="43.59088" lon="1.76638">
        <ele>177.1</ele>
        <time>2021-08-19T11:18:32Z</time>
      </trkpt>
      <trkpt lat="43.59088" lon="1.76638">
        <ele>177.1</ele>
        <time>2021-08-19T11:18:37Z</time>
      </trkpt>
      <trkpt lat="43.59088" lon="1.76638">
        <ele>177.1</ele>
        <time>2021-08-19T11:18:42Z</time>
      </trkpt>
      <trkpt lat="43.59088" lon="1.76638">
        <ele>177.1</ele>
        <time>2021-08-19T11:18:47Z</time>
      </trkpt>
      <trkpt lat="43.59088" lon="1.76638">
        <ele>177.1</ele>
        <time>2021-08-19T11:18:52Z</time>
      </trkpt>
      <trkpt lat="43.59088" lon="1.76638">
        <ele>177.1</ele>
        <time>2021-08-19T11:18:57Z</time>
      </trkpt>
      <trkpt lat="43.59088" lon="1.76638">
        <ele>177.1</ele>
        <time>2021-08-19T11:19:02Z</time>
      </trkpt>
      <trkpt lat="43.59088" lon="1.76638">
        <ele>177.1</ele>
        <time>2021-08-19T11:19:07Z</time>
      </trkpt>
      <trkpt lat="43.59088" lon="1.76638">
        <ele>177.1</ele>
        <time>2021-08-19T11:19:12Z</time>
      </trkpt>
      <trkpt lat="43.59088" lon="1.76638">
        <ele>177.8</ele>
        <time>2021-08-19T11:19:17Z</time>
      </trkpt>
      <trkpt lat="43.59088" lon="1.76638">
        <ele>177.8</ele>
        <time>2021-08-19T11:19:22Z</time>
      </trkpt>
      <trkpt lat="43.59088" lon="1.76638">
        <ele>177.8</ele>
        <time>2021-08-19T11:19:27Z</time>
      </trkpt>
      <trkpt lat="43.59088" lon="1.76638">
        <ele>177.8</ele>
        <time>2021-08-19T11:19:32Z</time>
      </trkpt>
      <trkpt lat="43.59088" lon="1.76638">
        <ele>177.8</ele>
        <time>2021-08-19T11:19:37Z</time>
      </trkpt>
      <trkpt lat="43.59088" lon="1.76638">
        <ele>177.8</ele>
        <time>2021-08-19T11:19:42Z</time>
      </trkpt>
      <trkpt lat="43.59088" lon="1.76638">
        <ele>177.8</ele>
        <time>2021-08-19T11:19:47Z</time>
      </trkpt>
      <trkpt lat="43.59088" lon="1.76638">
        <ele>177.8</ele>
        <time>2021-08-19T11:19:52Z</time>
      </trkpt>
      <trkpt lat="43.59088" lon="1.76638">
        <ele>177.8</ele>
        <time>2021-08-19T11:19:57Z</time>
      </trkpt>
    </trkseg>
  </trk>
</gpx>